Time,TemperatureF,DewpointF,PressureIn,WindDirection,WindDirectionDegrees,WindSpeedMPH,WindSpeedGustMPH,Humidity,HourlyPrecipIn,Conditions,Clouds,dailyrainin,SoftwareType,DateUTC
2013-05-15 00:00:00,56.3,38.9,30.18,South,180,0.0,1.1,52,0.00,,---,0.00,VWS V14.01,2013-05-15 04:00:00,
2013-05-15 00:01:00,56.3,38.9,30.18,South,180,0.0,0.0,52,0.00,,---,0.00,VWS V14.01,2013-05-15 04:01:00,
2013-05-15 00:02:00,56.5,39.1,30.18,WNW,292,0.0,0.0,52,0.00,,---,0.00,VWS V14.01,2013-05-15 04:02:00,
2013-05-15 00:03:00,56.5,39.1,30.18,WNW,292,0.0,0.0,52,0.00,,---,0.00,VWS V14.01,2013-05-15 04:03:00,
2013-05-15 00:04:00,56.5,39.1,30.18,WNW,292,0.0,0.0,52,0.00,,---,0.00,VWS V14.01,2013-05-15 04:04:00,
2013-05-15 00:05:00,56.5,39.1,30.18,SSW,202,0.0,0.0,52,0.00,,---,0.00,VWS V14.01,2013-05-15 04:05:00,
2013-05-15 00:06:00,56.5,39.1,30.18,South,180,1.3,1.3,52,0.00,,---,0.00,VWS V14.01,2013-05-15 04:06:00,
2013-05-15 00:07:00,56.5,39.1,30.18,South,180,0.9,1.3,52,0.00,,---,0.00,VWS V14.01,2013-05-15 04:07:00,
2013-05-15 00:08:00,56.5,39.6,30.18,South,180,0.0,0.9,53,0.00,,---,0.00,VWS V14.01,2013-05-15 04:08:00,
2013-05-15 00:09:00,56.7,39.7,30.18,South,180,0.0,0.0,53,0.00,,---,0.00,VWS V14.01,2013-05-15 04:09:00,
2013-05-15 00:10:00,56.7,39.7,30.18,South,180,1.6,1.6,53,0.00,,---,0.00,VWS V14.01,2013-05-15 04:10:00,
2013-05-15 00:11:00,56.7,39.7,30.18,South,180,0.0,1.6,53,0.00,,---,0.00,VWS V14.01,2013-05-15 04:11:00,
2013-05-15 00:12:00,56.7,39.7,30.18,South,180,0.0,0.0,53,0.00,,---,0.00,VWS V14.01,2013-05-15 04:12:00,
2013-05-15 00:13:00,56.7,39.7,30.18,South,180,0.0,0.0,53,0.00,,---,0.00,VWS V14.01,2013-05-15 04:13:00,
2013-05-15 00:14:00,56.7,39.7,30.18,South,180,0.0,0.0,53,0.00,,---,0.00,VWS V14.01,2013-05-15 04:14:00,
2013-05-15 00:15:00,56.7,39.7,30.18,South,180,0.0,0.0,53,0.00,,---,0.00,VWS V14.01,2013-05-15 04:15:00,
2013-05-15 00:16:00,56.7,39.2,30.18,South,180,0.0,0.0,52,0.00,,---,0.00,VWS V14.01,2013-05-15 04:16:00,
2013-05-15 00:17:00,56.7,39.2,30.18,South,180,0.0,0.0,52,0.00,,---,0.00,VWS V14.01,2013-05-15 04:17:00,
2013-05-15 00:18:00,56.7,39.2,30.18,South,180,0.0,0.0,52,0.00,,---,0.00,VWS V14.01,2013-05-15 04:18:00,
2013-05-15 00:19:00,56.7,39.2,30.18,South,180,0.0,0.0,52,0.00,,---,0.00,VWS V14.01,2013-05-15 04:19:00,
2013-05-15 00:20:00,56.7,39.7,30.18,SW,225,0.0,0.0,53,0.00,,---,0.00,VWS V14.01,2013-05-15 04:20:00,
2013-05-15 00:21:00,56.7,39.7,30.18,South,180,0.0,0.0,53,0.00,,---,0.00,VWS V14.01,2013-05-15 04:21:00,
2013-05-15 00:22:00,56.7,39.7,30.18,SSW,202,0.0,0.0,53,0.00,,---,0.00,VWS V14.01,2013-05-15 04:22:00,
2013-05-15 00:23:00,56.7,39.7,30.18,SSE,158,0.0,0.0,53,0.00,,---,0.00,VWS V14.01,2013-05-15 04:23:00,
2013-05-15 00:24:00,56.7,39.7,30.18,SSE,158,0.0,0.0,53,0.00,,---,0.00,VWS V14.01,2013-05-15 04:24:00,
2013-05-15 00:25:00,56.7,39.7,30.18,SSE,158,0.0,0.0,53,0.00,,---,0.00,VWS V14.01,2013-05-15 04:25:00,
2013-05-15 00:26:00,56.7,39.7,30.18,SSE,158,0.0,0.0,53,0.00,,---,0.00,VWS V14.01,2013-05-15 04:26:00,
2013-05-15 00:27:00,56.7,39.7,30.18,WSW,248,0.0,0.0,53,0.00,,---,0.00,VWS V14.01,2013-05-15 04:27:00,
2013-05-15 00:28:00,56.7,39.7,30.18,WSW,248,0.0,0.0,53,0.00,,---,0.00,VWS V14.01,2013-05-15 04:28:00,
2013-05-15 00:29:00,56.7,39.7,30.18,West,270,0.0,0.0,53,0.00,,---,0.00,VWS V14.01,2013-05-15 04:29:00,
2013-05-15 00:30:00,56.7,39.7,30.18,SE,135,0.0,0.0,53,0.00,,---,0.00,VWS V14.01,2013-05-15 04:30:00,
2013-05-15 00:31:00,56.7,39.7,30.18,SSE,158,0.0,0.0,53,0.00,,---,0.00,VWS V14.01,2013-05-15 04:31:00,
2013-05-15 00:32:00,56.7,39.7,30.18,WSW,248,0.0,0.0,53,0.00,,---,0.00,VWS V14.01,2013-05-15 04:32:00,
2013-05-15 00:33:00,56.7,39.7,30.18,SSE,158,0.0,0.0,53,0.00,,---,0.00,VWS V14.01,2013-05-15 04:33:00,
2013-05-15 00:34:00,56.7,39.7,30.18,SSW,202,0.0,0.0,53,0.00,,---,0.00,VWS V14.01,2013-05-15 04:34:00,
2013-05-15 00:35:00,56.7,39.7,30.18,SSW,202,0.0,0.0,53,0.00,,---,0.00,VWS V14.01,2013-05-15 04:35:00,
2013-05-15 00:36:00,56.7,39.7,30.18,SSW,202,0.0,0.0,53,0.00,,---,0.00,VWS V14.01,2013-05-15 04:36:00,
2013-05-15 00:37:00,56.7,39.7,30.18,SSW,202,0.0,0.0,53,0.00,,---,0.00,VWS V14.01,2013-05-15 04:37:00,
2013-05-15 00:38:00,56.7,39.7,30.18,SSE,158,0.0,0.0,53,0.00,,---,0.00,VWS V14.01,2013-05-15 04:38:00,
2013-05-15 00:39:00,56.7,39.7,30.18,SSE,158,1.1,1.1,53,0.00,,---,0.00,VWS V14.01,2013-05-15 04:39:00,
2013-05-15 00:40:00,56.7,40.2,30.18,SSE,158,0.0,1.1,54,0.00,,---,0.00,VWS V14.01,2013-05-15 04:40:00,
2013-05-15 00:41:00,56.7,40.2,30.15,SSE,158,0.0,0.0,54,0.00,,---,0.00,VWS V14.01,2013-05-15 04:41:00,
2013-05-15 00:42:00,56.7,39.7,30.15,South,180,0.0,0.0,53,0.00,,---,0.00,VWS V14.01,2013-05-15 04:42:00,
2013-05-15 00:43:00,56.7,39.7,30.15,South,180,0.0,0.0,53,0.00,,---,0.00,VWS V14.01,2013-05-15 04:43:00,
2013-05-15 00:44:00,56.7,39.7,30.15,WSW,248,0.0,0.0,53,0.00,,---,0.00,VWS V14.01,2013-05-15 04:44:00,
2013-05-15 00:45:00,56.7,39.7,30.15,SSW,202,1.6,1.6,53,0.00,,---,0.00,VWS V14.01,2013-05-15 04:45:00,
2013-05-15 00:46:00,56.7,40.2,30.15,SSE,158,1.6,1.6,54,0.00,,---,0.00,VWS V14.01,2013-05-15 04:46:00,
2013-05-15 00:47:00,56.7,40.2,30.15,WSW,248,1.1,1.6,54,0.00,,---,0.00,VWS V14.01,2013-05-15 04:47:00,
2013-05-15 00:48:00,56.7,40.2,30.15,WSW,248,0.0,1.1,54,0.00,,---,0.00,VWS V14.01,2013-05-15 04:48:00,
2013-05-15 00:49:00,56.7,40.2,30.15,SSE,158,0.0,0.0,54,0.00,,---,0.00,VWS V14.01,2013-05-15 04:49:00,
2013-05-15 00:50:00,56.7,40.2,30.15,NNW,338,2.5,2.5,54,0.00,,---,0.00,VWS V14.01,2013-05-15 04:50:00,
2013-05-15 00:51:00,56.8,40.4,30.15,NNE,22,1.3,2.5,54,0.00,,---,0.00,VWS V14.01,2013-05-15 04:51:00,
2013-05-15 00:52:00,56.8,40.9,30.15,SSE,158,1.3,1.3,55,0.00,,---,0.00,VWS V14.01,2013-05-15 04:52:00,
2013-05-15 00:53:00,56.8,40.9,30.15,SSE,158,0.0,1.3,55,0.00,,---,0.00,VWS V14.01,2013-05-15 04:53:00,
2013-05-15 00:54:00,56.8,40.9,30.15,SSE,158,0.0,0.0,55,0.00,,---,0.00,VWS V14.01,2013-05-15 04:54:00,
2013-05-15 00:55:00,56.8,40.4,30.15,SW,225,0.0,0.0,54,0.00,,---,0.00,VWS V14.01,2013-05-15 04:55:00,
2013-05-15 00:56:00,56.8,40.9,30.15,SE,135,2.7,2.7,55,0.00,,---,0.00,VWS V14.01,2013-05-15 04:56:00,
2013-05-15 00:57:00,56.8,40.9,30.15,SSE,158,0.0,2.7,55,0.00,,---,0.00,VWS V14.01,2013-05-15 04:57:00,
2013-05-15 00:58:00,56.8,40.9,30.15,SSE,158,0.0,0.0,55,0.00,,---,0.00,VWS V14.01,2013-05-15 04:58:00,
2013-05-15 00:59:00,56.8,40.9,30.15,SSE,158,0.0,0.0,55,0.00,,---,0.00,VWS V14.01,2013-05-15 04:59:00,
2013-05-15 01:00:00,56.8,40.4,30.15,SSE,158,0.0,0.0,54,0.00,,---,0.00,VWS V14.01,2013-05-15 05:00:00,
2013-05-15 01:01:00,56.8,40.4,30.15,SSE,158,0.0,0.0,54,0.00,,---,0.00,VWS V14.01,2013-05-15 05:01:00,
2013-05-15 01:02:00,56.8,40.4,30.15,SSE,158,0.0,0.0,54,0.00,,---,0.00,VWS V14.01,2013-05-15 05:02:00,
2013-05-15 01:03:00,56.8,40.4,30.15,NNE,22,1.3,1.3,54,0.00,,---,0.00,VWS V14.01,2013-05-15 05:03:00,
2013-05-15 01:04:00,57.0,40.6,30.15,NE,45,1.1,1.3,54,0.00,,---,0.00,VWS V14.01,2013-05-15 05:04:00,
2013-05-15 01:05:00,57.0,40.6,30.15,ENE,68,0.0,1.1,54,0.00,,---,0.00,VWS V14.01,2013-05-15 05:05:00,
2013-05-15 01:06:00,57.0,40.6,30.15,NE,45,0.0,0.0,54,0.00,,---,0.00,VWS V14.01,2013-05-15 05:06:00,
2013-05-15 01:07:00,57.0,40.6,30.15,SSE,158,1.6,1.6,54,0.00,,---,0.00,VWS V14.01,2013-05-15 05:07:00,
2013-05-15 01:08:00,57.0,40.6,30.15,SSE,158,0.0,1.6,54,0.00,,---,0.00,VWS V14.01,2013-05-15 05:08:00,
2013-05-15 01:09:00,57.0,40.6,30.15,SSE,158,0.0,0.0,54,0.00,,---,0.00,VWS V14.01,2013-05-15 05:09:00,
2013-05-15 01:10:00,57.0,40.6,30.15,SSE,158,0.0,0.0,54,0.00,,---,0.00,VWS V14.01,2013-05-15 05:10:00,
2013-05-15 01:11:00,57.0,40.6,30.15,SW,225,0.0,0.0,54,0.00,,---,0.00,VWS V14.01,2013-05-15 05:11:00,
2013-05-15 01:12:00,57.0,40.6,30.15,SSW,202,0.0,0.0,54,0.00,,---,0.00,VWS V14.01,2013-05-15 05:12:00,
2013-05-15 01:13:00,57.0,40.6,30.15,SSW,202,0.0,0.0,54,0.00,,---,0.00,VWS V14.01,2013-05-15 05:13:00,
2013-05-15 01:14:00,57.0,40.6,30.15,SSW,202,0.0,0.0,54,0.00,,---,0.00,VWS V14.01,2013-05-15 05:14:00,
2013-05-15 01:15:00,57.0,40.6,30.15,South,180,1.3,1.3,54,0.00,,---,0.00,VWS V14.01,2013-05-15 05:15:00,
2013-05-15 01:16:00,57.0,40.6,30.15,South,180,0.0,1.3,54,0.00,,---,0.00,VWS V14.01,2013-05-15 05:16:00,
2013-05-15 01:17:00,57.0,40.6,30.15,South,180,1.3,1.3,54,0.00,,---,0.00,VWS V14.01,2013-05-15 05:17:00,
2013-05-15 01:18:00,57.2,40.7,30.15,WSW,248,0.0,1.3,54,0.00,,---,0.00,VWS V14.01,2013-05-15 05:18:00,
2013-05-15 01:19:00,57.2,40.7,30.15,SE,135,1.1,1.1,54,0.00,,---,0.00,VWS V14.01,2013-05-15 05:19:00,
2013-05-15 01:20:00,57.2,40.7,30.15,SE,135,2.5,2.5,54,0.00,,---,0.00,VWS V14.01,2013-05-15 05:20:00,
2013-05-15 01:21:00,57.2,41.2,30.15,SE,135,0.0,2.5,55,0.00,,---,0.00,VWS V14.01,2013-05-15 05:21:00,
2013-05-15 01:22:00,57.2,40.7,30.15,South,180,0.9,0.9,54,0.00,,---,0.00,VWS V14.01,2013-05-15 05:22:00,
2013-05-15 01:23:00,57.2,40.7,30.15,South,180,0.9,0.9,54,0.00,,---,0.00,VWS V14.01,2013-05-15 05:23:00,
2013-05-15 01:24:00,57.2,40.7,30.15,South,180,0.0,0.9,54,0.00,,---,0.00,VWS V14.01,2013-05-15 05:24:00,
2013-05-15 01:25:00,57.2,40.7,30.15,South,180,0.0,0.0,54,0.00,,---,0.00,VWS V14.01,2013-05-15 05:25:00,
2013-05-15 01:26:00,57.2,40.7,30.15,South,180,0.0,0.0,54,0.00,,---,0.00,VWS V14.01,2013-05-15 05:26:00,
2013-05-15 01:27:00,57.2,40.7,30.15,South,180,1.1,1.1,54,0.00,,---,0.00,VWS V14.01,2013-05-15 05:27:00,
2013-05-15 01:28:00,57.2,40.7,30.15,WSW,248,0.0,1.1,54,0.00,,---,0.00,VWS V14.01,2013-05-15 05:28:00,
2013-05-15 01:29:00,57.2,40.7,30.15,WSW,248,0.0,0.0,54,0.00,,---,0.00,VWS V14.01,2013-05-15 05:29:00,
2013-05-15 01:30:00,57.2,40.7,30.15,South,180,1.3,1.3,54,0.00,,---,0.00,VWS V14.01,2013-05-15 05:30:00,
2013-05-15 01:31:00,57.2,40.7,30.15,South,180,0.0,1.3,54,0.00,,---,0.00,VWS V14.01,2013-05-15 05:31:00,
2013-05-15 01:32:00,57.2,40.7,30.15,South,180,0.0,0.0,54,0.00,,---,0.00,VWS V14.01,2013-05-15 05:32:00,
2013-05-15 01:33:00,57.2,40.7,30.15,South,180,0.0,0.0,54,0.00,,---,0.00,VWS V14.01,2013-05-15 05:33:00,
2013-05-15 01:34:00,57.2,40.7,30.15,South,180,0.0,0.0,54,0.00,,---,0.00,VWS V14.01,2013-05-15 05:34:00,
2013-05-15 01:35:00,57.2,40.7,30.15,South,180,0.0,0.0,54,0.00,,---,0.00,VWS V14.01,2013-05-15 05:35:00,
2013-05-15 01:36:00,57.0,41.0,30.15,SSE,158,0.0,0.0,55,0.00,,---,0.00,VWS V14.01,2013-05-15 05:36:00,
2013-05-15 01:37:00,57.0,41.0,30.15,West,270,0.0,0.0,55,0.00,,---,0.00,VWS V14.01,2013-05-15 05:37:00,
2013-05-15 01:38:00,57.0,41.0,30.15,SSE,158,0.0,0.0,55,0.00,,---,0.00,VWS V14.01,2013-05-15 05:38:00,
2013-05-15 01:39:00,57.0,41.0,30.15,SSE,158,0.0,0.0,55,0.00,,---,0.00,VWS V14.01,2013-05-15 05:39:00,
2013-05-15 01:41:00,57.0,41.0,30.15,WNW,292,0.9,0.9,55,0.00,,---,0.00,VWS V14.01,2013-05-15 05:41:00,
2013-05-15 01:42:00,57.0,41.0,30.15,SSE,158,1.6,1.6,55,0.00,,---,0.00,VWS V14.01,2013-05-15 05:42:00,
2013-05-15 01:43:00,57.0,41.5,30.15,SSE,158,0.0,1.6,56,0.00,,---,0.00,VWS V14.01,2013-05-15 05:43:00,
2013-05-15 01:44:00,57.0,41.5,30.15,SSE,158,0.0,0.0,56,0.00,,---,0.00,VWS V14.01,2013-05-15 05:44:00,
2013-05-15 01:45:00,57.0,41.5,30.15,SSE,158,0.0,0.0,56,0.00,,---,0.00,VWS V14.01,2013-05-15 05:45:00,
2013-05-15 01:46:00,56.8,41.3,30.15,SSE,158,0.0,0.0,56,0.00,,---,0.00,VWS V14.01,2013-05-15 05:46:00,
2013-05-15 01:47:00,56.8,41.3,30.15,SSE,158,0.0,0.0,56,0.00,,---,0.00,VWS V14.01,2013-05-15 05:47:00,
2013-05-15 01:48:00,56.8,40.9,30.15,SSE,158,0.0,0.0,55,0.00,,---,0.00,VWS V14.01,2013-05-15 05:48:00,
2013-05-15 01:49:00,56.8,40.9,30.15,SSE,158,0.0,0.0,55,0.00,,---,0.00,VWS V14.01,2013-05-15 05:49:00,
2013-05-15 01:50:00,56.8,41.3,30.15,SSE,158,0.0,0.0,56,0.00,,---,0.00,VWS V14.01,2013-05-15 05:50:00,
2013-05-15 01:51:00,56.8,40.9,30.15,SSE,158,0.0,0.0,55,0.00,,---,0.00,VWS V14.01,2013-05-15 05:51:00,
2013-05-15 01:52:00,56.8,41.3,30.15,SSE,158,0.0,0.0,56,0.00,,---,0.00,VWS V14.01,2013-05-15 05:52:00,
2013-05-15 01:53:00,56.8,41.3,30.15,SSE,158,0.9,0.9,56,0.00,,---,0.00,VWS V14.01,2013-05-15 05:53:00,
2013-05-15 01:54:00,56.8,41.3,30.15,SSE,158,0.0,0.9,56,0.00,,---,0.00,VWS V14.01,2013-05-15 05:54:00,
2013-05-15 01:55:00,56.7,41.2,30.15,SSE,158,0.0,0.0,56,0.00,,---,0.00,VWS V14.01,2013-05-15 05:55:00,
2013-05-15 01:56:00,56.8,41.8,30.15,SE,135,2.0,2.0,57,0.00,,---,0.00,VWS V14.01,2013-05-15 05:56:00,
2013-05-15 01:57:00,56.7,41.6,30.15,SE,135,0.0,2.0,57,0.00,,---,0.00,VWS V14.01,2013-05-15 05:57:00,
2013-05-15 01:58:00,56.7,41.6,30.15,SE,135,0.0,0.0,57,0.00,,---,0.00,VWS V14.01,2013-05-15 05:58:00,
2013-05-15 01:59:00,56.7,41.6,30.15,WNW,292,0.0,0.0,57,0.00,,---,0.00,VWS V14.01,2013-05-15 05:59:00,
2013-05-15 02:00:00,56.7,41.6,30.15,WSW,248,1.6,1.6,57,0.00,,---,0.00,VWS V14.01,2013-05-15 06:00:00,
2013-05-15 02:01:00,56.7,41.6,30.15,NNW,338,0.9,1.6,57,0.00,,---,0.00,VWS V14.01,2013-05-15 06:01:00,
2013-05-15 02:02:00,56.7,42.1,30.15,SE,135,2.5,2.5,58,0.00,,---,0.00,VWS V14.01,2013-05-15 06:02:00,
2013-05-15 02:03:00,56.7,42.1,30.15,SE,135,0.0,2.5,58,0.00,,---,0.00,VWS V14.01,2013-05-15 06:03:00,
2013-05-15 02:04:00,56.7,42.1,30.15,SE,135,1.6,1.6,58,0.00,,---,0.00,VWS V14.01,2013-05-15 06:04:00,
2013-05-15 02:05:00,56.7,42.1,30.15,SSE,158,2.0,2.0,58,0.00,,---,0.00,VWS V14.01,2013-05-15 06:05:00,
2013-05-15 02:06:00,56.7,42.1,30.15,SSE,158,0.0,2.0,58,0.00,,---,0.00,VWS V14.01,2013-05-15 06:06:00,
2013-05-15 02:07:00,56.7,42.1,30.15,SSW,202,2.9,2.9,58,0.00,,---,0.00,VWS V14.01,2013-05-15 06:07:00,
2013-05-15 02:08:00,56.7,42.5,30.15,South,180,0.0,2.9,59,0.00,,---,0.00,VWS V14.01,2013-05-15 06:08:00,
2013-05-15 02:09:00,56.7,42.5,30.15,SSE,158,2.5,2.5,59,0.00,,---,0.00,VWS V14.01,2013-05-15 06:09:00,
2013-05-15 02:10:00,56.7,42.5,30.15,SSW,202,0.0,2.5,59,0.00,,---,0.00,VWS V14.01,2013-05-15 06:10:00,
2013-05-15 02:11:00,56.7,42.5,30.15,South,180,0.0,0.0,59,0.00,,---,0.00,VWS V14.01,2013-05-15 06:11:00,
2013-05-15 02:12:00,56.7,42.5,30.15,SSW,202,0.0,0.0,59,0.00,,---,0.00,VWS V14.01,2013-05-15 06:12:00,
2013-05-15 02:13:00,56.7,42.5,30.15,South,180,0.0,0.0,59,0.00,,---,0.00,VWS V14.01,2013-05-15 06:13:00,
2013-05-15 02:14:00,56.7,42.5,30.15,SE,135,0.0,0.0,59,0.00,,---,0.00,VWS V14.01,2013-05-15 06:14:00,
2013-05-15 02:15:00,56.7,42.5,30.15,ESE,112,1.6,1.6,59,0.00,,---,0.00,VWS V14.01,2013-05-15 06:15:00,
2013-05-15 02:16:00,56.7,42.5,30.15,ESE,112,0.0,1.6,59,0.00,,---,0.00,VWS V14.01,2013-05-15 06:16:00,
2013-05-15 02:17:00,56.7,42.5,30.15,SE,135,0.0,0.0,59,0.00,,---,0.00,VWS V14.01,2013-05-15 06:17:00,
2013-05-15 02:18:00,56.7,42.5,30.15,South,180,1.1,1.1,59,0.00,,---,0.00,VWS V14.01,2013-05-15 06:18:00,
2013-05-15 02:19:00,56.7,42.5,30.15,West,270,0.0,1.1,59,0.00,,---,0.00,VWS V14.01,2013-05-15 06:19:00,
2013-05-15 02:20:00,56.7,42.5,30.15,WSW,248,0.0,0.0,59,0.00,,---,0.00,VWS V14.01,2013-05-15 06:20:00,
2013-05-15 02:21:00,56.7,42.5,30.15,SE,135,0.0,0.0,59,0.00,,---,0.00,VWS V14.01,2013-05-15 06:21:00,
2013-05-15 02:22:00,56.7,42.5,30.15,SSE,158,0.0,0.0,59,0.00,,---,0.00,VWS V14.01,2013-05-15 06:22:00,
2013-05-15 02:23:00,56.7,42.5,30.15,WSW,248,0.0,0.0,59,0.00,,---,0.00,VWS V14.01,2013-05-15 06:23:00,
2013-05-15 02:24:00,56.7,42.5,30.15,SSE,158,2.0,2.0,59,0.00,,---,0.00,VWS V14.01,2013-05-15 06:24:00,
2013-05-15 02:25:00,56.7,43.0,30.15,WNW,292,0.0,2.0,60,0.00,,---,0.00,VWS V14.01,2013-05-15 06:25:00,
2013-05-15 02:26:00,56.7,43.0,30.15,South,180,2.0,2.0,60,0.00,,---,0.00,VWS V14.01,2013-05-15 06:26:00,
2013-05-15 02:27:00,56.7,43.0,30.15,South,180,0.9,2.0,60,0.00,,---,0.00,VWS V14.01,2013-05-15 06:27:00,
2013-05-15 02:28:00,56.7,43.0,30.15,SSE,158,1.1,1.1,60,0.00,,---,0.00,VWS V14.01,2013-05-15 06:28:00,
2013-05-15 02:29:00,56.8,43.1,30.15,SSW,202,2.2,2.2,60,0.00,,---,0.00,VWS V14.01,2013-05-15 06:29:00,
2013-05-15 02:30:00,56.7,43.4,30.15,SSW,202,0.0,2.2,61,0.00,,---,0.00,VWS V14.01,2013-05-15 06:30:00,
2013-05-15 02:31:00,56.7,43.0,30.15,South,180,0.0,0.0,60,0.00,,---,0.00,VWS V14.01,2013-05-15 06:31:00,
2013-05-15 02:32:00,56.7,43.0,30.15,SW,225,0.9,0.9,60,0.00,,---,0.00,VWS V14.01,2013-05-15 06:32:00,
2013-05-15 02:33:00,56.7,43.0,30.15,SW,225,0.0,0.9,60,0.00,,---,0.00,VWS V14.01,2013-05-15 06:33:00,
2013-05-15 02:34:00,56.7,43.0,30.15,WSW,248,0.9,0.9,60,0.00,,---,0.00,VWS V14.01,2013-05-15 06:34:00,
2013-05-15 02:35:00,56.7,43.0,30.15,WNW,292,0.0,0.9,60,0.00,,---,0.00,VWS V14.01,2013-05-15 06:35:00,
2013-05-15 02:36:00,56.7,43.0,30.15,West,270,0.0,0.0,60,0.00,,---,0.00,VWS V14.01,2013-05-15 06:36:00,
2013-05-15 02:37:00,56.8,43.5,30.15,South,180,0.0,0.0,61,0.00,,---,0.00,VWS V14.01,2013-05-15 06:37:00,
2013-05-15 02:38:00,56.8,43.5,30.15,SSE,158,1.6,1.6,61,0.00,,---,0.00,VWS V14.01,2013-05-15 06:38:00,
2013-05-15 02:39:00,56.8,43.5,30.15,SSW,202,1.1,1.6,61,0.00,,---,0.00,VWS V14.01,2013-05-15 06:39:00,
2013-05-15 02:40:00,56.8,43.5,30.15,SSW,202,0.0,1.1,61,0.00,,---,0.00,VWS V14.01,2013-05-15 06:40:00,
2013-05-15 02:41:00,57.0,43.7,30.12,SSW,202,0.0,0.0,61,0.00,,---,0.00,VWS V14.01,2013-05-15 06:41:00,
2013-05-15 02:42:00,57.0,43.7,30.12,SSW,202,0.0,0.0,61,0.00,,---,0.00,VWS V14.01,2013-05-15 06:42:00,
2013-05-15 02:43:00,57.0,43.7,30.12,South,180,0.0,0.0,61,0.00,,---,0.00,VWS V14.01,2013-05-15 06:43:00,
2013-05-15 02:44:00,57.0,43.7,30.12,NE,45,2.0,2.0,61,0.00,,---,0.00,VWS V14.01,2013-05-15 06:44:00,
2013-05-15 02:45:00,57.0,43.7,30.12,WNW,292,0.0,2.0,61,0.00,,---,0.00,VWS V14.01,2013-05-15 06:45:00,
2013-05-15 02:46:00,57.0,44.1,30.12,NNW,338,1.6,1.6,62,0.00,,---,0.00,VWS V14.01,2013-05-15 06:46:00,
2013-05-15 02:47:00,57.2,44.3,30.12,SSE,158,0.0,1.6,62,0.00,,---,0.00,VWS V14.01,2013-05-15 06:47:00,
2013-05-15 02:48:00,57.2,44.3,30.12,WSW,248,0.0,0.0,62,0.00,,---,0.00,VWS V14.01,2013-05-15 06:48:00,
2013-05-15 02:49:00,57.0,44.1,30.12,NNW,338,0.0,0.0,62,0.00,,---,0.00,VWS V14.01,2013-05-15 06:49:00,
2013-05-15 02:50:00,57.2,44.3,30.12,WNW,292,0.0,0.0,62,0.00,,---,0.00,VWS V14.01,2013-05-15 06:50:00,
2013-05-15 02:51:00,57.2,43.9,30.12,SSE,158,0.0,0.0,61,0.00,,---,0.00,VWS V14.01,2013-05-15 06:51:00,
2013-05-15 02:52:00,57.2,43.9,30.12,South,180,0.0,0.0,61,0.00,,---,0.00,VWS V14.01,2013-05-15 06:52:00,
2013-05-15 02:53:00,57.2,43.9,30.12,West,270,2.7,2.7,61,0.00,,---,0.00,VWS V14.01,2013-05-15 06:53:00,
2013-05-15 02:54:00,57.2,43.9,30.12,NW,315,2.5,2.7,61,0.00,,---,0.00,VWS V14.01,2013-05-15 06:54:00,
2013-05-15 02:55:00,57.2,44.3,30.12,ESE,112,2.0,2.5,62,0.00,,---,0.00,VWS V14.01,2013-05-15 06:55:00,
2013-05-15 02:56:00,57.2,44.7,30.12,East,90,1.1,2.0,63,0.00,,---,0.00,VWS V14.01,2013-05-15 06:56:00,
2013-05-15 02:57:00,57.2,44.7,30.12,ENE,68,0.0,1.1,63,0.00,,---,0.00,VWS V14.01,2013-05-15 06:57:00,
2013-05-15 02:58:00,57.2,44.3,30.12,ENE,68,0.0,0.0,62,0.00,,---,0.00,VWS V14.01,2013-05-15 06:58:00,
2013-05-15 02:59:00,57.2,44.3,30.12,East,90,0.0,0.0,62,0.00,,---,0.00,VWS V14.01,2013-05-15 06:59:00,
2013-05-15 03:00:00,57.2,44.3,30.12,East,90,0.0,0.0,62,0.00,,---,0.00,VWS V14.01,2013-05-15 07:00:00,
2013-05-15 03:01:00,57.2,44.3,30.12,West,270,0.9,0.9,62,0.00,,---,0.00,VWS V14.01,2013-05-15 07:01:00,
2013-05-15 03:02:00,57.2,44.3,30.12,SSE,158,0.0,0.9,62,0.00,,---,0.00,VWS V14.01,2013-05-15 07:02:00,
2013-05-15 03:03:00,57.2,44.3,30.12,SSE,158,0.0,0.0,62,0.00,,---,0.00,VWS V14.01,2013-05-15 07:03:00,
2013-05-15 03:04:00,57.2,44.3,30.12,SSE,158,0.0,0.0,62,0.00,,---,0.00,VWS V14.01,2013-05-15 07:04:00,
2013-05-15 03:05:00,57.2,44.3,30.12,SSE,158,0.0,0.0,62,0.00,,---,0.00,VWS V14.01,2013-05-15 07:05:00,
2013-05-15 03:06:00,57.2,44.3,30.12,WSW,248,0.0,0.0,62,0.00,,---,0.00,VWS V14.01,2013-05-15 07:06:00,
2013-05-15 03:07:00,57.2,44.3,30.12,SW,225,0.0,0.0,62,0.00,,---,0.00,VWS V14.01,2013-05-15 07:07:00,
2013-05-15 03:08:00,57.2,44.3,30.12,SSE,158,0.0,0.0,62,0.00,,---,0.00,VWS V14.01,2013-05-15 07:08:00,
2013-05-15 03:09:00,57.2,44.3,30.12,SSE,158,0.0,0.0,62,0.00,,---,0.00,VWS V14.01,2013-05-15 07:09:00,
2013-05-15 03:10:00,57.0,44.1,30.12,SSE,158,0.0,0.0,62,0.00,,---,0.00,VWS V14.01,2013-05-15 07:10:00,
2013-05-15 03:11:00,57.0,44.1,30.12,SSE,158,0.0,0.0,62,0.00,,---,0.00,VWS V14.01,2013-05-15 07:11:00,
2013-05-15 03:12:00,57.0,44.1,30.12,SSE,158,0.0,0.0,62,0.00,,---,0.00,VWS V14.01,2013-05-15 07:12:00,
2013-05-15 03:13:00,57.0,44.1,30.12,SSW,202,0.0,0.0,62,0.00,,---,0.00,VWS V14.01,2013-05-15 07:13:00,
2013-05-15 03:14:00,57.0,44.1,30.12,SSE,158,0.0,0.0,62,0.00,,---,0.00,VWS V14.01,2013-05-15 07:14:00,
2013-05-15 03:15:00,57.0,44.1,30.12,SSE,158,0.0,0.0,62,0.00,,---,0.00,VWS V14.01,2013-05-15 07:15:00,
2013-05-15 03:16:00,57.0,44.1,30.12,SSE,158,1.6,1.6,62,0.00,,---,0.00,VWS V14.01,2013-05-15 07:16:00,
2013-05-15 03:17:00,57.0,44.6,30.12,WSW,248,0.0,1.6,63,0.00,,---,0.00,VWS V14.01,2013-05-15 07:17:00,
2013-05-15 03:18:00,57.0,44.6,30.12,SSE,158,2.7,2.7,63,0.00,,---,0.00,VWS V14.01,2013-05-15 07:18:00,
2013-05-15 03:19:00,57.0,44.6,30.12,NNW,338,0.0,2.7,63,0.00,,---,0.00,VWS V14.01,2013-05-15 07:19:00,
2013-05-15 03:20:00,57.0,44.6,30.12,South,180,0.0,0.0,63,0.00,,---,0.00,VWS V14.01,2013-05-15 07:20:00,
2013-05-15 03:21:00,57.0,44.6,30.12,SSE,158,0.0,0.0,63,0.00,,---,0.00,VWS V14.01,2013-05-15 07:21:00,
2013-05-15 03:22:00,57.0,44.6,30.12,SSE,158,0.0,0.0,63,0.00,,---,0.00,VWS V14.01,2013-05-15 07:22:00,
2013-05-15 03:23:00,57.0,44.6,30.12,SSE,158,1.3,1.3,63,0.00,,---,0.00,VWS V14.01,2013-05-15 07:23:00,
2013-05-15 03:24:00,57.0,44.6,30.12,WSW,248,0.0,1.3,63,0.00,,---,0.00,VWS V14.01,2013-05-15 07:24:00,
2013-05-15 03:25:00,57.0,44.6,30.12,ENE,68,1.6,1.6,63,0.00,,---,0.00,VWS V14.01,2013-05-15 07:25:00,
2013-05-15 03:26:00,57.0,44.6,30.09,ESE,112,0.0,1.6,63,0.00,,---,0.00,VWS V14.01,2013-05-15 07:26:00,
2013-05-15 03:27:00,56.8,44.4,30.09,ESE,112,0.0,0.0,63,0.00,,---,0.00,VWS V14.01,2013-05-15 07:27:00,
2013-05-15 03:28:00,56.8,44.4,30.09,NW,315,0.0,0.0,63,0.00,,---,0.00,VWS V14.01,2013-05-15 07:28:00,
2013-05-15 03:29:00,56.8,44.4,30.09,NW,315,2.0,2.0,63,0.00,,---,0.00,VWS V14.01,2013-05-15 07:29:00,
2013-05-15 03:30:00,57.0,45.0,30.09,SSW,202,0.0,2.0,64,0.00,,---,0.00,VWS V14.01,2013-05-15 07:30:00,
2013-05-15 03:31:00,57.0,45.0,30.09,WNW,292,0.0,0.0,64,0.00,,---,0.00,VWS V14.01,2013-05-15 07:31:00,
2013-05-15 03:32:00,57.0,45.0,30.09,SSE,158,0.0,0.0,64,0.00,,---,0.00,VWS V14.01,2013-05-15 07:32:00,
2013-05-15 03:33:00,57.0,45.0,30.09,West,270,0.0,0.0,64,0.00,,---,0.00,VWS V14.01,2013-05-15 07:33:00,
2013-05-15 03:34:00,56.8,44.8,30.09,WNW,292,2.7,2.7,64,0.00,,---,0.00,VWS V14.01,2013-05-15 07:34:00,
2013-05-15 03:35:00,57.0,45.0,30.09,South,180,1.6,2.7,64,0.00,,---,0.00,VWS V14.01,2013-05-15 07:35:00,
2013-05-15 03:36:00,57.0,45.0,30.09,ESE,112,1.6,1.6,64,0.00,,---,0.00,VWS V14.01,2013-05-15 07:36:00,
2013-05-15 03:37:00,57.0,45.0,30.09,South,180,0.0,1.6,64,0.00,,---,0.00,VWS V14.01,2013-05-15 07:37:00,
2013-05-15 03:38:00,56.8,44.8,30.09,SSE,158,0.0,0.0,64,0.00,,---,0.00,VWS V14.01,2013-05-15 07:38:00,
2013-05-15 03:39:00,57.0,45.0,30.09,East,90,1.1,1.1,64,0.00,,---,0.00,VWS V14.01,2013-05-15 07:39:00,
2013-05-15 03:40:00,57.0,45.4,30.09,NE,45,0.0,1.1,65,0.00,,---,0.00,VWS V14.01,2013-05-15 07:40:00,
2013-05-15 03:41:00,57.0,45.0,30.09,ENE,68,1.1,1.1,64,0.00,,---,0.00,VWS V14.01,2013-05-15 07:41:00,
2013-05-15 03:42:00,57.0,45.0,30.09,North,0,1.1,1.1,64,0.00,,---,0.00,VWS V14.01,2013-05-15 07:42:00,
2013-05-15 03:43:00,57.0,45.4,30.09,NNW,338,0.9,1.1,65,0.00,,---,0.00,VWS V14.01,2013-05-15 07:43:00,
2013-05-15 03:44:00,57.0,45.0,30.09,SSE,158,0.0,0.9,64,0.00,,---,0.00,VWS V14.01,2013-05-15 07:44:00,
2013-05-15 03:45:00,57.0,45.0,30.09,West,270,0.0,0.0,64,0.00,,---,0.00,VWS V14.01,2013-05-15 07:45:00,
2013-05-15 03:46:00,57.0,45.0,30.09,South,180,0.9,0.9,64,0.00,,---,0.00,VWS V14.01,2013-05-15 07:46:00,
2013-05-15 03:47:00,57.0,45.0,30.09,South,180,0.0,0.9,64,0.00,,---,0.00,VWS V14.01,2013-05-15 07:47:00,
2013-05-15 03:48:00,56.8,44.8,30.09,South,180,0.0,0.0,64,0.00,,---,0.00,VWS V14.01,2013-05-15 07:48:00,
2013-05-15 03:49:00,56.8,44.8,30.09,WSW,248,0.0,0.0,64,0.00,,---,0.00,VWS V14.01,2013-05-15 07:49:00,
2013-05-15 03:50:00,56.8,44.8,30.09,SSW,202,0.9,0.9,64,0.00,,---,0.00,VWS V14.01,2013-05-15 07:50:00,
2013-05-15 03:51:00,56.8,44.8,30.09,South,180,1.1,1.1,64,0.00,,---,0.00,VWS V14.01,2013-05-15 07:51:00,
2013-05-15 03:52:00,56.8,44.8,30.09,WSW,248,0.9,1.1,64,0.00,,---,0.00,VWS V14.01,2013-05-15 07:52:00,
2013-05-15 03:53:00,57.0,45.0,30.09,SSE,158,1.6,1.6,64,0.00,,---,0.00,VWS V14.01,2013-05-15 07:53:00,
2013-05-15 03:54:00,56.8,45.2,30.09,ENE,68,0.9,1.6,65,0.00,,---,0.00,VWS V14.01,2013-05-15 07:54:00,
2013-05-15 03:55:00,56.8,45.2,30.09,West,270,0.0,0.9,65,0.00,,---,0.00,VWS V14.01,2013-05-15 07:55:00,
2013-05-15 03:56:00,56.8,45.2,30.09,NNW,338,1.3,1.3,65,0.00,,---,0.00,VWS V14.01,2013-05-15 07:56:00,
2013-05-15 03:57:00,57.0,45.4,30.09,WNW,292,0.0,1.3,65,0.00,,---,0.00,VWS V14.01,2013-05-15 07:57:00,
2013-05-15 03:58:00,57.0,45.8,30.09,WNW,292,0.0,0.0,66,0.00,,---,0.00,VWS V14.01,2013-05-15 07:58:00,
2013-05-15 03:59:00,57.0,45.8,30.09,SSE,158,2.0,2.0,66,0.00,,---,0.00,VWS V14.01,2013-05-15 07:59:00,
2013-05-15 04:00:00,57.0,45.8,30.09,SSE,158,0.0,2.0,66,0.00,,---,0.00,VWS V14.01,2013-05-15 08:00:00,
2013-05-15 04:01:00,57.0,45.8,30.09,SSE,158,0.0,0.0,66,0.00,,---,0.00,VWS V14.01,2013-05-15 08:01:00,
2013-05-15 04:02:00,57.0,45.8,30.09,SSE,158,1.3,1.3,66,0.00,,---,0.00,VWS V14.01,2013-05-15 08:02:00,
2013-05-15 04:03:00,57.0,45.8,30.09,South,180,0.9,1.3,66,0.00,,---,0.00,VWS V14.01,2013-05-15 08:03:00,
2013-05-15 04:04:00,57.0,45.8,30.09,SSE,158,0.0,0.9,66,0.00,,---,0.00,VWS V14.01,2013-05-15 08:04:00,
2013-05-15 04:05:00,57.0,45.8,30.09,SSE,158,0.0,0.0,66,0.00,,---,0.00,VWS V14.01,2013-05-15 08:05:00,
2013-05-15 04:06:00,56.8,45.6,30.09,SSE,158,0.0,0.0,66,0.00,,---,0.00,VWS V14.01,2013-05-15 08:06:00,
2013-05-15 04:07:00,56.8,45.6,30.09,SSE,158,0.0,0.0,66,0.00,,---,0.00,VWS V14.01,2013-05-15 08:07:00,
2013-05-15 04:08:00,56.8,45.6,30.09,SE,135,0.0,0.0,66,0.00,,---,0.00,VWS V14.01,2013-05-15 08:08:00,
2013-05-15 04:09:00,56.8,45.6,30.09,SE,135,0.0,0.0,66,0.00,,---,0.00,VWS V14.01,2013-05-15 08:09:00,
2013-05-15 04:10:00,56.8,45.2,30.09,WNW,292,0.0,0.0,65,0.00,,---,0.00,VWS V14.01,2013-05-15 08:10:00,
2013-05-15 04:11:00,56.8,45.6,30.09,NNW,338,0.0,0.0,66,0.00,,---,0.00,VWS V14.01,2013-05-15 08:11:00,
2013-05-15 04:12:00,56.8,45.6,30.09,West,270,0.0,0.0,66,0.00,,---,0.00,VWS V14.01,2013-05-15 08:12:00,
2013-05-15 04:13:00,57.0,45.8,30.09,SSE,158,1.6,1.6,66,0.00,,---,0.00,VWS V14.01,2013-05-15 08:13:00,
2013-05-15 04:14:00,57.0,45.8,30.09,West,270,0.0,1.6,66,0.00,,---,0.00,VWS V14.01,2013-05-15 08:14:00,
2013-05-15 04:15:00,57.0,46.2,30.09,SSE,158,1.6,1.6,67,0.00,,---,0.00,VWS V14.01,2013-05-15 08:15:00,
2013-05-15 04:16:00,57.0,46.2,30.09,SSE,158,0.0,1.6,67,0.00,,---,0.00,VWS V14.01,2013-05-15 08:16:00,
2013-05-15 04:17:00,57.0,46.2,30.09,SE,135,1.6,1.6,67,0.00,,---,0.00,VWS V14.01,2013-05-15 08:17:00,
2013-05-15 04:18:00,57.0,46.2,30.09,East,90,0.0,1.6,67,0.00,,---,0.00,VWS V14.01,2013-05-15 08:18:00,
2013-05-15 04:19:00,57.0,46.2,30.09,WNW,292,1.1,1.1,67,0.00,,---,0.00,VWS V14.01,2013-05-15 08:19:00,
2013-05-15 04:20:00,57.0,46.2,30.09,NNW,338,1.1,1.1,67,0.00,,---,0.00,VWS V14.01,2013-05-15 08:20:00,
2013-05-15 04:21:00,57.0,46.2,30.09,SSE,158,1.3,1.3,67,0.00,,---,0.00,VWS V14.01,2013-05-15 08:21:00,
2013-05-15 04:22:00,57.0,46.2,30.09,SE,135,1.6,1.6,67,0.00,,---,0.00,VWS V14.01,2013-05-15 08:22:00,
2013-05-15 04:23:00,57.0,46.2,30.09,SSE,158,0.0,1.6,67,0.00,,---,0.00,VWS V14.01,2013-05-15 08:23:00,
2013-05-15 04:24:00,57.0,46.2,30.09,SSE,158,0.0,0.0,67,0.00,,---,0.00,VWS V14.01,2013-05-15 08:24:00,
2013-05-15 04:25:00,57.0,46.2,30.09,SSE,158,1.1,1.1,67,0.00,,---,0.00,VWS V14.01,2013-05-15 08:25:00,
2013-05-15 04:26:00,57.0,46.2,30.09,South,180,0.9,1.1,67,0.00,,---,0.00,VWS V14.01,2013-05-15 08:26:00,
2013-05-15 04:27:00,57.0,46.2,30.09,WSW,248,0.0,0.9,67,0.00,,---,0.00,VWS V14.01,2013-05-15 08:27:00,
2013-05-15 04:28:00,57.0,46.2,30.09,SSW,202,0.0,0.0,67,0.00,,---,0.00,VWS V14.01,2013-05-15 08:28:00,
2013-05-15 04:29:00,57.0,46.2,30.09,SE,135,0.9,0.9,67,0.00,,---,0.00,VWS V14.01,2013-05-15 08:29:00,
2013-05-15 04:30:00,57.0,46.2,30.09,ESE,112,0.0,0.9,67,0.00,,---,0.00,VWS V14.01,2013-05-15 08:30:00,
2013-05-15 04:31:00,56.8,46.0,30.09,SE,135,2.0,2.0,67,0.00,,---,0.00,VWS V14.01,2013-05-15 08:31:00,
2013-05-15 04:32:00,56.8,46.0,30.09,SE,135,1.1,2.0,67,0.00,,---,0.00,VWS V14.01,2013-05-15 08:32:00,
2013-05-15 04:33:00,56.8,46.0,30.09,SE,135,0.0,1.1,67,0.00,,---,0.00,VWS V14.01,2013-05-15 08:33:00,
2013-05-15 04:37:00,56.7,45.8,30.09,WSW,248,0.0,0.0,67,0.00,,---,0.00,VWS V14.01,2013-05-15 08:37:00,
2013-05-15 04:38:00,56.7,46.2,30.09,WSW,248,0.0,0.0,68,0.00,,---,0.00,VWS V14.01,2013-05-15 08:38:00,
2013-05-15 04:39:00,56.7,46.2,30.09,SE,135,0.0,0.0,68,0.00,,---,0.00,VWS V14.01,2013-05-15 08:39:00,
2013-05-15 04:40:00,56.7,45.8,30.09,SSE,158,0.0,0.0,67,0.00,,---,0.00,VWS V14.01,2013-05-15 08:40:00,
2013-05-15 04:41:00,56.7,45.8,30.09,WNW,292,0.0,0.0,67,0.00,,---,0.00,VWS V14.01,2013-05-15 08:41:00,
2013-05-15 04:42:00,56.5,46.1,30.09,South,180,0.0,0.0,68,0.00,,---,0.00,VWS V14.01,2013-05-15 08:42:00,
2013-05-15 04:43:00,56.5,46.1,30.09,South,180,0.0,0.0,68,0.00,,---,0.00,VWS V14.01,2013-05-15 08:43:00,
2013-05-15 04:44:00,56.3,45.9,30.09,WSW,248,0.0,0.0,68,0.00,,---,0.00,VWS V14.01,2013-05-15 08:44:00,
2013-05-15 04:45:00,56.3,46.3,30.09,WSW,248,0.0,0.0,69,0.00,,---,0.00,VWS V14.01,2013-05-15 08:45:00,
2013-05-15 04:46:00,56.3,45.9,30.09,South,180,0.0,0.0,68,0.00,,---,0.00,VWS V14.01,2013-05-15 08:46:00,
2013-05-15 04:47:00,56.3,45.9,30.09,South,180,0.0,0.0,68,0.00,,---,0.00,VWS V14.01,2013-05-15 08:47:00,
2013-05-15 04:48:00,56.3,45.9,30.09,ESE,112,1.6,1.6,68,0.00,,---,0.00,VWS V14.01,2013-05-15 08:48:00,
2013-05-15 04:49:00,56.3,46.3,30.09,SE,135,0.0,1.6,69,0.00,,---,0.00,VWS V14.01,2013-05-15 08:49:00,
2013-05-15 04:50:00,56.3,46.3,30.09,SE,135,0.0,0.0,69,0.00,,---,0.00,VWS V14.01,2013-05-15 08:50:00,
2013-05-15 04:51:00,56.1,46.1,30.09,SSE,158,0.0,0.0,69,0.00,,---,0.00,VWS V14.01,2013-05-15 08:51:00,
2013-05-15 04:52:00,56.1,46.1,30.09,South,180,0.0,0.0,69,0.00,,---,0.00,VWS V14.01,2013-05-15 08:52:00,
2013-05-15 04:53:00,56.1,46.1,30.09,South,180,0.0,0.0,69,0.00,,---,0.00,VWS V14.01,2013-05-15 08:53:00,
2013-05-15 04:54:00,56.1,46.1,30.09,WSW,248,0.0,0.0,69,0.00,,---,0.00,VWS V14.01,2013-05-15 08:54:00,
2013-05-15 04:55:00,56.1,46.5,30.09,SSW,202,1.3,1.3,70,0.00,,---,0.00,VWS V14.01,2013-05-15 08:55:00,
2013-05-15 04:56:00,56.1,46.5,30.09,SSE,158,1.6,1.6,70,0.00,,---,0.00,VWS V14.01,2013-05-15 08:56:00,
2013-05-15 04:57:00,56.1,46.5,30.09,West,270,0.9,1.6,70,0.00,,---,0.00,VWS V14.01,2013-05-15 08:57:00,
2013-05-15 04:58:00,56.1,46.5,30.09,South,180,0.0,0.9,70,0.00,,---,0.00,VWS V14.01,2013-05-15 08:58:00,
2013-05-15 04:59:00,56.1,46.5,30.09,South,180,1.1,1.1,70,0.00,,---,0.00,VWS V14.01,2013-05-15 08:59:00,
2013-05-15 05:00:00,56.1,46.9,30.09,South,180,1.1,1.1,71,0.00,,---,0.00,VWS V14.01,2013-05-15 09:00:00,
2013-05-15 05:01:00,56.1,46.9,30.09,WSW,248,1.3,1.3,71,0.00,,---,0.00,VWS V14.01,2013-05-15 09:01:00,
2013-05-15 05:02:00,56.1,46.9,30.09,South,180,0.0,1.3,71,0.00,,---,0.00,VWS V14.01,2013-05-15 09:02:00,
2013-05-15 05:03:00,56.1,46.9,30.09,South,180,0.0,0.0,71,0.00,,---,0.00,VWS V14.01,2013-05-15 09:03:00,
2013-05-15 05:04:00,55.9,46.7,30.09,South,180,0.0,0.0,71,0.00,,---,0.00,VWS V14.01,2013-05-15 09:04:00,
2013-05-15 05:05:00,55.9,46.7,30.09,South,180,0.9,0.9,71,0.00,,---,0.00,VWS V14.01,2013-05-15 09:05:00,
2013-05-15 05:06:00,55.9,46.7,30.09,South,180,0.0,0.9,71,0.00,,---,0.00,VWS V14.01,2013-05-15 09:06:00,
2013-05-15 05:07:00,55.9,46.7,30.09,South,180,0.0,0.0,71,0.00,,---,0.00,VWS V14.01,2013-05-15 09:07:00,
2013-05-15 05:08:00,55.9,46.7,30.09,SW,225,0.0,0.0,71,0.00,,---,0.00,VWS V14.01,2013-05-15 09:08:00,
2013-05-15 05:09:00,55.9,46.7,30.09,SSE,158,1.3,1.3,71,0.00,,---,0.00,VWS V14.01,2013-05-15 09:09:00,
2013-05-15 05:10:00,55.9,46.7,30.09,SSE,158,1.1,1.3,71,0.00,,---,0.00,VWS V14.01,2013-05-15 09:10:00,
2013-05-15 05:11:00,55.9,46.7,30.09,SSE,158,0.0,1.1,71,0.00,,---,0.00,VWS V14.01,2013-05-15 09:11:00,
2013-05-15 05:12:00,55.9,46.7,30.09,West,270,0.0,0.0,71,0.00,,---,0.00,VWS V14.01,2013-05-15 09:12:00,
2013-05-15 05:13:00,55.9,46.7,30.09,West,270,0.0,0.0,71,0.00,,---,0.00,VWS V14.01,2013-05-15 09:13:00,
2013-05-15 05:14:00,55.9,46.7,30.09,SSW,202,0.0,0.0,71,0.00,,---,0.00,VWS V14.01,2013-05-15 09:14:00,
2013-05-15 05:15:00,55.9,46.7,30.09,West,270,0.0,0.0,71,0.00,,---,0.00,VWS V14.01,2013-05-15 09:15:00,
2013-05-15 05:16:00,55.9,46.7,30.09,WNW,292,1.3,1.3,71,0.00,,---,0.00,VWS V14.01,2013-05-15 09:16:00,
2013-05-15 05:17:00,55.9,46.7,30.09,SSE,158,1.1,1.3,71,0.00,,---,0.00,VWS V14.01,2013-05-15 09:17:00,
2013-05-15 05:36:00,55.9,47.1,30.06,SSW,202,0.0,1.1,72,0.00,,---,0.00,VWS V14.01,2013-05-15 09:36:00,
2013-05-15 05:37:00,55.9,47.1,30.06,WSW,248,0.0,0.0,72,0.00,,---,0.00,VWS V14.01,2013-05-15 09:37:00,
2013-05-15 05:38:00,55.9,47.1,30.06,WSW,248,0.0,0.0,72,0.00,,---,0.00,VWS V14.01,2013-05-15 09:38:00,
2013-05-15 05:39:00,55.9,47.1,30.06,South,180,1.1,1.1,72,0.00,,---,0.00,VWS V14.01,2013-05-15 09:39:00,
2013-05-15 05:40:00,55.9,47.1,30.06,SSW,202,0.0,1.1,72,0.00,,---,0.00,VWS V14.01,2013-05-15 09:40:00,
2013-05-15 05:41:00,55.9,47.1,30.09,South,180,0.0,0.0,72,0.00,,---,0.00,VWS V14.01,2013-05-15 09:41:00,
2013-05-15 05:42:00,55.9,47.1,30.09,South,180,0.0,0.0,72,0.00,,---,0.00,VWS V14.01,2013-05-15 09:42:00,
2013-05-15 05:43:00,55.9,47.4,30.09,South,180,0.0,0.0,73,0.00,,---,0.00,VWS V14.01,2013-05-15 09:43:00,
2013-05-15 05:44:00,55.9,47.4,30.09,South,180,0.0,0.0,73,0.00,,---,0.00,VWS V14.01,2013-05-15 09:44:00,
2013-05-15 05:45:00,55.9,47.4,30.09,SSE,158,0.0,0.0,73,0.00,,---,0.00,VWS V14.01,2013-05-15 09:45:00,
2013-05-15 05:46:00,56.1,47.6,30.09,WNW,292,0.0,0.0,73,0.00,,---,0.00,VWS V14.01,2013-05-15 09:46:00,
2013-05-15 05:47:00,56.1,47.6,30.09,WNW,292,0.0,0.0,73,0.00,,---,0.00,VWS V14.01,2013-05-15 09:47:00,
2013-05-15 05:48:00,56.1,47.6,30.09,WSW,248,0.0,0.0,73,0.00,,---,0.00,VWS V14.01,2013-05-15 09:48:00,
2013-05-15 05:49:00,56.1,47.6,30.09,SSW,202,0.0,0.0,73,0.00,,---,0.00,VWS V14.01,2013-05-15 09:49:00,
2013-05-15 05:50:00,56.1,47.6,30.09,SSE,158,1.1,1.1,73,0.00,,---,0.00,VWS V14.01,2013-05-15 09:50:00,
2013-05-15 05:51:00,56.1,47.6,30.09,SSE,158,0.0,1.1,73,0.00,,---,0.00,VWS V14.01,2013-05-15 09:51:00,
2013-05-15 05:52:00,56.1,47.6,30.09,SSE,158,0.0,0.0,73,0.00,,---,0.00,VWS V14.01,2013-05-15 09:52:00,
2013-05-15 05:53:00,56.1,47.6,30.09,West,270,2.2,2.2,73,0.00,,---,0.00,VWS V14.01,2013-05-15 09:53:00,
2013-05-15 05:54:00,56.1,47.6,30.09,SSE,158,0.0,2.2,73,0.00,,---,0.00,VWS V14.01,2013-05-15 09:54:00,
2013-05-15 05:55:00,56.1,48.0,30.09,ENE,68,0.9,0.9,74,0.00,,---,0.00,VWS V14.01,2013-05-15 09:55:00,
2013-05-15 05:56:00,56.3,48.1,30.06,ENE,68,0.0,0.9,74,0.00,,---,0.00,VWS V14.01,2013-05-15 09:56:00,
2013-05-15 05:57:00,56.3,48.1,30.06,East,90,0.0,0.0,74,0.00,,---,0.00,VWS V14.01,2013-05-15 09:57:00,
2013-05-15 05:58:00,56.3,48.1,30.06,East,90,0.0,0.0,74,0.00,,---,0.00,VWS V14.01,2013-05-15 09:58:00,
2013-05-15 05:59:00,56.3,48.1,30.06,East,90,0.0,0.0,74,0.00,,---,0.00,VWS V14.01,2013-05-15 09:59:00,
2013-05-15 06:00:00,56.3,48.1,30.06,East,90,0.0,0.0,74,0.00,,---,0.00,VWS V14.01,2013-05-15 10:00:00,
2013-05-15 06:01:00,56.3,48.1,30.06,East,90,0.0,0.0,74,0.00,,---,0.00,VWS V14.01,2013-05-15 10:01:00,
2013-05-15 06:02:00,56.3,48.1,30.06,East,90,0.0,0.0,74,0.00,,---,0.00,VWS V14.01,2013-05-15 10:02:00,
2013-05-15 06:03:00,56.3,48.1,30.06,East,90,0.0,0.0,74,0.00,,---,0.00,VWS V14.01,2013-05-15 10:03:00,
2013-05-15 06:04:00,56.3,48.1,30.06,SSE,158,1.3,1.3,74,0.00,,---,0.00,VWS V14.01,2013-05-15 10:04:00,
2013-05-15 06:05:00,56.3,48.1,30.06,SSE,158,0.0,1.3,74,0.00,,---,0.00,VWS V14.01,2013-05-15 10:05:00,
2013-05-15 06:06:00,56.3,48.1,30.06,SSE,158,0.0,0.0,74,0.00,,---,0.00,VWS V14.01,2013-05-15 10:06:00,
2013-05-15 06:07:00,56.3,48.1,30.06,SSE,158,0.0,0.0,74,0.00,,---,0.00,VWS V14.01,2013-05-15 10:07:00,
2013-05-15 06:08:00,56.3,48.1,30.06,South,180,0.0,0.0,74,0.00,,---,0.00,VWS V14.01,2013-05-15 10:08:00,
2013-05-15 06:09:00,56.3,48.1,30.06,WNW,292,0.0,0.0,74,0.00,,---,0.00,VWS V14.01,2013-05-15 10:09:00,
2013-05-15 06:10:00,56.3,48.1,30.06,SSE,158,0.0,0.0,74,0.00,,---,0.00,VWS V14.01,2013-05-15 10:10:00,
2013-05-15 06:11:00,56.3,48.1,30.06,SSE,158,0.0,0.0,74,0.00,,---,0.00,VWS V14.01,2013-05-15 10:11:00,
2013-05-15 06:12:00,56.3,48.1,30.06,SSE,158,0.0,0.0,74,0.00,,---,0.00,VWS V14.01,2013-05-15 10:12:00,
2013-05-15 06:13:00,56.5,48.3,30.06,ENE,68,0.0,0.0,74,0.00,,---,0.00,VWS V14.01,2013-05-15 10:13:00,
2013-05-15 06:14:00,56.5,48.3,30.06,ENE,68,0.0,0.0,74,0.00,,---,0.00,VWS V14.01,2013-05-15 10:14:00,
2013-05-15 06:15:00,56.5,48.3,30.06,South,180,0.9,0.9,74,0.00,,---,0.00,VWS V14.01,2013-05-15 10:15:00,
2013-05-15 06:16:00,56.5,48.3,30.06,SSE,158,0.9,0.9,74,0.00,,---,0.00,VWS V14.01,2013-05-15 10:16:00,
2013-05-15 06:18:00,56.5,48.7,30.06,SSW,202,0.0,0.9,75,0.00,,---,0.00,VWS V14.01,2013-05-15 10:18:00,
2013-05-15 06:19:00,56.5,48.7,30.06,South,180,0.0,0.0,75,0.00,,---,0.00,VWS V14.01,2013-05-15 10:19:00,
2013-05-15 06:20:00,56.5,48.3,30.06,South,180,0.0,0.0,74,0.00,,---,0.00,VWS V14.01,2013-05-15 10:20:00,
2013-05-15 06:21:00,56.5,48.3,30.06,South,180,0.0,0.0,74,0.00,,---,0.00,VWS V14.01,2013-05-15 10:21:00,
2013-05-15 06:22:00,56.5,48.3,30.06,South,180,0.0,0.0,74,0.00,,---,0.00,VWS V14.01,2013-05-15 10:22:00,
2013-05-15 06:23:00,56.5,48.7,30.06,South,180,0.0,0.0,75,0.00,,---,0.00,VWS V14.01,2013-05-15 10:23:00,
2013-05-15 06:24:00,56.5,48.7,30.06,South,180,0.0,0.0,75,0.00,,---,0.00,VWS V14.01,2013-05-15 10:24:00,
2013-05-15 06:25:00,56.5,48.7,30.06,WSW,248,0.0,0.0,75,0.00,,---,0.00,VWS V14.01,2013-05-15 10:25:00,
2013-05-15 06:26:00,56.5,48.7,30.06,WNW,292,0.0,0.0,75,0.00,,---,0.00,VWS V14.01,2013-05-15 10:26:00,
2013-05-15 06:27:00,56.5,48.7,30.06,South,180,1.6,1.6,75,0.00,,---,0.00,VWS V14.01,2013-05-15 10:27:00,
2013-05-15 06:28:00,56.5,48.7,30.06,South,180,0.0,1.6,75,0.00,,---,0.00,VWS V14.01,2013-05-15 10:28:00,
2013-05-15 06:29:00,56.7,48.8,30.06,WSW,248,0.0,0.0,75,0.00,,---,0.00,VWS V14.01,2013-05-15 10:29:00,
2013-05-15 06:30:00,56.7,48.8,30.06,SW,225,0.0,0.0,75,0.00,,---,0.00,VWS V14.01,2013-05-15 10:30:00,
2013-05-15 06:31:00,56.7,48.8,30.06,SSE,158,0.0,0.0,75,0.00,,---,0.00,VWS V14.01,2013-05-15 10:31:00,
2013-05-15 06:32:00,56.7,48.8,30.06,WNW,292,1.1,1.1,75,0.00,,---,0.00,VWS V14.01,2013-05-15 10:32:00,
2013-05-15 06:33:00,56.7,48.8,30.06,WSW,248,1.1,1.1,75,0.00,,---,0.00,VWS V14.01,2013-05-15 10:33:00,
2013-05-15 06:34:00,56.8,49.4,30.06,SE,135,2.2,2.2,76,0.00,,---,0.00,VWS V14.01,2013-05-15 10:34:00,
2013-05-15 06:35:00,56.8,49.4,30.06,SE,135,0.9,2.2,76,0.00,,---,0.00,VWS V14.01,2013-05-15 10:35:00,
2013-05-15 06:36:00,56.8,49.4,30.06,SE,135,0.9,0.9,76,0.00,,---,0.00,VWS V14.01,2013-05-15 10:36:00,
2013-05-15 06:37:00,56.8,49.4,30.06,ESE,112,0.9,0.9,76,0.00,,---,0.00,VWS V14.01,2013-05-15 10:37:00,
2013-05-15 06:38:00,56.8,49.4,30.06,SE,135,0.0,0.9,76,0.00,,---,0.00,VWS V14.01,2013-05-15 10:38:00,
2013-05-15 06:39:00,57.0,49.5,30.06,SSE,158,0.0,0.0,76,0.00,,---,0.00,VWS V14.01,2013-05-15 10:39:00,
2013-05-15 06:40:00,57.0,49.5,30.06,SSE,158,0.0,0.0,76,0.00,,---,0.00,VWS V14.01,2013-05-15 10:40:00,
2013-05-15 06:41:00,57.0,49.5,30.06,SSE,158,0.0,0.0,76,0.00,,---,0.00,VWS V14.01,2013-05-15 10:41:00,
2013-05-15 06:42:00,57.0,49.5,30.06,SSE,158,0.0,0.0,76,0.00,,---,0.00,VWS V14.01,2013-05-15 10:42:00,
2013-05-15 06:43:00,57.2,49.7,30.06,SE,135,0.0,0.0,76,0.00,,---,0.00,VWS V14.01,2013-05-15 10:43:00,
2013-05-15 06:44:00,57.2,49.7,30.06,SE,135,0.0,0.0,76,0.00,,---,0.00,VWS V14.01,2013-05-15 10:44:00,
2013-05-15 06:45:00,57.2,49.7,30.06,SE,135,0.0,0.0,76,0.00,,---,0.00,VWS V14.01,2013-05-15 10:45:00,
2013-05-15 06:46:00,57.2,49.7,30.06,SE,135,0.0,0.0,76,0.00,,---,0.00,VWS V14.01,2013-05-15 10:46:00,
2013-05-15 06:47:00,57.2,49.7,30.06,West,270,0.0,0.0,76,0.00,,---,0.00,VWS V14.01,2013-05-15 10:47:00,
2013-05-15 06:48:00,57.4,49.9,30.06,WSW,248,0.0,0.0,76,0.00,,---,0.00,VWS V14.01,2013-05-15 10:48:00,
2013-05-15 06:49:00,57.4,49.9,30.06,WSW,248,0.0,0.0,76,0.00,,---,0.00,VWS V14.01,2013-05-15 10:49:00,
2013-05-15 06:50:00,57.4,49.9,30.06,WSW,248,0.0,0.0,76,0.00,,---,0.00,VWS V14.01,2013-05-15 10:50:00,
2013-05-15 06:51:00,57.4,49.9,30.06,SSE,158,0.0,0.0,76,0.00,,---,0.00,VWS V14.01,2013-05-15 10:51:00,
2013-05-15 06:52:00,57.6,50.1,30.06,SSE,158,0.0,0.0,76,0.00,,---,0.00,VWS V14.01,2013-05-15 10:52:00,
2013-05-15 06:53:00,57.6,50.1,30.06,SSE,158,0.0,0.0,76,0.00,,---,0.00,VWS V14.01,2013-05-15 10:53:00,
2013-05-15 06:54:00,57.6,50.1,30.06,West,270,1.3,1.3,76,0.00,,---,0.00,VWS V14.01,2013-05-15 10:54:00,
2013-05-15 06:55:00,57.6,50.1,30.06,SSE,158,1.1,1.3,76,0.00,,---,0.00,VWS V14.01,2013-05-15 10:55:00,
2013-05-15 06:56:00,57.6,50.1,30.06,SW,225,0.0,1.1,76,0.00,,---,0.00,VWS V14.01,2013-05-15 10:56:00,
2013-05-15 06:57:00,57.6,50.1,30.06,South,180,0.0,0.0,76,0.00,,---,0.00,VWS V14.01,2013-05-15 10:57:00,
2013-05-15 06:58:00,57.6,49.7,30.06,South,180,0.0,0.0,75,0.00,,---,0.00,VWS V14.01,2013-05-15 10:58:00,
2013-05-15 06:59:00,57.6,49.7,30.06,South,180,0.0,0.0,75,0.00,,---,0.00,VWS V14.01,2013-05-15 10:59:00,
2013-05-15 07:00:00,57.6,49.7,30.06,South,180,0.0,0.0,75,0.00,,---,0.00,VWS V14.01,2013-05-15 11:00:00,
2013-05-15 07:01:00,57.6,49.7,30.06,South,180,0.0,0.0,75,0.00,,---,0.00,VWS V14.01,2013-05-15 11:01:00,
2013-05-15 07:02:00,57.6,49.7,30.06,SSW,202,0.0,0.0,75,0.00,,---,0.00,VWS V14.01,2013-05-15 11:02:00,
2013-05-15 07:03:00,57.6,49.7,30.06,SSW,202,0.0,0.0,75,0.00,,---,0.00,VWS V14.01,2013-05-15 11:03:00,
2013-05-15 07:04:00,57.6,49.7,30.06,SSW,202,0.0,0.0,75,0.00,,---,0.00,VWS V14.01,2013-05-15 11:04:00,
2013-05-15 07:05:00,57.7,49.9,30.06,West,270,0.0,0.0,75,0.00,,---,0.00,VWS V14.01,2013-05-15 11:05:00,
2013-05-15 07:06:00,57.7,49.9,30.06,SSE,158,0.0,0.0,75,0.00,,---,0.00,VWS V14.01,2013-05-15 11:06:00,
2013-05-15 07:07:00,57.7,49.9,30.06,South,180,0.0,0.0,75,0.00,,---,0.00,VWS V14.01,2013-05-15 11:07:00,
2013-05-15 07:08:00,57.7,49.9,30.06,South,180,0.0,0.0,75,0.00,,---,0.00,VWS V14.01,2013-05-15 11:08:00,
2013-05-15 07:09:00,57.7,49.9,30.06,South,180,1.1,1.1,75,0.00,,---,0.00,VWS V14.01,2013-05-15 11:09:00,
2013-05-15 07:10:00,57.7,49.9,30.06,WSW,248,0.0,1.1,75,0.00,,---,0.00,VWS V14.01,2013-05-15 11:10:00,
2013-05-15 07:11:00,57.7,49.9,30.06,WSW,248,0.0,0.0,75,0.00,,---,0.00,VWS V14.01,2013-05-15 11:11:00,
2013-05-15 07:12:00,57.7,49.9,30.06,SSW,202,0.0,0.0,75,0.00,,---,0.00,VWS V14.01,2013-05-15 11:12:00,
2013-05-15 07:13:00,57.9,50.0,30.06,SSW,202,0.0,0.0,75,0.00,,---,0.00,VWS V14.01,2013-05-15 11:13:00,
2013-05-15 07:14:00,57.9,50.0,30.06,SSW,202,0.0,0.0,75,0.00,,---,0.00,VWS V14.01,2013-05-15 11:14:00,
2013-05-15 07:15:00,57.9,50.0,30.06,SSE,158,0.0,0.0,75,0.00,,---,0.00,VWS V14.01,2013-05-15 11:15:00,
2013-05-15 07:16:00,57.9,50.0,30.06,SSE,158,0.0,0.0,75,0.00,,---,0.00,VWS V14.01,2013-05-15 11:16:00,
2013-05-15 07:17:00,57.9,50.0,30.06,SSE,158,0.0,0.0,75,0.00,,---,0.00,VWS V14.01,2013-05-15 11:17:00,
2013-05-15 07:18:00,58.1,50.2,30.06,SSE,158,0.0,0.0,75,0.00,,---,0.00,VWS V14.01,2013-05-15 11:18:00,
2013-05-15 07:19:00,58.1,50.2,30.06,SSW,202,0.0,0.0,75,0.00,,---,0.00,VWS V14.01,2013-05-15 11:19:00,
2013-05-15 07:20:00,58.3,50.4,30.06,SSE,158,0.0,0.0,75,0.00,,---,0.00,VWS V14.01,2013-05-15 11:20:00,
2013-05-15 07:21:00,58.5,50.6,30.06,SSE,158,0.0,0.0,75,0.00,,---,0.00,VWS V14.01,2013-05-15 11:21:00,
2013-05-15 07:22:00,58.5,50.6,30.06,SSE,158,0.0,0.0,75,0.00,,---,0.00,VWS V14.01,2013-05-15 11:22:00,
2013-05-15 07:23:00,58.5,50.6,30.06,SSE,158,0.0,0.0,75,0.00,,---,0.00,VWS V14.01,2013-05-15 11:23:00,
2013-05-15 07:24:00,58.6,50.8,30.06,SSE,158,0.0,0.0,75,0.00,,---,0.00,VWS V14.01,2013-05-15 11:24:00,
2013-05-15 07:25:00,58.6,50.8,30.06,SSE,158,0.0,0.0,75,0.00,,---,0.00,VWS V14.01,2013-05-15 11:25:00,
2013-05-15 07:26:00,58.6,50.8,30.03,SSE,158,0.0,0.0,75,0.00,,---,0.00,VWS V14.01,2013-05-15 11:26:00,
2013-05-15 07:27:00,58.8,50.9,30.03,SSE,158,0.0,0.0,75,0.00,,---,0.00,VWS V14.01,2013-05-15 11:27:00,
2013-05-15 07:28:00,58.8,50.9,30.03,SSE,158,0.0,0.0,75,0.00,,---,0.00,VWS V14.01,2013-05-15 11:28:00,
2013-05-15 07:29:00,58.8,50.6,30.03,SSE,158,0.0,0.0,74,0.00,,---,0.00,VWS V14.01,2013-05-15 11:29:00,
2013-05-15 07:30:00,58.8,50.6,30.03,WNW,292,1.6,1.6,74,0.00,,---,0.00,VWS V14.01,2013-05-15 11:30:00,
2013-05-15 07:31:00,58.8,50.6,30.03,SSE,158,0.9,1.6,74,0.00,,---,0.00,VWS V14.01,2013-05-15 11:31:00,
2013-05-15 07:34:00,58.8,50.6,30.03,SSE,158,0.0,0.9,74,0.00,,---,0.00,VWS V14.01,2013-05-15 11:34:00,
2013-05-15 07:35:00,59.0,50.7,30.03,SSE,158,0.0,0.0,74,0.00,,---,0.00,VWS V14.01,2013-05-15 11:35:00,
2013-05-15 07:36:00,59.2,50.9,30.03,WSW,248,0.0,0.0,74,0.00,,---,0.00,VWS V14.01,2013-05-15 11:36:00,
2013-05-15 07:37:00,59.2,50.9,30.03,SSW,202,0.0,0.0,74,0.00,,---,0.00,VWS V14.01,2013-05-15 11:37:00,
2013-05-15 07:38:00,59.2,50.9,30.03,SSW,202,0.0,0.0,74,0.00,,---,0.00,VWS V14.01,2013-05-15 11:38:00,
2013-05-15 07:39:00,59.2,50.9,30.03,SSW,202,0.0,0.0,74,0.00,,---,0.00,VWS V14.01,2013-05-15 11:39:00,
2013-05-15 07:40:00,59.4,51.1,30.03,South,180,0.0,0.0,74,0.00,,---,0.00,VWS V14.01,2013-05-15 11:40:00,
2013-05-15 07:41:00,59.7,51.4,30.03,South,180,0.0,0.0,74,0.00,,---,0.00,VWS V14.01,2013-05-15 11:41:00,
2013-05-15 07:42:00,60.3,52.3,30.03,South,180,0.0,0.0,75,0.00,,---,0.00,VWS V14.01,2013-05-15 11:42:00,
2013-05-15 07:43:00,60.6,52.7,30.03,South,180,0.0,0.0,75,0.00,,---,0.00,VWS V14.01,2013-05-15 11:43:00,
2013-05-15 07:44:00,61.7,53.7,30.03,South,180,0.0,0.0,75,0.00,,---,0.00,VWS V14.01,2013-05-15 11:44:00,
2013-05-15 07:45:00,62.2,54.6,30.03,South,180,0.0,0.0,76,0.00,,---,0.00,VWS V14.01,2013-05-15 11:45:00,
2013-05-15 07:46:00,62.6,54.6,30.03,South,180,0.0,0.0,75,0.00,,---,0.00,VWS V14.01,2013-05-15 11:46:00,
2013-05-15 07:47:00,62.8,54.8,30.03,South,180,0.0,0.0,75,0.00,,---,0.00,VWS V14.01,2013-05-15 11:47:00,
2013-05-15 07:48:00,63.1,55.1,30.03,South,180,0.0,0.0,75,0.00,,---,0.00,VWS V14.01,2013-05-15 11:48:00,
2013-05-15 07:49:00,63.5,55.1,30.03,South,180,1.3,1.3,74,0.00,,---,0.00,VWS V14.01,2013-05-15 11:49:00,
2013-05-15 07:50:00,63.9,55.4,30.03,South,180,1.1,1.3,74,0.00,,---,0.00,VWS V14.01,2013-05-15 11:50:00,
2013-05-15 07:51:00,64.6,55.7,30.03,WNW,292,0.9,1.1,73,0.00,,---,0.00,VWS V14.01,2013-05-15 11:51:00,
2013-05-15 07:52:00,65.1,56.3,30.03,SSE,158,0.0,0.9,73,0.00,,---,0.00,VWS V14.01,2013-05-15 11:52:00,
2013-05-15 07:53:00,65.5,56.2,30.03,ENE,68,0.0,0.0,72,0.00,,---,0.00,VWS V14.01,2013-05-15 11:53:00,
2013-05-15 07:54:00,66.0,56.4,30.03,SSE,158,0.9,0.9,71,0.00,,---,0.00,VWS V14.01,2013-05-15 11:54:00,
2013-05-15 07:55:00,66.2,56.1,30.03,SSE,158,1.3,1.3,70,0.00,,---,0.00,VWS V14.01,2013-05-15 11:55:00,
2013-05-15 07:56:00,66.2,55.7,30.03,SSE,158,0.0,1.3,69,0.00,,---,0.00,VWS V14.01,2013-05-15 11:56:00,
2013-05-15 07:57:00,66.4,55.5,30.03,SSE,158,2.5,2.5,68,0.00,,---,0.00,VWS V14.01,2013-05-15 11:57:00,
2013-05-15 07:58:00,66.4,54.7,30.03,West,270,1.3,2.5,66,0.00,,---,0.00,VWS V14.01,2013-05-15 11:58:00,
2013-05-15 07:59:00,66.6,54.4,30.03,West,270,0.0,1.3,65,0.00,,---,0.00,VWS V14.01,2013-05-15 11:59:00,
2013-05-15 08:00:00,67.5,54.4,30.03,West,270,0.0,0.0,63,0.00,,---,0.00,VWS V14.01,2013-05-15 12:00:00,
2013-05-15 08:01:00,67.8,54.8,30.03,ESE,112,0.0,0.0,63,0.00,,---,0.00,VWS V14.01,2013-05-15 12:01:00,
2013-05-15 08:02:00,68.2,54.7,30.03,SSE,158,1.6,1.6,62,0.00,,---,0.00,VWS V14.01,2013-05-15 12:02:00,
2013-05-15 08:03:00,68.0,53.6,30.03,SE,135,2.7,2.7,60,0.00,,---,0.00,VWS V14.01,2013-05-15 12:03:00,
2013-05-15 08:04:00,67.8,52.0,30.03,West,270,0.0,2.7,57,0.00,,---,0.00,VWS V14.01,2013-05-15 12:04:00,
2013-05-15 08:05:00,68.0,51.7,30.03,SE,135,1.3,1.3,56,0.00,,---,0.00,VWS V14.01,2013-05-15 12:05:00,
2013-05-15 08:06:00,68.2,51.4,30.03,ESE,112,0.0,1.3,55,0.00,,---,0.00,VWS V14.01,2013-05-15 12:06:00,
2013-05-15 08:07:00,68.7,51.4,30.03,SSE,158,1.6,1.6,54,0.00,,---,0.00,VWS V14.01,2013-05-15 12:07:00,
2013-05-15 08:08:00,68.9,51.1,30.03,SSE,158,0.9,1.6,53,0.00,,---,0.00,VWS V14.01,2013-05-15 12:08:00,
2013-05-15 08:09:00,69.1,51.2,30.03,South,180,0.0,0.9,53,0.00,,---,0.00,VWS V14.01,2013-05-15 12:09:00,
2013-05-15 08:10:00,69.1,51.2,30.03,NNW,338,0.0,0.0,53,0.00,,---,0.00,VWS V14.01,2013-05-15 12:10:00,
2013-05-15 08:11:00,69.6,51.2,30.00,SSE,158,2.7,2.7,52,0.00,,---,0.00,VWS V14.01,2013-05-15 12:11:00,
2013-05-15 08:12:00,69.6,49.1,30.00,SSE,158,1.3,2.7,48,0.00,,---,0.00,VWS V14.01,2013-05-15 12:12:00,
2013-05-15 08:13:00,69.4,48.9,30.00,NW,315,0.0,1.3,48,0.00,,---,0.00,VWS V14.01,2013-05-15 12:13:00,
2013-05-15 08:20:00,70.0,47.1,30.00,SSE,158,1.1,1.1,44,0.00,,---,0.00,VWS V14.01,2013-05-15 12:20:00,
2013-05-15 08:21:00,70.3,47.4,30.00,SSE,158,3.1,3.1,44,0.00,,---,0.00,VWS V14.01,2013-05-15 12:21:00,
2013-05-15 08:22:00,70.2,46.0,30.00,East,90,0.0,3.1,42,0.00,,---,0.00,VWS V14.01,2013-05-15 12:22:00,
2013-05-15 08:23:00,70.2,46.6,30.00,SSE,158,2.9,2.9,43,0.00,,---,0.00,VWS V14.01,2013-05-15 12:23:00,
2013-05-15 08:24:00,69.8,45.7,30.00,SSE,158,2.0,2.9,42,0.00,,---,0.00,VWS V14.01,2013-05-15 12:24:00,
2013-05-15 08:25:00,69.8,45.7,30.00,WNW,292,2.5,2.5,42,0.00,,---,0.00,VWS V14.01,2013-05-15 12:25:00,
2013-05-15 08:26:00,70.2,46.0,30.03,ENE,68,3.1,3.1,42,0.00,,---,0.00,VWS V14.01,2013-05-15 12:26:00,
2013-05-15 08:27:00,70.5,46.3,30.03,NE,45,2.0,3.1,42,0.00,,---,0.00,VWS V14.01,2013-05-15 12:27:00,
2013-05-15 08:28:00,70.9,46.0,30.03,SSE,158,1.3,2.0,41,0.00,,---,0.00,VWS V14.01,2013-05-15 12:28:00,
2013-05-15 08:29:00,70.9,46.0,30.03,WSW,248,0.9,1.3,41,0.00,,---,0.00,VWS V14.01,2013-05-15 12:29:00,
2013-05-15 08:30:00,70.7,45.2,30.03,SSE,158,1.6,1.6,40,0.00,,---,0.00,VWS V14.01,2013-05-15 12:30:00,
2013-05-15 08:31:00,70.9,46.0,30.03,NW,315,1.6,1.6,41,0.00,,---,0.00,VWS V14.01,2013-05-15 12:31:00,
2013-05-15 08:32:00,71.2,45.7,30.03,NNW,338,2.2,2.2,40,0.00,,---,0.00,VWS V14.01,2013-05-15 12:32:00,
2013-05-15 08:33:00,71.6,44.7,30.03,NE,45,2.5,2.5,38,0.00,,---,0.00,VWS V14.01,2013-05-15 12:33:00,
2013-05-15 08:34:00,71.2,44.4,30.03,ESE,112,2.0,2.5,38,0.00,,---,0.00,VWS V14.01,2013-05-15 12:34:00,
2013-05-15 08:35:00,70.5,43.0,30.03,ENE,68,1.6,2.0,37,0.00,,---,0.00,VWS V14.01,2013-05-15 12:35:00,
2013-05-15 08:36:00,70.2,43.4,30.03,South,180,0.0,1.6,38,0.00,,---,0.00,VWS V14.01,2013-05-15 12:36:00,
2013-05-15 08:37:00,69.8,43.1,30.03,SSE,158,1.1,1.1,38,0.00,,---,0.00,VWS V14.01,2013-05-15 12:37:00,
2013-05-15 08:38:00,69.4,42.8,30.03,ESE,112,0.9,1.1,38,0.00,,---,0.00,VWS V14.01,2013-05-15 12:38:00,
2013-05-15 08:39:00,69.4,42.8,30.03,ENE,68,0.0,0.9,38,0.00,,---,0.00,VWS V14.01,2013-05-15 12:39:00,
2013-05-15 08:40:00,69.6,43.6,30.03,WSW,248,0.9,0.9,39,0.00,,---,0.00,VWS V14.01,2013-05-15 12:40:00,
2013-05-15 08:41:00,69.6,43.6,30.00,WSW,248,0.0,0.9,39,0.00,,---,0.00,VWS V14.01,2013-05-15 12:41:00,
2013-05-15 08:42:00,69.6,43.6,30.00,SSE,158,0.0,0.0,39,0.00,,---,0.00,VWS V14.01,2013-05-15 12:42:00,
2013-05-15 08:43:00,69.3,42.6,30.00,SE,135,0.0,0.0,38,0.00,,---,0.00,VWS V14.01,2013-05-15 12:43:00,
2013-05-15 08:44:00,68.4,41.8,30.00,WNW,292,0.9,0.9,38,0.00,,---,0.00,VWS V14.01,2013-05-15 12:44:00,
2013-05-15 08:45:00,68.2,41.6,30.00,ENE,68,0.0,0.9,38,0.00,,---,0.00,VWS V14.01,2013-05-15 12:45:00,
2013-05-15 08:46:00,68.2,41.6,30.00,NE,45,3.8,3.8,38,0.00,,---,0.00,VWS V14.01,2013-05-15 12:46:00,
2013-05-15 08:47:00,68.0,41.5,30.00,NE,45,2.9,3.8,38,0.00,,---,0.00,VWS V14.01,2013-05-15 12:47:00,
2013-05-15 08:48:00,68.0,41.5,30.00,NE,45,2.7,2.9,38,0.00,,---,0.00,VWS V14.01,2013-05-15 12:48:00,
2013-05-15 08:49:00,67.5,41.0,30.00,ENE,68,0.9,2.7,38,0.00,,---,0.00,VWS V14.01,2013-05-15 12:49:00,
2013-05-15 08:50:00,67.5,41.0,30.00,ENE,68,2.5,2.5,38,0.00,,---,0.00,VWS V14.01,2013-05-15 12:50:00,
2013-05-15 08:51:00,67.5,41.0,30.00,NE,45,2.7,2.7,38,0.00,,---,0.00,VWS V14.01,2013-05-15 12:51:00,
2013-05-15 08:52:00,67.3,40.8,30.00,East,90,2.7,2.7,38,0.00,,---,0.00,VWS V14.01,2013-05-15 12:52:00,
2013-05-15 08:53:00,67.1,41.3,30.00,ENE,68,0.0,2.7,39,0.00,,---,0.00,VWS V14.01,2013-05-15 12:53:00,
2013-05-15 08:54:00,67.1,41.3,30.00,SSW,202,0.0,0.0,39,0.00,,---,0.00,VWS V14.01,2013-05-15 12:54:00,
2013-05-15 08:55:00,67.1,42.0,30.00,SSE,158,0.0,0.0,40,0.00,,---,0.00,VWS V14.01,2013-05-15 12:55:00,
2013-05-15 08:56:00,66.9,41.8,30.03,SSE,158,0.0,0.0,40,0.00,,---,0.00,VWS V14.01,2013-05-15 12:56:00,
2013-05-15 08:57:00,66.9,41.8,30.03,WNW,292,0.0,0.0,40,0.00,,---,0.00,VWS V14.01,2013-05-15 12:57:00,
2013-05-15 08:58:00,66.9,41.8,30.03,West,270,0.0,0.0,40,0.00,,---,0.00,VWS V14.01,2013-05-15 12:58:00,
2013-05-15 09:00:00,66.4,42.0,30.03,SSE,158,0.0,0.0,41,0.00,,---,0.00,VWS V14.01,2013-05-15 13:00:00,
2013-05-15 09:01:00,66.2,41.8,30.03,SSE,158,0.0,0.0,41,0.00,,---,0.00,VWS V14.01,2013-05-15 13:01:00,
2013-05-15 09:02:00,65.8,41.5,30.03,SSE,158,0.0,0.0,41,0.00,,---,0.00,VWS V14.01,2013-05-15 13:02:00,
2013-05-15 09:03:00,65.8,41.5,30.03,SSE,158,0.0,0.0,41,0.00,,---,0.00,VWS V14.01,2013-05-15 13:03:00,
2013-05-15 09:04:00,65.7,42.0,30.03,WSW,248,0.0,0.0,42,0.00,,---,0.00,VWS V14.01,2013-05-15 13:04:00,
2013-05-15 09:05:00,65.7,42.0,30.03,ENE,68,0.0,0.0,42,0.00,,---,0.00,VWS V14.01,2013-05-15 13:05:00,
2013-05-15 09:06:00,65.7,42.0,30.03,ENE,68,0.0,0.0,42,0.00,,---,0.00,VWS V14.01,2013-05-15 13:06:00,
2013-05-15 09:07:00,65.5,42.4,30.03,WNW,292,1.6,1.6,43,0.00,,---,0.00,VWS V14.01,2013-05-15 13:07:00,
2013-05-15 09:08:00,65.1,42.1,30.03,WNW,292,0.0,1.6,43,0.00,,---,0.00,VWS V14.01,2013-05-15 13:08:00,
2013-05-15 09:09:00,65.1,42.1,30.03,WNW,292,1.6,1.6,43,0.00,,---,0.00,VWS V14.01,2013-05-15 13:09:00,
2013-05-15 09:10:00,65.1,42.1,30.03,NW,315,0.0,1.6,43,0.00,,---,0.00,VWS V14.01,2013-05-15 13:10:00,
2013-05-15 09:11:00,65.1,42.1,30.03,NNW,338,1.1,1.1,43,0.00,,---,0.00,VWS V14.01,2013-05-15 13:11:00,
2013-05-15 09:12:00,65.1,42.1,30.03,NNW,338,2.5,2.5,43,0.00,,---,0.00,VWS V14.01,2013-05-15 13:12:00,
2013-05-15 09:13:00,65.1,41.5,30.03,WSW,248,1.3,2.5,42,0.00,,---,0.00,VWS V14.01,2013-05-15 13:13:00,
2013-05-15 09:14:00,65.1,42.1,30.03,SSW,202,0.0,1.3,43,0.00,,---,0.00,VWS V14.01,2013-05-15 13:14:00,
2013-05-15 09:15:00,64.8,41.8,30.03,NNE,22,0.0,0.0,43,0.00,,---,0.00,VWS V14.01,2013-05-15 13:15:00,
2013-05-15 09:16:00,64.8,41.8,30.03,NNW,338,1.1,1.1,43,0.00,,---,0.00,VWS V14.01,2013-05-15 13:16:00,
2013-05-15 09:17:00,64.6,41.6,30.03,SSE,158,0.0,1.1,43,0.00,,---,0.00,VWS V14.01,2013-05-15 13:17:00,
2013-05-15 09:18:00,64.6,41.6,30.03,SSE,158,0.0,0.0,43,0.00,,---,0.00,VWS V14.01,2013-05-15 13:18:00,
2013-05-15 09:19:00,64.4,41.4,30.03,ESE,112,0.0,0.0,43,0.00,,---,0.00,VWS V14.01,2013-05-15 13:19:00,
2013-05-15 09:20:00,64.2,41.9,30.03,ESE,112,1.1,1.1,44,0.00,,---,0.00,VWS V14.01,2013-05-15 13:20:00,
2013-05-15 09:21:00,64.2,41.9,30.03,ESE,112,0.9,1.1,44,0.00,,---,0.00,VWS V14.01,2013-05-15 13:21:00,
2013-05-15 09:22:00,64.2,41.9,30.03,NNE,22,1.1,1.1,44,0.00,,---,0.00,VWS V14.01,2013-05-15 13:22:00,
2013-05-15 09:23:00,64.2,41.9,30.03,NNE,22,0.0,1.1,44,0.00,,---,0.00,VWS V14.01,2013-05-15 13:23:00,
2013-05-15 09:24:00,64.2,41.9,30.03,ESE,112,0.0,0.0,44,0.00,,---,0.00,VWS V14.01,2013-05-15 13:24:00,
2013-05-15 09:25:00,64.2,41.9,30.03,SE,135,0.0,0.0,44,0.00,,---,0.00,VWS V14.01,2013-05-15 13:25:00,
2013-05-15 09:26:00,64.0,41.7,30.03,SE,135,0.0,0.0,44,0.00,,---,0.00,VWS V14.01,2013-05-15 13:26:00,
2013-05-15 09:27:00,63.9,41.5,30.03,SSW,202,0.0,0.0,44,0.00,,---,0.00,VWS V14.01,2013-05-15 13:27:00,
2013-05-15 09:28:00,64.0,41.7,30.03,SSE,158,0.0,0.0,44,0.00,,---,0.00,VWS V14.01,2013-05-15 13:28:00,
2013-05-15 09:29:00,63.9,41.5,30.03,SSE,158,0.0,0.0,44,0.00,,---,0.00,VWS V14.01,2013-05-15 13:29:00,
2013-05-15 09:30:00,63.9,42.1,30.03,SSE,158,0.0,0.0,45,0.00,,---,0.00,VWS V14.01,2013-05-15 13:30:00,
2013-05-15 09:31:00,63.9,42.1,30.03,SSE,158,0.0,0.0,45,0.00,,---,0.00,VWS V14.01,2013-05-15 13:31:00,
2013-05-15 09:32:00,63.9,42.1,30.03,SSE,158,0.0,0.0,45,0.00,,---,0.00,VWS V14.01,2013-05-15 13:32:00,
2013-05-15 09:33:00,64.0,42.3,30.03,ESE,112,0.9,0.9,45,0.00,,---,0.00,VWS V14.01,2013-05-15 13:33:00,
2013-05-15 09:34:00,64.2,42.5,30.03,ESE,112,0.0,0.9,45,0.00,,---,0.00,VWS V14.01,2013-05-15 13:34:00,
2013-05-15 09:35:00,64.4,42.0,30.03,ESE,112,0.0,0.0,44,0.00,,---,0.00,VWS V14.01,2013-05-15 13:35:00,
2013-05-15 09:36:00,64.6,42.2,30.03,ESE,112,0.0,0.0,44,0.00,,---,0.00,VWS V14.01,2013-05-15 13:36:00,
2013-05-15 09:37:00,64.8,42.4,30.03,ESE,112,0.0,0.0,44,0.00,,---,0.00,VWS V14.01,2013-05-15 13:37:00,
2013-05-15 09:38:00,64.9,42.5,30.03,ENE,68,0.0,0.0,44,0.00,,---,0.00,VWS V14.01,2013-05-15 13:38:00,
2013-05-15 09:39:00,64.9,42.5,30.03,WSW,248,0.0,0.0,44,0.00,,---,0.00,VWS V14.01,2013-05-15 13:39:00,
2013-05-15 09:40:00,64.9,42.5,30.03,NNE,22,1.1,1.1,44,0.00,,---,0.00,VWS V14.01,2013-05-15 13:40:00,
2013-05-15 09:41:00,64.9,42.5,30.03,NE,45,2.5,2.5,44,0.00,,---,0.00,VWS V14.01,2013-05-15 13:41:00,
2013-05-15 09:42:00,65.1,42.7,30.03,East,90,2.0,2.5,44,0.00,,---,0.00,VWS V14.01,2013-05-15 13:42:00,
2013-05-15 09:43:00,64.9,41.9,30.03,NE,45,3.8,3.8,43,0.00,,---,0.00,VWS V14.01,2013-05-15 13:43:00,
2013-05-15 09:44:00,64.9,41.9,30.03,ENE,68,2.0,3.8,43,0.00,,---,0.00,VWS V14.01,2013-05-15 13:44:00,
2013-05-15 09:45:00,65.1,42.1,30.03,ESE,112,0.0,2.0,43,0.00,,---,0.00,VWS V14.01,2013-05-15 13:45:00,
2013-05-15 09:46:00,65.3,42.2,30.03,South,180,0.0,0.0,43,0.00,,---,0.00,VWS V14.01,2013-05-15 13:46:00,
2013-05-15 09:47:00,65.7,43.2,30.03,NW,315,1.3,1.3,44,0.00,,---,0.00,VWS V14.01,2013-05-15 13:47:00,
2013-05-15 09:48:00,65.8,42.7,30.03,WNW,292,0.0,1.3,43,0.00,,---,0.00,VWS V14.01,2013-05-15 13:48:00,
2013-05-15 09:49:00,66.0,42.9,30.03,SE,135,1.3,1.3,43,0.00,,---,0.00,VWS V14.01,2013-05-15 13:49:00,
2013-05-15 09:50:00,66.0,42.9,30.03,WSW,248,2.2,2.2,43,0.00,,---,0.00,VWS V14.01,2013-05-15 13:50:00,
2013-05-15 09:51:00,66.2,43.1,30.03,SSE,158,0.0,2.2,43,0.00,,---,0.00,VWS V14.01,2013-05-15 13:51:00,
2013-05-15 09:52:00,66.6,43.4,30.03,NNW,338,0.9,0.9,43,0.00,,---,0.00,VWS V14.01,2013-05-15 13:52:00,
2013-05-15 09:53:00,66.9,43.1,30.03,North,0,2.0,2.0,42,0.00,,---,0.00,VWS V14.01,2013-05-15 13:53:00,
2013-05-15 09:54:00,66.9,42.5,30.03,WNW,292,0.9,2.0,41,0.00,,---,0.00,VWS V14.01,2013-05-15 13:54:00,
2013-05-15 09:55:00,67.1,42.6,30.03,ESE,112,0.9,0.9,41,0.00,,---,0.00,VWS V14.01,2013-05-15 13:55:00,
2013-05-15 09:56:00,67.1,42.6,30.03,WNW,292,2.5,2.5,41,0.00,,---,0.00,VWS V14.01,2013-05-15 13:56:00,
2013-05-15 09:57:00,67.1,42.6,30.03,WNW,292,0.0,2.5,41,0.00,,---,0.00,VWS V14.01,2013-05-15 13:57:00,
2013-05-15 09:58:00,66.9,42.5,30.03,West,270,0.0,0.0,41,0.00,,---,0.00,VWS V14.01,2013-05-15 13:58:00,
2013-05-15 09:59:00,66.9,42.5,30.03,NNW,338,1.6,1.6,41,0.00,,---,0.00,VWS V14.01,2013-05-15 13:59:00,
2013-05-15 10:00:00,66.6,40.9,30.03,WSW,248,0.0,1.6,39,0.00,,---,0.00,VWS V14.01,2013-05-15 14:00:00,
2013-05-15 10:01:00,66.6,41.5,30.03,South,180,0.0,0.0,40,0.00,,---,0.00,VWS V14.01,2013-05-15 14:01:00,
2013-05-15 10:02:00,66.2,40.5,30.03,ESE,112,1.6,1.6,39,0.00,,---,0.00,VWS V14.01,2013-05-15 14:02:00,
2013-05-15 10:03:00,66.0,41.0,30.03,ESE,112,0.0,1.6,40,0.00,,---,0.00,VWS V14.01,2013-05-15 14:03:00,
2013-05-15 10:04:00,66.0,41.0,30.03,SE,135,1.6,1.6,40,0.00,,---,0.00,VWS V14.01,2013-05-15 14:04:00,
2013-05-15 10:05:00,65.7,40.7,30.03,NE,45,1.3,1.6,40,0.00,,---,0.00,VWS V14.01,2013-05-15 14:05:00,
2013-05-15 10:06:00,65.5,40.5,30.03,NE,45,0.0,1.3,40,0.00,,---,0.00,VWS V14.01,2013-05-15 14:06:00,
2013-05-15 10:07:00,64.8,39.9,30.03,SSE,158,1.3,1.3,40,0.00,,---,0.00,VWS V14.01,2013-05-15 14:07:00,
2013-05-15 10:08:00,64.9,40.7,30.03,SSE,158,0.9,1.3,41,0.00,,---,0.00,VWS V14.01,2013-05-15 14:08:00,
2013-05-15 10:09:00,64.8,40.5,30.03,SSE,158,0.0,0.9,41,0.00,,---,0.00,VWS V14.01,2013-05-15 14:09:00,
2013-05-15 10:10:00,64.8,40.5,30.03,SSE,158,0.0,0.0,41,0.00,,---,0.00,VWS V14.01,2013-05-15 14:10:00,
2013-05-15 10:11:00,64.8,41.2,30.03,SSE,158,0.0,0.0,42,0.00,,---,0.00,VWS V14.01,2013-05-15 14:11:00,
2013-05-15 10:12:00,64.8,41.2,30.03,SSE,158,0.0,0.0,42,0.00,,---,0.00,VWS V14.01,2013-05-15 14:12:00,
2013-05-15 10:13:00,64.6,41.0,30.03,SSE,158,0.0,0.0,42,0.00,,---,0.00,VWS V14.01,2013-05-15 14:13:00,
2013-05-15 10:14:00,64.6,41.0,30.03,SSE,158,0.0,0.0,42,0.00,,---,0.00,VWS V14.01,2013-05-15 14:14:00,
2013-05-15 10:15:00,64.6,41.6,30.03,SSE,158,0.0,0.0,43,0.00,,---,0.00,VWS V14.01,2013-05-15 14:15:00,
2013-05-15 10:16:00,64.6,41.6,30.03,South,180,0.0,0.0,43,0.00,,---,0.00,VWS V14.01,2013-05-15 14:16:00,
2013-05-15 10:17:00,64.6,41.6,30.03,South,180,0.0,0.0,43,0.00,,---,0.00,VWS V14.01,2013-05-15 14:17:00,
2013-05-15 10:18:00,64.6,41.6,30.03,South,180,0.0,0.0,43,0.00,,---,0.00,VWS V14.01,2013-05-15 14:18:00,
2013-05-15 10:19:00,64.4,42.0,30.03,South,180,0.0,0.0,44,0.00,,---,0.00,VWS V14.01,2013-05-15 14:19:00,
2013-05-15 10:20:00,64.4,42.0,30.03,SSW,202,0.0,0.0,44,0.00,,---,0.00,VWS V14.01,2013-05-15 14:20:00,
2013-05-15 10:21:00,64.6,42.2,30.03,SSW,202,0.0,0.0,44,0.00,,---,0.00,VWS V14.01,2013-05-15 14:21:00,
2013-05-15 10:22:00,64.6,42.2,30.03,SSW,202,0.0,0.0,44,0.00,,---,0.00,VWS V14.01,2013-05-15 14:22:00,
2013-05-15 10:23:00,64.4,42.0,30.03,SW,225,0.0,0.0,44,0.00,,---,0.00,VWS V14.01,2013-05-15 14:23:00,
2013-05-15 10:24:00,64.4,42.0,30.03,South,180,0.0,0.0,44,0.00,,---,0.00,VWS V14.01,2013-05-15 14:24:00,
2013-05-15 10:25:00,64.2,42.5,30.03,South,180,0.0,0.0,45,0.00,,---,0.00,VWS V14.01,2013-05-15 14:25:00,
2013-05-15 10:27:00,64.2,42.5,30.03,South,180,0.0,0.0,45,0.00,,---,0.00,VWS V14.01,2013-05-15 14:27:00,
2013-05-15 10:28:00,64.2,42.5,30.03,South,180,0.0,0.0,45,0.00,,---,0.00,VWS V14.01,2013-05-15 14:28:00,
2013-05-15 10:29:00,63.9,42.1,30.03,South,180,0.0,0.0,45,0.00,,---,0.00,VWS V14.01,2013-05-15 14:29:00,
2013-05-15 10:30:00,63.9,42.7,30.03,SSW,202,0.0,0.0,46,0.00,,---,0.00,VWS V14.01,2013-05-15 14:30:00,
2013-05-15 10:31:00,63.9,42.7,30.03,SSW,202,0.0,0.0,46,0.00,,---,0.00,VWS V14.01,2013-05-15 14:31:00,
2013-05-15 10:32:00,63.9,42.7,30.03,SW,225,0.0,0.0,46,0.00,,---,0.00,VWS V14.01,2013-05-15 14:32:00,
2013-05-15 10:33:00,63.9,43.3,30.03,SW,225,0.0,0.0,47,0.00,,---,0.00,VWS V14.01,2013-05-15 14:33:00,
2013-05-15 10:34:00,63.9,43.3,30.03,South,180,0.0,0.0,47,0.00,,---,0.00,VWS V14.01,2013-05-15 14:34:00,
2013-05-15 10:35:00,63.7,43.1,30.03,SSE,158,0.0,0.0,47,0.00,,---,0.00,VWS V14.01,2013-05-15 14:35:00,
2013-05-15 10:36:00,63.7,43.1,30.03,WNW,292,0.0,0.0,47,0.00,,---,0.00,VWS V14.01,2013-05-15 14:36:00,
2013-05-15 10:37:00,63.9,43.3,30.03,North,0,0.0,0.0,47,0.00,,---,0.00,VWS V14.01,2013-05-15 14:37:00,
2013-05-15 10:38:00,64.0,43.4,30.03,NNW,338,0.0,0.0,47,0.00,,---,0.00,VWS V14.01,2013-05-15 14:38:00,
2013-05-15 10:39:00,64.2,43.6,30.03,WNW,292,1.3,1.3,47,0.00,,---,0.00,VWS V14.01,2013-05-15 14:39:00,
2013-05-15 10:40:00,64.4,43.2,30.03,WNW,292,1.1,1.3,46,0.00,,---,0.00,VWS V14.01,2013-05-15 14:40:00,
2013-05-15 10:41:00,64.4,43.2,30.03,WNW,292,0.0,1.1,46,0.00,,---,0.00,VWS V14.01,2013-05-15 14:41:00,
2013-05-15 10:42:00,64.6,43.9,30.03,WNW,292,1.6,1.6,47,0.00,,---,0.00,VWS V14.01,2013-05-15 14:42:00,
2013-05-15 10:43:00,64.6,43.4,30.03,WNW,292,0.0,1.6,46,0.00,,---,0.00,VWS V14.01,2013-05-15 14:43:00,
2013-05-15 10:44:00,64.6,43.4,30.03,WNW,292,0.0,0.0,46,0.00,,---,0.00,VWS V14.01,2013-05-15 14:44:00,
2013-05-15 10:46:00,64.2,43.6,30.03,SSE,158,0.0,0.0,47,0.00,,---,0.00,VWS V14.01,2013-05-15 14:46:00,
2013-05-15 10:47:00,64.2,43.6,30.03,SSE,158,1.1,1.1,47,0.00,,---,0.00,VWS V14.01,2013-05-15 14:47:00,
2013-05-15 10:48:00,64.0,43.4,30.03,SSE,158,0.9,1.1,47,0.00,,---,0.00,VWS V14.01,2013-05-15 14:48:00,
2013-05-15 10:49:00,64.2,44.1,30.03,SSE,158,0.0,0.9,48,0.00,,---,0.00,VWS V14.01,2013-05-15 14:49:00,
2013-05-15 10:50:00,64.2,44.1,30.03,SSE,158,0.0,0.0,48,0.00,,---,0.00,VWS V14.01,2013-05-15 14:50:00,
2013-05-15 10:51:00,64.2,44.1,30.03,SE,135,0.0,0.0,48,0.00,,---,0.00,VWS V14.01,2013-05-15 14:51:00,
2013-05-15 10:52:00,64.2,44.1,30.03,ESE,112,0.0,0.0,48,0.00,,---,0.00,VWS V14.01,2013-05-15 14:52:00,
2013-05-15 10:53:00,64.4,44.3,30.03,East,90,0.0,0.0,48,0.00,,---,0.00,VWS V14.01,2013-05-15 14:53:00,
2013-05-15 10:54:00,64.6,44.5,30.03,East,90,0.0,0.0,48,0.00,,---,0.00,VWS V14.01,2013-05-15 14:54:00,
2013-05-15 10:55:00,64.8,44.1,30.03,NE,45,0.0,0.0,47,0.00,,---,0.00,VWS V14.01,2013-05-15 14:55:00,
2013-05-15 10:56:00,64.8,44.1,30.03,NNE,22,1.6,1.6,47,0.00,,---,0.00,VWS V14.01,2013-05-15 14:56:00,
2013-05-15 10:57:00,64.8,44.1,30.03,ESE,112,0.0,1.6,47,0.00,,---,0.00,VWS V14.01,2013-05-15 14:57:00,
2013-05-15 10:58:00,64.8,44.1,30.03,NE,45,1.1,1.1,47,0.00,,---,0.00,VWS V14.01,2013-05-15 14:58:00,
2013-05-15 10:59:00,65.1,43.8,30.03,NE,45,1.1,1.1,46,0.00,,---,0.00,VWS V14.01,2013-05-15 14:59:00,
2013-05-15 11:00:00,65.1,43.8,30.03,ESE,112,0.0,1.1,46,0.00,,---,0.00,VWS V14.01,2013-05-15 15:00:00,
2013-05-15 11:01:00,65.1,43.8,30.03,East,90,0.9,0.9,46,0.00,,---,0.00,VWS V14.01,2013-05-15 15:01:00,
2013-05-15 11:02:00,64.9,43.7,30.03,East,90,0.0,0.9,46,0.00,,---,0.00,VWS V14.01,2013-05-15 15:02:00,
2013-05-15 11:03:00,65.1,43.8,30.03,East,90,0.0,0.0,46,0.00,,---,0.00,VWS V14.01,2013-05-15 15:03:00,
2013-05-15 11:05:00,65.3,44.0,30.03,SW,225,0.0,0.0,46,0.00,,---,0.00,VWS V14.01,2013-05-15 15:05:00,
2013-05-15 11:06:00,65.5,44.2,30.03,West,270,2.5,2.5,46,0.00,,---,0.00,VWS V14.01,2013-05-15 15:06:00,
2013-05-15 11:07:00,65.5,44.2,30.03,SSE,158,0.0,2.5,46,0.00,,---,0.00,VWS V14.01,2013-05-15 15:07:00,
2013-05-15 11:08:00,65.7,44.3,30.03,ENE,68,2.2,2.2,46,0.00,,---,0.00,VWS V14.01,2013-05-15 15:08:00,
2013-05-15 11:09:00,65.7,44.3,30.03,NNE,22,2.5,2.5,46,0.00,,---,0.00,VWS V14.01,2013-05-15 15:09:00,
2013-05-15 11:10:00,65.8,44.5,30.03,ENE,68,2.9,2.9,46,0.00,,---,0.00,VWS V14.01,2013-05-15 15:10:00,
2013-05-15 11:11:00,65.8,44.5,29.97,ENE,68,1.6,2.9,46,0.00,,---,0.00,VWS V14.01,2013-05-15 15:11:00,
2013-05-15 11:13:00,65.8,43.9,29.97,NE,45,3.1,3.1,45,0.00,,---,0.00,VWS V14.01,2013-05-15 15:13:00,
2013-05-15 11:14:00,65.8,43.9,29.97,WNW,292,1.3,3.1,45,0.00,,---,0.00,VWS V14.01,2013-05-15 15:14:00,
2013-05-15 11:15:00,66.0,44.1,29.97,WSW,248,2.2,2.2,45,0.00,,---,0.00,VWS V14.01,2013-05-15 15:15:00,
2013-05-15 11:16:00,66.0,44.1,29.97,SSW,202,0.0,2.2,45,0.00,,---,0.00,VWS V14.01,2013-05-15 15:16:00,
2013-05-15 11:17:00,66.2,44.2,29.97,SW,225,0.0,0.0,45,0.00,,---,0.00,VWS V14.01,2013-05-15 15:17:00,
2013-05-15 11:18:00,66.0,44.7,29.97,South,180,0.0,0.0,46,0.00,,---,0.00,VWS V14.01,2013-05-15 15:18:00,
2013-05-15 11:19:00,66.0,44.7,29.97,SSW,202,0.0,0.0,46,0.00,,---,0.00,VWS V14.01,2013-05-15 15:19:00,
2013-05-15 11:20:00,66.2,44.2,29.97,WSW,248,1.1,1.1,45,0.00,,---,0.00,VWS V14.01,2013-05-15 15:20:00,
2013-05-15 11:21:00,66.2,44.2,29.97,WSW,248,0.0,1.1,45,0.00,,---,0.00,VWS V14.01,2013-05-15 15:21:00,
2013-05-15 11:22:00,66.4,44.4,29.97,South,180,0.0,0.0,45,0.00,,---,0.00,VWS V14.01,2013-05-15 15:22:00,
2013-05-15 11:23:00,66.6,44.6,29.97,NW,315,0.0,0.0,45,0.00,,---,0.00,VWS V14.01,2013-05-15 15:23:00,
2013-05-15 11:24:00,66.7,44.8,29.97,SE,135,0.0,0.0,45,0.00,,---,0.00,VWS V14.01,2013-05-15 15:24:00,
2013-05-15 11:25:00,66.7,44.8,29.97,NNE,22,3.4,3.4,45,0.00,,---,0.00,VWS V14.01,2013-05-15 15:25:00,
2013-05-15 11:26:00,66.7,44.8,29.97,NNE,22,1.3,3.4,45,0.00,,---,0.00,VWS V14.01,2013-05-15 15:26:00,
2013-05-15 11:27:00,66.7,44.8,29.97,NE,45,1.6,1.6,45,0.00,,---,0.00,VWS V14.01,2013-05-15 15:27:00,
2013-05-15 11:28:00,66.9,44.9,29.97,NE,45,3.6,3.6,45,0.00,,---,0.00,VWS V14.01,2013-05-15 15:28:00,
2013-05-15 11:29:00,66.9,44.9,29.97,NE,45,1.6,3.6,45,0.00,,---,0.00,VWS V14.01,2013-05-15 15:29:00,
2013-05-15 11:30:00,66.9,44.9,29.97,ENE,68,2.5,2.5,45,0.00,,---,0.00,VWS V14.01,2013-05-15 15:30:00,
2013-05-15 11:32:00,66.9,44.3,29.97,NNE,22,5.8,5.8,44,0.00,,---,0.00,VWS V14.01,2013-05-15 15:32:00,
2013-05-15 11:33:00,66.9,44.3,29.97,NE,45,4.0,5.8,44,0.00,,---,0.00,VWS V14.01,2013-05-15 15:33:00,
2013-05-15 11:34:00,66.9,44.9,29.97,NE,45,3.1,4.0,45,0.00,,---,0.00,VWS V14.01,2013-05-15 15:34:00,
2013-05-15 11:35:00,66.9,44.9,29.97,NE,45,3.4,3.4,45,0.00,,---,0.00,VWS V14.01,2013-05-15 15:35:00,
2013-05-15 11:36:00,67.1,45.1,29.97,NNE,22,3.4,3.4,45,0.00,,---,0.00,VWS V14.01,2013-05-15 15:36:00,
2013-05-15 11:37:00,66.9,44.9,29.97,ENE,68,4.3,4.3,45,0.00,,---,0.00,VWS V14.01,2013-05-15 15:37:00,
2013-05-15 11:38:00,66.9,44.9,29.97,ESE,112,3.1,4.3,45,0.00,,---,0.00,VWS V14.01,2013-05-15 15:38:00,
2013-05-15 11:39:00,67.1,45.1,29.97,NNE,22,2.5,3.1,45,0.00,,---,0.00,VWS V14.01,2013-05-15 15:39:00,
2013-05-15 11:40:00,67.1,44.5,29.97,ENE,68,5.4,5.4,44,0.00,,---,0.00,VWS V14.01,2013-05-15 15:40:00,
2013-05-15 11:41:00,66.9,44.3,29.97,NNE,22,3.4,5.4,44,0.00,,---,0.00,VWS V14.01,2013-05-15 15:41:00,
2013-05-15 11:42:00,67.1,44.5,29.97,NNE,22,2.7,3.4,44,0.00,,---,0.00,VWS V14.01,2013-05-15 15:42:00,
2013-05-15 11:43:00,67.1,44.5,29.97,ENE,68,3.6,3.6,44,0.00,,---,0.00,VWS V14.01,2013-05-15 15:43:00,
2013-05-15 11:45:00,66.9,43.7,29.97,NNW,338,5.6,5.6,43,0.00,,---,0.00,VWS V14.01,2013-05-15 15:45:00,
2013-05-15 11:46:00,66.9,43.7,29.97,NNE,22,3.4,5.6,43,0.00,,---,0.00,VWS V14.01,2013-05-15 15:46:00,
2013-05-15 11:47:00,66.9,43.7,29.97,ENE,68,5.4,5.4,43,0.00,,---,0.00,VWS V14.01,2013-05-15 15:47:00,
2013-05-15 11:48:00,66.7,43.5,29.97,ENE,68,2.9,5.4,43,0.00,,---,0.00,VWS V14.01,2013-05-15 15:48:00,
2013-05-15 11:49:00,66.7,43.5,29.97,NNE,22,1.6,2.9,43,0.00,,---,0.00,VWS V14.01,2013-05-15 15:49:00,
2013-05-15 11:50:00,66.9,43.7,29.97,ENE,68,2.7,2.7,43,0.00,,---,0.00,VWS V14.01,2013-05-15 15:50:00,
2013-05-15 11:51:00,66.9,43.7,29.97,NNE,22,3.4,3.4,43,0.00,,---,0.00,VWS V14.01,2013-05-15 15:51:00,
2013-05-15 11:52:00,66.9,43.7,29.97,ENE,68,2.7,3.4,43,0.00,,---,0.00,VWS V14.01,2013-05-15 15:52:00,
2013-05-15 11:53:00,66.9,43.7,29.97,NE,45,2.2,2.7,43,0.00,,---,0.00,VWS V14.01,2013-05-15 15:53:00,
2013-05-15 11:54:00,66.7,43.5,29.97,ENE,68,2.2,2.2,43,0.00,,---,0.00,VWS V14.01,2013-05-15 15:54:00,
2013-05-15 11:55:00,66.7,44.2,29.97,NNW,338,2.5,2.5,44,0.00,,---,0.00,VWS V14.01,2013-05-15 15:55:00,
2013-05-15 11:56:00,66.7,43.5,29.97,NW,315,1.6,2.5,43,0.00,,---,0.00,VWS V14.01,2013-05-15 15:56:00,
2013-05-15 11:57:00,66.7,44.2,29.97,NNE,22,2.0,2.0,44,0.00,,---,0.00,VWS V14.01,2013-05-15 15:57:00,
2013-05-15 11:58:00,66.7,44.2,29.97,SSE,158,0.9,2.0,44,0.00,,---,0.00,VWS V14.01,2013-05-15 15:58:00,
2013-05-15 11:59:00,66.7,44.2,29.97,NE,45,2.0,2.0,44,0.00,,---,0.00,VWS V14.01,2013-05-15 15:59:00,
2013-05-15 12:00:00,66.7,44.2,29.97,NW,315,2.2,2.2,44,0.00,,---,0.00,VWS V14.01,2013-05-15 16:00:00,
2013-05-15 12:01:00,66.9,44.3,29.97,NE,45,3.8,3.8,44,0.00,,---,0.00,VWS V14.01,2013-05-15 16:01:00,
2013-05-15 12:03:00,66.9,43.7,29.97,ESE,112,4.3,4.3,43,0.00,,---,0.00,VWS V14.01,2013-05-15 16:03:00,
2013-05-15 12:04:00,66.7,43.5,29.97,SSE,158,2.7,4.3,43,0.00,,---,0.00,VWS V14.01,2013-05-15 16:04:00,
2013-05-15 12:05:00,66.9,44.3,29.97,NNW,338,2.5,2.7,44,0.00,,---,0.00,VWS V14.01,2013-05-15 16:05:00,
2013-05-15 12:06:00,66.9,44.3,29.97,ENE,68,1.6,2.5,44,0.00,,---,0.00,VWS V14.01,2013-05-15 16:06:00,
2013-05-15 12:07:00,67.1,43.9,29.97,West,270,1.1,1.6,43,0.00,,---,0.00,VWS V14.01,2013-05-15 16:07:00,
2013-05-15 12:08:00,67.1,43.9,29.97,SSE,158,2.5,2.5,43,0.00,,---,0.00,VWS V14.01,2013-05-15 16:08:00,
2013-05-15 12:09:00,67.3,44.0,29.97,SE,135,0.0,2.5,43,0.00,,---,0.00,VWS V14.01,2013-05-15 16:09:00,
2013-05-15 12:10:00,67.3,44.0,29.97,ENE,68,2.5,2.5,43,0.00,,---,0.00,VWS V14.01,2013-05-15 16:10:00,
2013-05-15 12:11:00,67.3,44.0,29.94,NE,45,2.9,2.9,43,0.00,,---,0.00,VWS V14.01,2013-05-15 16:11:00,
2013-05-15 12:12:00,67.5,44.2,29.94,NE,45,2.5,2.9,43,0.00,,---,0.00,VWS V14.01,2013-05-15 16:12:00,
2013-05-15 12:13:00,67.5,44.2,29.94,NNE,22,0.9,2.5,43,0.00,,---,0.00,VWS V14.01,2013-05-15 16:13:00,
2013-05-15 12:14:00,67.6,44.4,29.94,ENE,68,0.0,0.9,43,0.00,,---,0.00,VWS V14.01,2013-05-15 16:14:00,
2013-05-15 12:15:00,67.6,45.0,29.94,ENE,68,3.1,3.1,44,0.00,,---,0.00,VWS V14.01,2013-05-15 16:15:00,
2013-05-15 12:16:00,67.5,44.8,29.94,ENE,68,2.5,3.1,44,0.00,,---,0.00,VWS V14.01,2013-05-15 16:16:00,
2013-05-15 12:17:00,67.5,44.8,29.94,NE,45,3.6,3.6,44,0.00,,---,0.00,VWS V14.01,2013-05-15 16:17:00,
2013-05-15 12:18:00,67.5,44.8,29.94,NNE,22,3.6,3.6,44,0.00,,---,0.00,VWS V14.01,2013-05-15 16:18:00,
2013-05-15 12:19:00,67.5,44.8,29.94,NE,45,3.6,3.6,44,0.00,,---,0.00,VWS V14.01,2013-05-15 16:19:00,
2013-05-15 12:20:00,67.3,44.0,29.94,NE,45,1.6,3.6,43,0.00,,---,0.00,VWS V14.01,2013-05-15 16:20:00,
2013-05-15 12:21:00,67.3,44.0,29.94,ENE,68,2.5,2.5,43,0.00,,---,0.00,VWS V14.01,2013-05-15 16:21:00,
2013-05-15 12:22:00,67.3,44.0,29.94,NE,45,2.2,2.5,43,0.00,,---,0.00,VWS V14.01,2013-05-15 16:22:00,
2013-05-15 12:23:00,67.1,43.9,29.94,NE,45,2.2,2.2,43,0.00,,---,0.00,VWS V14.01,2013-05-15 16:23:00,
2013-05-15 12:24:00,67.3,44.0,29.94,NE,45,2.0,2.2,43,0.00,,---,0.00,VWS V14.01,2013-05-15 16:24:00,
2013-05-15 12:25:00,67.3,44.7,29.94,NE,45,3.8,3.8,44,0.00,,---,0.00,VWS V14.01,2013-05-15 16:25:00,
2013-05-15 12:26:00,67.5,44.8,29.97,NE,45,2.7,3.8,44,0.00,,---,0.00,VWS V14.01,2013-05-15 16:26:00,
2013-05-15 12:27:00,67.5,44.8,29.97,NE,45,3.6,3.6,44,0.00,,---,0.00,VWS V14.01,2013-05-15 16:27:00,
2013-05-15 12:28:00,67.5,44.8,29.97,ENE,68,5.4,5.4,44,0.00,,---,0.00,VWS V14.01,2013-05-15 16:28:00,
2013-05-15 12:29:00,67.3,44.7,29.97,NE,45,6.3,6.3,44,0.00,,---,0.00,VWS V14.01,2013-05-15 16:29:00,
2013-05-15 12:30:00,67.3,44.7,29.97,ENE,68,5.6,6.3,44,0.00,,---,0.00,VWS V14.01,2013-05-15 16:30:00,
2013-05-15 12:31:00,67.1,44.5,29.97,NE,45,5.6,5.6,44,0.00,,---,0.00,VWS V14.01,2013-05-15 16:31:00,
2013-05-15 12:32:00,66.7,43.5,29.97,NNW,338,4.0,5.6,43,0.00,,---,0.00,VWS V14.01,2013-05-15 16:32:00,
2013-05-15 12:33:00,66.7,44.2,29.97,NE,45,7.2,7.2,44,0.00,,---,0.00,VWS V14.01,2013-05-15 16:33:00,
2013-05-15 12:34:00,66.7,44.2,29.97,NE,45,3.1,7.2,44,0.00,,---,0.00,VWS V14.01,2013-05-15 16:34:00,
2013-05-15 12:35:00,66.7,44.2,29.97,NE,45,6.0,6.0,44,0.00,,---,0.00,VWS V14.01,2013-05-15 16:35:00,
2013-05-15 12:36:00,66.7,44.2,29.97,NNE,22,4.3,6.0,44,0.00,,---,0.00,VWS V14.01,2013-05-15 16:36:00,
2013-05-15 12:37:00,66.7,44.2,29.97,NNE,22,4.7,4.7,44,0.00,,---,0.00,VWS V14.01,2013-05-15 16:37:00,
2013-05-15 12:38:00,66.6,44.0,29.97,NE,45,2.9,4.7,44,0.00,,---,0.00,VWS V14.01,2013-05-15 16:38:00,
2013-05-15 12:39:00,66.7,44.8,29.97,NE,45,5.8,5.8,45,0.00,,---,0.00,VWS V14.01,2013-05-15 16:39:00,
2013-05-15 12:40:00,66.7,44.8,29.97,NNE,22,5.6,5.8,45,0.00,,---,0.00,VWS V14.01,2013-05-15 16:40:00,
2013-05-15 12:41:00,66.7,44.8,29.97,NNE,22,4.3,5.6,45,0.00,,---,0.00,VWS V14.01,2013-05-15 16:41:00,
2013-05-15 12:42:00,66.7,44.8,29.97,NNE,22,3.6,4.3,45,0.00,,---,0.00,VWS V14.01,2013-05-15 16:42:00,
2013-05-15 12:43:00,66.7,44.8,29.97,NNE,22,4.3,4.3,45,0.00,,---,0.00,VWS V14.01,2013-05-15 16:43:00,
2013-05-15 12:44:00,66.7,44.8,29.97,NE,45,4.3,4.3,45,0.00,,---,0.00,VWS V14.01,2013-05-15 16:44:00,
2013-05-15 12:45:00,66.7,44.8,29.97,NNE,22,3.6,4.3,45,0.00,,---,0.00,VWS V14.01,2013-05-15 16:45:00,
2013-05-15 12:46:00,66.7,44.8,29.97,NE,45,3.4,3.6,45,0.00,,---,0.00,VWS V14.01,2013-05-15 16:46:00,
2013-05-15 12:47:00,66.9,44.9,29.97,ENE,68,1.6,3.4,45,0.00,,---,0.00,VWS V14.01,2013-05-15 16:47:00,
2013-05-15 12:48:00,66.9,45.5,29.97,NNE,22,3.8,3.8,46,0.00,,---,0.00,VWS V14.01,2013-05-15 16:48:00,
2013-05-15 12:49:00,66.9,45.5,29.97,ENE,68,4.0,4.0,46,0.00,,---,0.00,VWS V14.01,2013-05-15 16:49:00,
2013-05-15 12:50:00,66.9,45.5,29.97,NNE,22,3.6,4.0,46,0.00,,---,0.00,VWS V14.01,2013-05-15 16:50:00,
2013-05-15 12:51:00,66.9,45.5,29.97,NE,45,5.4,5.4,46,0.00,,---,0.00,VWS V14.01,2013-05-15 16:51:00,
2013-05-15 12:52:00,66.9,45.5,29.97,WSW,248,3.6,5.4,46,0.00,,---,0.00,VWS V14.01,2013-05-15 16:52:00,
2013-05-15 12:53:00,66.9,45.5,29.97,NE,45,4.0,4.0,46,0.00,,---,0.00,VWS V14.01,2013-05-15 16:53:00,
2013-05-15 12:54:00,66.9,45.5,29.97,NNE,22,3.8,4.0,46,0.00,,---,0.00,VWS V14.01,2013-05-15 16:54:00,
2013-05-15 12:55:00,66.9,45.5,29.97,NE,45,4.9,4.9,46,0.00,,---,0.00,VWS V14.01,2013-05-15 16:55:00,
2013-05-15 12:56:00,66.9,45.5,29.97,NE,45,3.1,4.9,46,0.00,,---,0.00,VWS V14.01,2013-05-15 16:56:00,
2013-05-15 12:57:00,66.9,46.0,29.97,NE,45,3.4,3.4,47,0.00,,---,0.00,VWS V14.01,2013-05-15 16:57:00,
2013-05-15 12:58:00,66.9,46.0,29.97,NNE,22,5.6,5.6,47,0.00,,---,0.00,VWS V14.01,2013-05-15 16:58:00,
2013-05-15 12:59:00,66.9,45.5,29.97,North,0,3.4,5.6,46,0.00,,---,0.00,VWS V14.01,2013-05-15 16:59:00,
2013-05-15 13:00:00,66.9,46.0,29.97,NE,45,6.3,6.3,47,0.00,,---,0.00,VWS V14.01,2013-05-15 17:00:00,
2013-05-15 13:01:00,66.9,46.0,29.97,NE,45,6.3,6.3,47,0.00,,---,0.00,VWS V14.01,2013-05-15 17:01:00,
2013-05-15 13:02:00,66.9,46.0,29.97,NE,45,6.5,6.5,47,0.00,,---,0.00,VWS V14.01,2013-05-15 17:02:00,
2013-05-15 13:03:00,66.9,46.0,29.97,NNW,338,3.8,6.5,47,0.00,,---,0.00,VWS V14.01,2013-05-15 17:03:00,
2013-05-15 13:04:00,66.9,46.0,29.97,NE,45,3.8,3.8,47,0.00,,---,0.00,VWS V14.01,2013-05-15 17:04:00,
2013-05-15 13:05:00,66.9,46.0,29.97,NNW,338,4.7,4.7,47,0.00,,---,0.00,VWS V14.01,2013-05-15 17:05:00,
2013-05-15 13:06:00,66.7,45.9,29.97,NNW,338,3.1,4.7,47,0.00,,---,0.00,VWS V14.01,2013-05-15 17:06:00,
2013-05-15 13:07:00,66.7,45.9,29.97,ENE,68,3.1,3.1,47,0.00,,---,0.00,VWS V14.01,2013-05-15 17:07:00,
2013-05-15 13:08:00,66.7,45.9,29.97,NE,45,4.3,4.3,47,0.00,,---,0.00,VWS V14.01,2013-05-15 17:08:00,
2013-05-15 13:09:00,66.6,45.2,29.97,NE,45,4.3,4.3,46,0.00,,---,0.00,VWS V14.01,2013-05-15 17:09:00,
2013-05-15 13:10:00,66.4,45.0,29.97,NE,45,4.3,4.3,46,0.00,,---,0.00,VWS V14.01,2013-05-15 17:10:00,
2013-05-15 13:11:00,66.4,45.6,29.97,NNE,22,4.3,4.3,47,0.00,,---,0.00,VWS V14.01,2013-05-15 17:11:00,
2013-05-15 13:12:00,66.4,45.6,29.97,NE,45,3.6,4.3,47,0.00,,---,0.00,VWS V14.01,2013-05-15 17:12:00,
2013-05-15 13:13:00,66.4,45.6,29.97,ENE,68,3.4,3.6,47,0.00,,---,0.00,VWS V14.01,2013-05-15 17:13:00,
2013-05-15 13:14:00,66.6,45.7,29.97,NNE,22,4.3,4.3,47,0.00,,---,0.00,VWS V14.01,2013-05-15 17:14:00,
2013-05-15 13:15:00,66.6,45.7,29.97,NNW,338,4.0,4.3,47,0.00,,---,0.00,VWS V14.01,2013-05-15 17:15:00,
2013-05-15 13:16:00,66.6,45.7,29.97,North,0,4.9,4.9,47,0.00,,---,0.00,VWS V14.01,2013-05-15 17:16:00,
2013-05-15 13:17:00,66.6,45.7,29.97,NE,45,3.6,4.9,47,0.00,,---,0.00,VWS V14.01,2013-05-15 17:17:00,
2013-05-15 13:18:00,66.6,45.7,29.97,WSW,248,3.8,3.8,47,0.00,,---,0.00,VWS V14.01,2013-05-15 17:18:00,
2013-05-15 13:19:00,66.6,45.7,29.97,ENE,68,4.9,4.9,47,0.00,,---,0.00,VWS V14.01,2013-05-15 17:19:00,
2013-05-15 13:20:00,66.6,45.7,29.97,NE,45,4.7,4.9,47,0.00,,---,0.00,VWS V14.01,2013-05-15 17:20:00,
2013-05-15 13:21:00,66.6,45.7,29.97,NE,45,3.4,4.7,47,0.00,,---,0.00,VWS V14.01,2013-05-15 17:21:00,
2013-05-15 13:22:00,66.7,45.9,29.97,NNW,338,3.1,3.4,47,0.00,,---,0.00,VWS V14.01,2013-05-15 17:22:00,
2013-05-15 13:23:00,66.7,46.5,29.97,NE,45,3.1,3.1,48,0.00,,---,0.00,VWS V14.01,2013-05-15 17:23:00,
2013-05-15 13:24:00,66.7,46.5,29.97,NNE,22,3.4,3.4,48,0.00,,---,0.00,VWS V14.01,2013-05-15 17:24:00,
2013-05-15 13:25:00,66.7,46.5,29.97,ENE,68,6.3,6.3,48,0.00,,---,0.00,VWS V14.01,2013-05-15 17:25:00,
2013-05-15 13:26:00,66.6,46.3,29.97,NE,45,3.1,6.3,48,0.00,,---,0.00,VWS V14.01,2013-05-15 17:26:00,
2013-05-15 13:27:00,66.6,46.3,29.97,NE,45,4.9,4.9,48,0.00,,---,0.00,VWS V14.01,2013-05-15 17:27:00,
2013-05-15 13:28:00,66.6,46.3,29.97,ENE,68,3.6,4.9,48,0.00,,---,0.00,VWS V14.01,2013-05-15 17:28:00,
2013-05-15 13:29:00,66.6,46.3,29.97,ENE,68,2.9,3.6,48,0.00,,---,0.00,VWS V14.01,2013-05-15 17:29:00,
2013-05-15 13:30:00,66.7,47.0,29.97,NNE,22,3.6,3.6,49,0.00,,---,0.00,VWS V14.01,2013-05-15 17:30:00,
2013-05-15 13:31:00,66.7,46.5,29.97,NNE,22,3.4,3.6,48,0.00,,---,0.00,VWS V14.01,2013-05-15 17:31:00,
2013-05-15 13:32:00,66.7,47.0,29.97,NE,45,4.0,4.0,49,0.00,,---,0.00,VWS V14.01,2013-05-15 17:32:00,
2013-05-15 13:33:00,66.7,46.5,29.97,NNW,338,4.3,4.3,48,0.00,,---,0.00,VWS V14.01,2013-05-15 17:33:00,
2013-05-15 13:34:00,66.7,46.5,29.97,ENE,68,3.8,4.3,48,0.00,,---,0.00,VWS V14.01,2013-05-15 17:34:00,
2013-05-15 13:35:00,66.7,46.5,29.97,ENE,68,4.0,4.0,48,0.00,,---,0.00,VWS V14.01,2013-05-15 17:35:00,
2013-05-15 13:36:00,66.7,46.5,29.97,ENE,68,3.6,4.0,48,0.00,,---,0.00,VWS V14.01,2013-05-15 17:36:00,
2013-05-15 13:37:00,66.7,46.5,29.97,NE,45,3.4,3.6,48,0.00,,---,0.00,VWS V14.01,2013-05-15 17:37:00,
2013-05-15 13:38:00,66.7,46.5,29.97,NNE,22,3.8,3.8,48,0.00,,---,0.00,VWS V14.01,2013-05-15 17:38:00,
2013-05-15 13:39:00,66.7,47.0,29.97,East,90,2.9,3.8,49,0.00,,---,0.00,VWS V14.01,2013-05-15 17:39:00,
2013-05-15 13:40:00,66.7,47.0,29.97,NNE,22,2.7,2.9,49,0.00,,---,0.00,VWS V14.01,2013-05-15 17:40:00,
2013-05-15 13:41:00,66.7,47.0,29.94,NE,45,2.0,2.7,49,0.00,,---,0.00,VWS V14.01,2013-05-15 17:41:00,
2013-05-15 13:42:00,66.7,47.0,29.94,NNE,22,3.4,3.4,49,0.00,,---,0.00,VWS V14.01,2013-05-15 17:42:00,
2013-05-15 13:43:00,66.9,47.2,29.94,NE,45,2.9,3.4,49,0.00,,---,0.00,VWS V14.01,2013-05-15 17:43:00,
2013-05-15 13:44:00,66.9,47.2,29.94,East,90,2.5,2.9,49,0.00,,---,0.00,VWS V14.01,2013-05-15 17:44:00,
2013-05-15 13:45:00,66.9,47.2,29.94,NE,45,0.9,2.5,49,0.00,,---,0.00,VWS V14.01,2013-05-15 17:45:00,
2013-05-15 13:46:00,67.1,47.3,29.94,West,270,2.5,2.5,49,0.00,,---,0.00,VWS V14.01,2013-05-15 17:46:00,
2013-05-15 13:47:00,67.1,47.3,29.94,NNE,22,4.0,4.0,49,0.00,,---,0.00,VWS V14.01,2013-05-15 17:47:00,
2013-05-15 13:48:00,67.3,47.5,29.94,NNE,22,2.5,4.0,49,0.00,,---,0.00,VWS V14.01,2013-05-15 17:48:00,
2013-05-15 13:49:00,67.5,47.7,29.94,ENE,68,3.6,3.6,49,0.00,,---,0.00,VWS V14.01,2013-05-15 17:49:00,
2013-05-15 13:50:00,67.5,47.1,29.94,NE,45,2.7,3.6,48,0.00,,---,0.00,VWS V14.01,2013-05-15 17:50:00,
2013-05-15 13:51:00,67.5,47.1,29.94,NNE,22,3.8,3.8,48,0.00,,---,0.00,VWS V14.01,2013-05-15 17:51:00,
2013-05-15 13:52:00,67.5,47.1,29.94,NE,45,4.9,4.9,48,0.00,,---,0.00,VWS V14.01,2013-05-15 17:52:00,
2013-05-15 13:53:00,67.6,47.8,29.94,ENE,68,2.7,4.9,49,0.00,,---,0.00,VWS V14.01,2013-05-15 17:53:00,
2013-05-15 13:54:00,67.6,47.8,29.94,NE,45,4.0,4.0,49,0.00,,---,0.00,VWS V14.01,2013-05-15 17:54:00,
2013-05-15 13:55:00,67.6,47.8,29.94,ENE,68,3.8,4.0,49,0.00,,---,0.00,VWS V14.01,2013-05-15 17:55:00,
2013-05-15 13:56:00,67.6,47.8,29.91,NNE,22,4.3,4.3,49,0.00,,---,0.00,VWS V14.01,2013-05-15 17:56:00,
2013-05-15 13:57:00,67.6,47.8,29.91,NE,45,4.9,4.9,49,0.00,,---,0.00,VWS V14.01,2013-05-15 17:57:00,
2013-05-15 13:58:00,67.6,47.8,29.91,NE,45,3.8,4.9,49,0.00,,---,0.00,VWS V14.01,2013-05-15 17:58:00,
2013-05-15 13:59:00,67.6,47.8,29.91,NNE,22,4.9,4.9,49,0.00,,---,0.00,VWS V14.01,2013-05-15 17:59:00,
2013-05-15 14:00:00,67.6,48.4,29.91,North,0,3.8,4.9,50,0.00,,---,0.00,VWS V14.01,2013-05-15 18:00:00,
2013-05-15 14:01:00,67.8,48.5,29.91,NNW,338,4.0,4.0,50,0.00,,---,0.00,VWS V14.01,2013-05-15 18:01:00,
2013-05-15 14:02:00,67.8,48.5,29.91,NNE,22,3.1,4.0,50,0.00,,---,0.00,VWS V14.01,2013-05-15 18:02:00,
2013-05-15 14:03:00,68.0,48.2,29.91,NNE,22,2.2,3.1,49,0.00,,---,0.00,VWS V14.01,2013-05-15 18:03:00,
2013-05-15 14:04:00,68.0,48.2,29.91,NNW,338,5.4,5.4,49,0.00,,---,0.00,VWS V14.01,2013-05-15 18:04:00,
2013-05-15 14:05:00,68.2,48.3,29.91,NE,45,5.4,5.4,49,0.00,,---,0.00,VWS V14.01,2013-05-15 18:05:00,
2013-05-15 14:06:00,68.2,48.3,29.91,NE,45,3.4,5.4,49,0.00,,---,0.00,VWS V14.01,2013-05-15 18:06:00,
2013-05-15 14:07:00,68.2,48.3,29.91,ENE,68,3.1,3.4,49,0.00,,---,0.00,VWS V14.01,2013-05-15 18:07:00,
2013-05-15 14:08:00,68.2,48.3,29.91,ENE,68,3.8,3.8,49,0.00,,---,0.00,VWS V14.01,2013-05-15 18:08:00,
2013-05-15 14:09:00,68.4,48.5,29.91,NNE,22,5.8,5.8,49,0.00,,---,0.00,VWS V14.01,2013-05-15 18:09:00,
2013-05-15 14:10:00,68.4,47.9,29.91,ENE,68,2.2,5.8,48,0.00,,---,0.00,VWS V14.01,2013-05-15 18:10:00,
2013-05-15 14:11:00,68.5,48.1,29.91,NNW,338,1.6,2.2,48,0.00,,---,0.00,VWS V14.01,2013-05-15 18:11:00,
2013-05-15 14:12:00,68.5,48.6,29.91,NE,45,3.1,3.1,49,0.00,,---,0.00,VWS V14.01,2013-05-15 18:12:00,
2013-05-15 14:13:00,68.5,48.6,29.91,ENE,68,2.7,3.1,49,0.00,,---,0.00,VWS V14.01,2013-05-15 18:13:00,
2013-05-15 14:14:00,68.5,48.6,29.91,NW,315,1.3,2.7,49,0.00,,---,0.00,VWS V14.01,2013-05-15 18:14:00,
2013-05-15 14:15:00,68.7,48.3,29.91,NNW,338,3.6,3.6,48,0.00,,---,0.00,VWS V14.01,2013-05-15 18:15:00,
2013-05-15 14:16:00,68.7,48.3,29.91,NNE,22,2.7,3.6,48,0.00,,---,0.00,VWS V14.01,2013-05-15 18:16:00,
2013-05-15 14:17:00,68.9,48.4,29.91,NNE,22,3.8,3.8,48,0.00,,---,0.00,VWS V14.01,2013-05-15 18:17:00,
2013-05-15 14:18:00,68.7,47.7,29.91,NE,45,3.4,3.8,47,0.00,,---,0.00,VWS V14.01,2013-05-15 18:18:00,
2013-05-15 14:19:00,68.7,47.7,29.91,NNE,22,1.6,3.4,47,0.00,,---,0.00,VWS V14.01,2013-05-15 18:19:00,
2013-05-15 14:20:00,68.7,47.7,29.91,NNW,338,3.6,3.6,47,0.00,,---,0.00,VWS V14.01,2013-05-15 18:20:00,
2013-05-15 14:21:00,68.7,47.1,29.91,NNW,338,2.7,3.6,46,0.00,,---,0.00,VWS V14.01,2013-05-15 18:21:00,
2013-05-15 14:22:00,68.7,47.1,29.91,NNW,338,3.4,3.4,46,0.00,,---,0.00,VWS V14.01,2013-05-15 18:22:00,
2013-05-15 14:23:00,68.7,47.1,29.91,NNW,338,3.8,3.8,46,0.00,,---,0.00,VWS V14.01,2013-05-15 18:23:00,
2013-05-15 14:24:00,68.7,47.1,29.91,WNW,292,4.3,4.3,46,0.00,,---,0.00,VWS V14.01,2013-05-15 18:24:00,
2013-05-15 14:25:00,68.5,47.5,29.91,WNW,292,3.6,4.3,47,0.00,,---,0.00,VWS V14.01,2013-05-15 18:25:00,
2013-05-15 14:26:00,68.5,47.0,29.97,WNW,292,3.6,3.6,46,0.00,,---,0.00,VWS V14.01,2013-05-15 18:26:00,
2013-05-15 14:27:00,68.7,47.1,29.97,NNW,338,1.1,3.6,46,0.00,,---,0.00,VWS V14.01,2013-05-15 18:27:00,
2013-05-15 14:28:00,68.9,47.3,29.97,NNE,22,1.6,1.6,46,0.00,,---,0.00,VWS V14.01,2013-05-15 18:28:00,
2013-05-15 14:29:00,68.9,47.3,29.97,ENE,68,3.4,3.4,46,0.00,,---,0.00,VWS V14.01,2013-05-15 18:29:00,
2013-05-15 14:30:00,69.1,47.5,29.97,NE,45,3.4,3.4,46,0.00,,---,0.00,VWS V14.01,2013-05-15 18:30:00,
2013-05-15 14:31:00,69.1,47.5,29.97,NE,45,3.1,3.4,46,0.00,,---,0.00,VWS V14.01,2013-05-15 18:31:00,
2013-05-15 14:32:00,69.3,47.6,29.97,NE,45,3.1,3.1,46,0.00,,---,0.00,VWS V14.01,2013-05-15 18:32:00,
2013-05-15 14:33:00,69.3,47.6,29.97,NNE,22,2.9,3.1,46,0.00,,---,0.00,VWS V14.01,2013-05-15 18:33:00,
2013-05-15 14:34:00,69.4,47.8,29.97,NE,45,2.9,2.9,46,0.00,,---,0.00,VWS V14.01,2013-05-15 18:34:00,
2013-05-15 14:35:00,69.4,47.8,29.97,NE,45,2.5,2.9,46,0.00,,---,0.00,VWS V14.01,2013-05-15 18:35:00,
2013-05-15 14:36:00,69.4,47.8,29.97,NE,45,2.2,2.5,46,0.00,,---,0.00,VWS V14.01,2013-05-15 18:36:00,
2013-05-15 14:37:00,69.6,48.0,29.97,NNE,22,3.1,3.1,46,0.00,,---,0.00,VWS V14.01,2013-05-15 18:37:00,
2013-05-15 14:38:00,69.6,47.4,29.97,NE,45,3.1,3.1,45,0.00,,---,0.00,VWS V14.01,2013-05-15 18:38:00,
2013-05-15 14:39:00,69.6,47.4,29.97,NNE,22,4.3,4.3,45,0.00,,---,0.00,VWS V14.01,2013-05-15 18:39:00,
2013-05-15 14:40:00,69.6,46.8,29.97,NNE,22,3.8,4.3,44,0.00,,---,0.00,VWS V14.01,2013-05-15 18:40:00,
2013-05-15 14:41:00,69.8,46.9,29.97,NE,45,2.9,3.8,44,0.00,,---,0.00,VWS V14.01,2013-05-15 18:41:00,
2013-05-15 14:42:00,69.8,46.9,29.97,NNE,22,2.2,2.9,44,0.00,,---,0.00,VWS V14.01,2013-05-15 18:42:00,
2013-05-15 14:43:00,70.0,47.1,29.97,NNE,22,3.6,3.6,44,0.00,,---,0.00,VWS V14.01,2013-05-15 18:43:00,
2013-05-15 14:44:00,70.0,47.1,29.97,NE,45,3.6,3.6,44,0.00,,---,0.00,VWS V14.01,2013-05-15 18:44:00,
2013-05-15 14:45:00,70.2,47.2,29.97,NNE,22,3.1,3.6,44,0.00,,---,0.00,VWS V14.01,2013-05-15 18:45:00,
2013-05-15 14:46:00,70.2,46.6,29.97,NNE,22,2.7,3.1,43,0.00,,---,0.00,VWS V14.01,2013-05-15 18:46:00,
2013-05-15 14:47:00,70.2,46.6,29.97,NNE,22,3.6,3.6,43,0.00,,---,0.00,VWS V14.01,2013-05-15 18:47:00,
2013-05-15 14:48:00,70.2,46.6,29.97,NNE,22,3.4,3.6,43,0.00,,---,0.00,VWS V14.01,2013-05-15 18:48:00,
2013-05-15 14:49:00,70.2,46.6,29.97,NE,45,2.0,3.4,43,0.00,,---,0.00,VWS V14.01,2013-05-15 18:49:00,
2013-05-15 14:50:00,70.2,46.6,29.97,NNE,22,2.5,2.5,43,0.00,,---,0.00,VWS V14.01,2013-05-15 18:50:00,
2013-05-15 14:51:00,70.2,46.6,29.97,NNE,22,2.9,2.9,43,0.00,,---,0.00,VWS V14.01,2013-05-15 18:51:00,
2013-05-15 14:52:00,70.3,46.8,29.97,North,0,2.5,2.9,43,0.00,,---,0.00,VWS V14.01,2013-05-15 18:52:00,
2013-05-15 14:53:00,70.3,46.8,29.97,NNE,22,2.9,2.9,43,0.00,,---,0.00,VWS V14.01,2013-05-15 18:53:00,
2013-05-15 14:54:00,70.3,46.8,29.97,NNW,338,2.9,2.9,43,0.00,,---,0.00,VWS V14.01,2013-05-15 18:54:00,
2013-05-15 14:55:00,70.3,46.2,29.97,NNE,22,2.5,2.9,42,0.00,,---,0.00,VWS V14.01,2013-05-15 18:55:00,
2013-05-15 14:56:00,70.3,46.8,29.94,NNE,22,3.1,3.1,43,0.00,,---,0.00,VWS V14.01,2013-05-15 18:56:00,
2013-05-15 14:57:00,70.3,46.8,29.94,ENE,68,4.5,4.5,43,0.00,,---,0.00,VWS V14.01,2013-05-15 18:57:00,
2013-05-15 14:58:00,70.3,46.8,29.94,NNE,22,2.5,4.5,43,0.00,,---,0.00,VWS V14.01,2013-05-15 18:58:00,
2013-05-15 14:59:00,70.3,46.8,29.94,NNE,22,3.1,3.1,43,0.00,,---,0.00,VWS V14.01,2013-05-15 18:59:00,
2013-05-15 15:00:00,70.5,46.3,29.94,NE,45,3.1,3.1,42,0.00,,---,0.00,VWS V14.01,2013-05-15 19:00:00,
2013-05-15 15:01:00,70.5,47.0,29.94,ENE,68,2.7,3.1,43,0.00,,---,0.00,VWS V14.01,2013-05-15 19:01:00,
2013-05-15 15:02:00,70.5,47.0,29.94,NE,45,2.7,2.7,43,0.00,,---,0.00,VWS V14.01,2013-05-15 19:02:00,
2013-05-15 15:03:00,70.9,47.3,29.94,ESE,112,0.9,2.7,43,0.00,,---,0.00,VWS V14.01,2013-05-15 19:03:00,
2013-05-15 15:04:00,70.9,47.3,29.94,NE,45,2.5,2.5,43,0.00,,---,0.00,VWS V14.01,2013-05-15 19:04:00,
2013-05-15 15:05:00,70.9,47.3,29.94,NNE,22,3.1,3.1,43,0.00,,---,0.00,VWS V14.01,2013-05-15 19:05:00,
2013-05-15 15:06:00,71.1,47.5,29.94,NE,45,3.4,3.4,43,0.00,,---,0.00,VWS V14.01,2013-05-15 19:06:00,
2013-05-15 15:07:00,71.1,47.5,29.94,ENE,68,2.0,3.4,43,0.00,,---,0.00,VWS V14.01,2013-05-15 19:07:00,
2013-05-15 15:10:00,71.6,47.9,29.94,ENE,68,3.8,3.8,43,0.00,,---,0.00,VWS V14.01,2013-05-15 19:10:00,
2013-05-15 15:11:00,71.6,47.3,29.94,NNW,338,1.6,3.8,42,0.00,,---,0.00,VWS V14.01,2013-05-15 19:11:00,
2013-05-15 15:12:00,71.8,47.5,29.94,NE,45,2.7,2.7,42,0.00,,---,0.00,VWS V14.01,2013-05-15 19:12:00,
2013-05-15 15:14:00,72.0,47.6,29.94,NNE,22,2.5,2.7,42,0.00,,---,0.00,VWS V14.01,2013-05-15 19:14:00,
2013-05-15 15:15:00,72.1,47.8,29.94,NE,45,4.3,4.3,42,0.00,,---,0.00,VWS V14.01,2013-05-15 19:15:00,
2013-05-15 15:17:00,72.1,47.2,29.94,NE,45,3.4,4.3,41,0.00,,---,0.00,VWS V14.01,2013-05-15 19:17:00,
2013-05-15 15:18:00,72.1,47.2,29.94,NNE,22,3.4,3.4,41,0.00,,---,0.00,VWS V14.01,2013-05-15 19:18:00,
2013-05-15 15:19:00,72.1,47.2,29.94,NNW,338,5.4,5.4,41,0.00,,---,0.00,VWS V14.01,2013-05-15 19:19:00,
2013-05-15 15:20:00,72.1,47.2,29.94,NNE,22,3.1,5.4,41,0.00,,---,0.00,VWS V14.01,2013-05-15 19:20:00,
2013-05-15 15:21:00,72.3,47.3,29.94,NE,45,4.9,4.9,41,0.00,,---,0.00,VWS V14.01,2013-05-15 19:21:00,
2013-05-15 15:22:00,72.3,48.0,29.94,NE,45,4.0,4.9,42,0.00,,---,0.00,VWS V14.01,2013-05-15 19:22:00,
2013-05-15 15:23:00,72.3,47.3,29.94,NNE,22,3.4,4.0,41,0.00,,---,0.00,VWS V14.01,2013-05-15 19:23:00,
2013-05-15 15:24:00,72.3,47.3,29.94,NNE,22,2.9,3.4,41,0.00,,---,0.00,VWS V14.01,2013-05-15 19:24:00,
2013-05-15 15:25:00,72.1,47.2,29.94,NE,45,2.9,2.9,41,0.00,,---,0.00,VWS V14.01,2013-05-15 19:25:00,
2013-05-15 15:26:00,72.1,47.2,29.94,NNE,22,2.0,2.9,41,0.00,,---,0.00,VWS V14.01,2013-05-15 19:26:00,
2013-05-15 15:27:00,72.3,48.0,29.94,NNE,22,3.1,3.1,42,0.00,,---,0.00,VWS V14.01,2013-05-15 19:27:00,
2013-05-15 15:29:00,72.5,48.1,29.94,NE,45,1.6,3.1,42,0.00,,---,0.00,VWS V14.01,2013-05-15 19:29:00,
2013-05-15 15:30:00,72.5,48.1,29.94,East,90,2.5,2.5,42,0.00,,---,0.00,VWS V14.01,2013-05-15 19:30:00,
2013-05-15 15:32:00,72.5,48.1,29.94,ENE,68,3.1,3.1,42,0.00,,---,0.00,VWS V14.01,2013-05-15 19:32:00,
2013-05-15 15:33:00,72.5,48.1,29.94,North,0,3.8,3.8,42,0.00,,---,0.00,VWS V14.01,2013-05-15 19:33:00,
2013-05-15 15:34:00,72.1,47.2,29.94,NE,45,3.8,3.8,41,0.00,,---,0.00,VWS V14.01,2013-05-15 19:34:00,
2013-05-15 15:35:00,72.1,47.2,29.94,ENE,68,4.0,4.0,41,0.00,,---,0.00,VWS V14.01,2013-05-15 19:35:00,
2013-05-15 15:36:00,72.0,47.0,29.94,NNE,22,1.6,4.0,41,0.00,,---,0.00,VWS V14.01,2013-05-15 19:36:00,
2013-05-15 15:37:00,72.0,47.0,29.94,NE,45,1.3,1.6,41,0.00,,---,0.00,VWS V14.01,2013-05-15 19:37:00,
2013-05-15 15:38:00,72.0,47.6,29.94,NNE,22,3.1,3.1,42,0.00,,---,0.00,VWS V14.01,2013-05-15 19:38:00,
2013-05-15 15:40:00,71.8,46.8,29.94,NNE,22,2.5,3.1,41,0.00,,---,0.00,VWS V14.01,2013-05-15 19:40:00,
2013-05-15 15:41:00,72.0,47.6,29.94,NNE,22,3.8,3.8,42,0.00,,---,0.00,VWS V14.01,2013-05-15 19:41:00,
2013-05-15 15:42:00,72.0,47.6,29.91,NE,45,2.0,3.8,42,0.00,,---,0.00,VWS V14.01,2013-05-15 19:42:00,
2013-05-15 15:43:00,72.1,47.8,29.91,NNE,22,2.0,2.0,42,0.00,,---,0.00,VWS V14.01,2013-05-15 19:43:00,
2013-05-15 15:45:00,72.1,47.2,29.91,NE,45,2.7,2.7,41,0.00,,---,0.00,VWS V14.01,2013-05-15 19:45:00,
2013-05-15 15:46:00,72.3,48.0,29.91,NE,45,3.8,3.8,42,0.00,,---,0.00,VWS V14.01,2013-05-15 19:46:00,
2013-05-15 15:48:00,72.3,47.3,29.91,WSW,248,2.5,3.8,41,0.00,,---,0.00,VWS V14.01,2013-05-15 19:48:00,
2013-05-15 15:49:00,72.7,48.3,29.91,NNW,338,1.6,2.5,42,0.00,,---,0.00,VWS V14.01,2013-05-15 19:49:00,
2013-05-15 15:50:00,72.9,48.5,29.91,SSE,158,1.1,1.6,42,0.00,,---,0.00,VWS V14.01,2013-05-15 19:50:00,
2013-05-15 15:51:00,72.9,48.5,29.91,NE,45,2.9,2.9,42,0.00,,---,0.00,VWS V14.01,2013-05-15 19:51:00,
2013-05-15 15:52:00,72.7,48.3,29.91,ENE,68,4.0,4.0,42,0.00,,---,0.00,VWS V14.01,2013-05-15 19:52:00,
2013-05-15 15:53:00,72.9,47.8,29.91,NNE,22,3.6,4.0,41,0.00,,---,0.00,VWS V14.01,2013-05-15 19:53:00,
2013-05-15 15:54:00,72.9,47.8,29.91,NE,45,1.3,3.6,41,0.00,,---,0.00,VWS V14.01,2013-05-15 19:54:00,
2013-05-15 15:55:00,72.9,47.8,29.91,NE,45,2.9,2.9,41,0.00,,---,0.00,VWS V14.01,2013-05-15 19:55:00,
2013-05-15 15:56:00,72.9,47.8,29.91,NE,45,1.6,2.9,41,0.00,,---,0.00,VWS V14.01,2013-05-15 19:56:00,
2013-05-15 15:57:00,73.0,48.0,29.91,NNE,22,2.2,2.2,41,0.00,,---,0.00,VWS V14.01,2013-05-15 19:57:00,
2013-05-15 15:58:00,73.2,48.1,29.91,NNE,22,2.5,2.5,41,0.00,,---,0.00,VWS V14.01,2013-05-15 19:58:00,
2013-05-15 15:59:00,73.2,48.8,29.91,South,180,1.6,2.5,42,0.00,,---,0.00,VWS V14.01,2013-05-15 19:59:00,
2013-05-15 16:01:00,73.4,48.3,29.91,NNE,22,0.0,1.6,41,0.00,,---,0.00,VWS V14.01,2013-05-15 20:01:00,
2013-05-15 16:02:00,73.6,48.5,29.91,NNE,22,0.0,0.0,41,0.00,,---,0.00,VWS V14.01,2013-05-15 20:02:00,
2013-05-15 16:04:00,73.8,49.3,29.91,NNW,338,1.6,1.6,42,0.00,,---,0.00,VWS V14.01,2013-05-15 20:04:00,
2013-05-15 16:05:00,73.8,48.6,29.91,NE,45,2.5,2.5,41,0.00,,---,0.00,VWS V14.01,2013-05-15 20:05:00,
2013-05-15 16:06:00,73.8,48.6,29.91,North,0,1.3,2.5,41,0.00,,---,0.00,VWS V14.01,2013-05-15 20:06:00,
2013-05-15 16:07:00,73.8,48.6,29.91,ENE,68,1.6,1.6,41,0.00,,---,0.00,VWS V14.01,2013-05-15 20:07:00,
2013-05-15 16:08:00,73.6,47.8,29.91,NNE,22,2.7,2.7,40,0.00,,---,0.00,VWS V14.01,2013-05-15 20:08:00,
2013-05-15 16:09:00,73.6,47.8,29.91,NE,45,2.9,2.9,40,0.00,,---,0.00,VWS V14.01,2013-05-15 20:09:00,
2013-05-15 16:10:00,73.6,47.8,29.91,NE,45,3.1,3.1,40,0.00,,---,0.00,VWS V14.01,2013-05-15 20:10:00,
2013-05-15 16:11:00,73.6,48.5,29.91,ENE,68,2.9,3.1,41,0.00,,---,0.00,VWS V14.01,2013-05-15 20:11:00,
2013-05-15 16:12:00,73.4,48.3,29.85,ENE,68,2.0,2.9,41,0.00,,---,0.00,VWS V14.01,2013-05-15 20:12:00,
2013-05-15 16:13:00,73.2,48.1,29.85,ENE,68,2.9,2.9,41,0.00,,---,0.00,VWS V14.01,2013-05-15 20:13:00,
2013-05-15 16:14:00,73.2,48.1,29.85,ENE,68,2.2,2.9,41,0.00,,---,0.00,VWS V14.01,2013-05-15 20:14:00,
2013-05-15 16:15:00,73.2,48.8,29.85,NE,45,2.5,2.5,42,0.00,,---,0.00,VWS V14.01,2013-05-15 20:15:00,
2013-05-15 16:17:00,73.0,48.6,29.85,NE,45,3.6,3.6,42,0.00,,---,0.00,VWS V14.01,2013-05-15 20:17:00,
2013-05-15 16:19:00,73.0,48.6,29.85,ESE,112,1.6,3.6,42,0.00,,---,0.00,VWS V14.01,2013-05-15 20:19:00,
2013-05-15 16:20:00,73.0,48.6,29.85,NNE,22,4.0,4.0,42,0.00,,---,0.00,VWS V14.01,2013-05-15 20:20:00,
2013-05-15 16:21:00,73.0,48.6,29.85,ENE,68,2.9,4.0,42,0.00,,---,0.00,VWS V14.01,2013-05-15 20:21:00,
2013-05-15 16:23:00,73.2,48.8,29.85,ENE,68,2.9,2.9,42,0.00,,---,0.00,VWS V14.01,2013-05-15 20:23:00,
2013-05-15 16:24:00,73.2,48.8,29.85,WSW,248,1.3,2.9,42,0.00,,---,0.00,VWS V14.01,2013-05-15 20:24:00,
2013-05-15 16:25:00,73.2,48.8,29.85,ESE,112,2.2,2.2,42,0.00,,---,0.00,VWS V14.01,2013-05-15 20:25:00,
2013-05-15 16:26:00,73.2,48.8,29.85,ENE,68,0.0,2.2,42,0.00,,---,0.00,VWS V14.01,2013-05-15 20:26:00,
2013-05-15 16:27:00,73.4,48.9,29.85,East,90,0.0,0.0,42,0.00,,---,0.00,VWS V14.01,2013-05-15 20:27:00,
2013-05-15 16:28:00,73.4,48.9,29.85,NNE,22,2.5,2.5,42,0.00,,---,0.00,VWS V14.01,2013-05-15 20:28:00,
2013-05-15 16:29:00,73.6,49.1,29.85,ENE,68,2.7,2.7,42,0.00,,---,0.00,VWS V14.01,2013-05-15 20:29:00,
2013-05-15 16:30:00,73.6,49.1,29.85,NE,45,1.1,2.7,42,0.00,,---,0.00,VWS V14.01,2013-05-15 20:30:00,
2013-05-15 16:32:00,73.6,49.1,29.85,ENE,68,2.5,2.5,42,0.00,,---,0.00,VWS V14.01,2013-05-15 20:32:00,
2013-05-15 16:33:00,73.6,49.1,29.85,East,90,1.1,2.5,42,0.00,,---,0.00,VWS V14.01,2013-05-15 20:33:00,
2013-05-15 16:35:00,73.9,49.4,29.85,NNE,22,0.0,1.1,42,0.00,,---,0.00,VWS V14.01,2013-05-15 20:35:00,
2013-05-15 16:36:00,74.1,49.6,29.85,NE,45,0.9,0.9,42,0.00,,---,0.00,VWS V14.01,2013-05-15 20:36:00,
2013-05-15 16:37:00,74.1,49.6,29.85,ENE,68,2.2,2.2,42,0.00,,---,0.00,VWS V14.01,2013-05-15 20:37:00,
2013-05-15 16:38:00,74.3,49.8,29.85,SSE,158,1.6,2.2,42,0.00,,---,0.00,VWS V14.01,2013-05-15 20:38:00,
2013-05-15 16:39:00,74.3,50.4,29.85,SSE,158,0.9,1.6,43,0.00,,---,0.00,VWS V14.01,2013-05-15 20:39:00,
2013-05-15 16:40:00,74.5,50.5,29.85,NNE,22,1.6,1.6,43,0.00,,---,0.00,VWS V14.01,2013-05-15 20:40:00,
2013-05-15 16:41:00,74.5,50.5,29.85,ENE,68,0.0,1.6,43,0.00,,---,0.00,VWS V14.01,2013-05-15 20:41:00,
2013-05-15 16:42:00,74.7,50.7,29.85,WSW,248,2.5,2.5,43,0.00,,---,0.00,VWS V14.01,2013-05-15 20:42:00,
2013-05-15 16:43:00,74.8,50.9,29.85,WSW,248,1.1,2.5,43,0.00,,---,0.00,VWS V14.01,2013-05-15 20:43:00,
2013-05-15 16:44:00,74.8,50.9,29.85,WNW,292,0.0,1.1,43,0.00,,---,0.00,VWS V14.01,2013-05-15 20:44:00,
2013-05-15 16:45:00,75.0,51.0,29.85,West,270,1.6,1.6,43,0.00,,---,0.00,VWS V14.01,2013-05-15 20:45:00,
2013-05-15 16:46:00,75.0,51.0,29.85,SSW,202,2.0,2.0,43,0.00,,---,0.00,VWS V14.01,2013-05-15 20:46:00,
2013-05-15 16:48:00,75.0,50.4,29.85,NNW,338,0.0,2.0,42,0.00,,---,0.00,VWS V14.01,2013-05-15 20:48:00,
2013-05-15 16:49:00,75.0,51.0,29.85,NE,45,3.6,3.6,43,0.00,,---,0.00,VWS V14.01,2013-05-15 20:49:00,
2013-05-15 16:50:00,75.2,49.9,29.85,NE,45,2.5,3.6,41,0.00,,---,0.00,VWS V14.01,2013-05-15 20:50:00,
2013-05-15 16:52:00,75.2,49.9,29.85,East,90,1.3,2.5,41,0.00,,---,0.00,VWS V14.01,2013-05-15 20:52:00,
2013-05-15 16:53:00,75.2,49.9,29.85,ENE,68,1.3,1.3,41,0.00,,---,0.00,VWS V14.01,2013-05-15 20:53:00,
2013-05-15 16:54:00,75.0,50.4,29.85,ENE,68,2.2,2.2,42,0.00,,---,0.00,VWS V14.01,2013-05-15 20:54:00,
2013-05-15 16:55:00,75.0,50.4,29.85,ENE,68,3.1,3.1,42,0.00,,---,0.00,VWS V14.01,2013-05-15 20:55:00,
2013-05-15 16:56:00,75.0,50.4,29.85,ENE,68,2.0,3.1,42,0.00,,---,0.00,VWS V14.01,2013-05-15 20:56:00,
2013-05-15 16:57:00,75.0,50.4,29.85,East,90,0.9,2.0,42,0.00,,---,0.00,VWS V14.01,2013-05-15 20:57:00,
2013-05-15 16:58:00,74.8,50.2,29.85,East,90,1.3,1.3,42,0.00,,---,0.00,VWS V14.01,2013-05-15 20:58:00,
2013-05-15 16:59:00,74.8,50.2,29.85,NNE,22,0.0,1.3,42,0.00,,---,0.00,VWS V14.01,2013-05-15 20:59:00,
2013-05-15 17:00:00,74.8,50.2,29.85,ESE,112,2.0,2.0,42,0.00,,---,0.00,VWS V14.01,2013-05-15 21:00:00,
2013-05-15 17:01:00,74.7,50.1,29.85,NE,45,1.1,2.0,42,0.00,,---,0.00,VWS V14.01,2013-05-15 21:01:00,
2013-05-15 17:02:00,74.7,50.1,29.85,ENE,68,0.0,1.1,42,0.00,,---,0.00,VWS V14.01,2013-05-15 21:02:00,
2013-05-15 17:03:00,74.7,50.1,29.85,ENE,68,0.0,0.0,42,0.00,,---,0.00,VWS V14.01,2013-05-15 21:03:00,
2013-05-15 17:06:00,74.5,49.9,29.85,SW,225,2.0,2.0,42,0.00,,---,0.00,VWS V14.01,2013-05-15 21:06:00,
2013-05-15 17:07:00,74.5,49.9,29.85,SE,135,3.6,3.6,42,0.00,,---,0.00,VWS V14.01,2013-05-15 21:07:00,
2013-05-15 17:08:00,74.5,49.9,29.85,NE,45,1.6,3.6,42,0.00,,---,0.00,VWS V14.01,2013-05-15 21:08:00,
2013-05-15 17:09:00,74.3,49.8,29.85,SSE,158,1.1,1.6,42,0.00,,---,0.00,VWS V14.01,2013-05-15 21:09:00,
2013-05-15 17:10:00,74.3,49.8,29.85,North,0,1.3,1.3,42,0.00,,---,0.00,VWS V14.01,2013-05-15 21:10:00,
2013-05-15 17:11:00,74.3,49.8,29.85,SSE,158,1.1,1.3,42,0.00,,---,0.00,VWS V14.01,2013-05-15 21:11:00,
2013-05-15 17:12:00,74.1,49.6,29.82,South,180,1.6,1.6,42,0.00,,---,0.00,VWS V14.01,2013-05-15 21:12:00,
2013-05-15 17:13:00,73.8,49.3,29.82,West,270,1.3,1.6,42,0.00,,---,0.00,VWS V14.01,2013-05-15 21:13:00,
2013-05-15 17:14:00,73.6,49.7,29.82,East,90,1.6,1.6,43,0.00,,---,0.00,VWS V14.01,2013-05-15 21:14:00,
2013-05-15 17:15:00,73.6,49.7,29.82,NNE,22,2.7,2.7,43,0.00,,---,0.00,VWS V14.01,2013-05-15 21:15:00,
2013-05-15 17:16:00,73.6,49.7,29.82,West,270,0.0,2.7,43,0.00,,---,0.00,VWS V14.01,2013-05-15 21:16:00,
2013-05-15 17:17:00,73.6,49.7,29.82,WNW,292,2.2,2.2,43,0.00,,---,0.00,VWS V14.01,2013-05-15 21:17:00,
2013-05-15 17:18:00,73.8,49.9,29.82,East,90,0.0,2.2,43,0.00,,---,0.00,VWS V14.01,2013-05-15 21:18:00,
2013-05-15 17:19:00,73.6,49.7,29.82,East,90,1.1,1.1,43,0.00,,---,0.00,VWS V14.01,2013-05-15 21:19:00,
2013-05-15 17:20:00,73.4,49.6,29.82,East,90,1.3,1.3,43,0.00,,---,0.00,VWS V14.01,2013-05-15 21:20:00,
2013-05-15 17:21:00,73.4,49.6,29.82,SSE,158,1.1,1.3,43,0.00,,---,0.00,VWS V14.01,2013-05-15 21:21:00,
2013-05-15 17:22:00,73.2,50.0,29.82,WNW,292,1.3,1.3,44,0.00,,---,0.00,VWS V14.01,2013-05-15 21:22:00,
2013-05-15 17:23:00,73.2,50.0,29.82,ENE,68,2.5,2.5,44,0.00,,---,0.00,VWS V14.01,2013-05-15 21:23:00,
2013-05-15 17:24:00,73.2,50.0,29.82,East,90,1.1,2.5,44,0.00,,---,0.00,VWS V14.01,2013-05-15 21:24:00,
2013-05-15 17:25:00,73.0,49.9,29.82,East,90,0.0,1.1,44,0.00,,---,0.00,VWS V14.01,2013-05-15 21:25:00,
2013-05-15 17:26:00,73.0,49.9,29.82,East,90,0.0,0.0,44,0.00,,---,0.00,VWS V14.01,2013-05-15 21:26:00,
2013-05-15 17:27:00,73.0,49.9,29.82,East,90,0.0,0.0,44,0.00,,---,0.00,VWS V14.01,2013-05-15 21:27:00,
2013-05-15 17:28:00,73.0,49.9,29.82,ENE,68,1.6,1.6,44,0.00,,---,0.00,VWS V14.01,2013-05-15 21:28:00,
2013-05-15 17:29:00,72.9,49.7,29.82,SSE,158,2.5,2.5,44,0.00,,---,0.00,VWS V14.01,2013-05-15 21:29:00,
2013-05-15 17:30:00,72.7,50.1,29.82,WNW,292,0.0,2.5,45,0.00,,---,0.00,VWS V14.01,2013-05-15 21:30:00,
2013-05-15 17:31:00,72.7,50.1,29.82,ESE,112,2.5,2.5,45,0.00,,---,0.00,VWS V14.01,2013-05-15 21:31:00,
2013-05-15 17:32:00,72.7,50.1,29.82,NE,45,0.0,2.5,45,0.00,,---,0.00,VWS V14.01,2013-05-15 21:32:00,
2013-05-15 17:33:00,72.7,50.1,29.82,ENE,68,0.0,0.0,45,0.00,,---,0.00,VWS V14.01,2013-05-15 21:33:00,
2013-05-15 17:34:00,72.7,50.7,29.82,ENE,68,1.6,1.6,46,0.00,,---,0.00,VWS V14.01,2013-05-15 21:34:00,
2013-05-15 17:35:00,72.7,50.1,29.82,ENE,68,0.9,1.6,45,0.00,,---,0.00,VWS V14.01,2013-05-15 21:35:00,
2013-05-15 17:36:00,72.7,50.7,29.82,NNE,22,4.0,4.0,46,0.00,,---,0.00,VWS V14.01,2013-05-15 21:36:00,
2013-05-15 17:37:00,72.7,50.7,29.82,SSW,202,2.0,4.0,46,0.00,,---,0.00,VWS V14.01,2013-05-15 21:37:00,
2013-05-15 17:38:00,72.7,50.7,29.82,NE,45,2.0,2.0,46,0.00,,---,0.00,VWS V14.01,2013-05-15 21:38:00,
2013-05-15 17:39:00,72.7,50.7,29.82,NNE,22,3.6,3.6,46,0.00,,---,0.00,VWS V14.01,2013-05-15 21:39:00,
2013-05-15 17:40:00,72.7,51.3,29.82,NE,45,3.4,3.6,47,0.00,,---,0.00,VWS V14.01,2013-05-15 21:40:00,
2013-05-15 17:41:00,72.7,51.3,29.82,NE,45,2.9,3.4,47,0.00,,---,0.00,VWS V14.01,2013-05-15 21:41:00,
2013-05-15 17:42:00,72.7,51.3,29.82,SW,225,1.6,2.9,47,0.00,,---,0.00,VWS V14.01,2013-05-15 21:42:00,
2013-05-15 17:43:00,72.7,51.3,29.82,WNW,292,2.5,2.5,47,0.00,,---,0.00,VWS V14.01,2013-05-15 21:43:00,
2013-05-15 17:44:00,72.7,51.3,29.82,SSE,158,1.6,2.5,47,0.00,,---,0.00,VWS V14.01,2013-05-15 21:44:00,
2013-05-15 17:45:00,72.5,51.2,29.82,SSE,158,1.3,1.6,47,0.00,,---,0.00,VWS V14.01,2013-05-15 21:45:00,
2013-05-15 17:46:00,72.5,51.2,29.82,North,0,1.6,1.6,47,0.00,,---,0.00,VWS V14.01,2013-05-15 21:46:00,
2013-05-15 17:47:00,72.5,51.2,29.82,ENE,68,1.6,1.6,47,0.00,,---,0.00,VWS V14.01,2013-05-15 21:47:00,
2013-05-15 17:48:00,72.5,51.2,29.82,NW,315,2.9,2.9,47,0.00,,---,0.00,VWS V14.01,2013-05-15 21:48:00,
2013-05-15 17:49:00,72.3,51.0,29.82,NW,315,0.0,2.9,47,0.00,,---,0.00,VWS V14.01,2013-05-15 21:49:00,
2013-05-15 17:50:00,72.3,51.0,29.82,SW,225,0.0,0.0,47,0.00,,---,0.00,VWS V14.01,2013-05-15 21:50:00,
2013-05-15 17:51:00,72.3,51.0,29.82,SSE,158,2.0,2.0,47,0.00,,---,0.00,VWS V14.01,2013-05-15 21:51:00,
2013-05-15 17:52:00,72.3,51.0,29.82,SSE,158,0.0,2.0,47,0.00,,---,0.00,VWS V14.01,2013-05-15 21:52:00,
2013-05-15 17:53:00,72.3,51.0,29.82,WNW,292,1.6,1.6,47,0.00,,---,0.00,VWS V14.01,2013-05-15 21:53:00,
2013-05-15 17:54:00,72.3,51.5,29.82,SSE,158,1.6,1.6,48,0.00,,---,0.00,VWS V14.01,2013-05-15 21:54:00,
2013-05-15 17:55:00,72.3,51.5,29.82,NNE,22,2.0,2.0,48,0.00,,---,0.00,VWS V14.01,2013-05-15 21:55:00,
2013-05-15 17:56:00,72.3,51.5,29.82,East,90,1.1,2.0,48,0.00,,---,0.00,VWS V14.01,2013-05-15 21:56:00,
2013-05-15 17:57:00,72.5,51.7,29.79,ESE,112,2.0,2.0,48,0.00,,---,0.00,VWS V14.01,2013-05-15 21:57:00,
2013-05-15 17:58:00,72.5,51.7,29.79,ESE,112,2.2,2.2,48,0.00,,---,0.00,VWS V14.01,2013-05-15 21:58:00,
2013-05-15 17:59:00,72.5,51.7,29.79,SW,225,1.1,2.2,48,0.00,,---,0.00,VWS V14.01,2013-05-15 21:59:00,
2013-05-15 18:00:00,72.5,51.7,29.79,South,180,0.0,1.1,48,0.00,,---,0.00,VWS V14.01,2013-05-15 22:00:00,
2013-05-15 18:01:00,72.5,51.7,29.79,WSW,248,0.0,0.0,48,0.00,,---,0.00,VWS V14.01,2013-05-15 22:01:00,
2013-05-15 18:02:00,72.5,52.3,29.79,SW,225,0.0,0.0,49,0.00,,---,0.00,VWS V14.01,2013-05-15 22:02:00,
2013-05-15 18:03:00,72.5,52.3,29.79,SSE,158,1.6,1.6,49,0.00,,---,0.00,VWS V14.01,2013-05-15 22:03:00,
2013-05-15 18:04:00,72.5,52.3,29.79,SSE,158,0.0,1.6,49,0.00,,---,0.00,VWS V14.01,2013-05-15 22:04:00,
2013-05-15 18:05:00,72.5,52.3,29.79,WNW,292,0.0,0.0,49,0.00,,---,0.00,VWS V14.01,2013-05-15 22:05:00,
2013-05-15 18:06:00,72.5,52.3,29.79,SSE,158,2.5,2.5,49,0.00,,---,0.00,VWS V14.01,2013-05-15 22:06:00,
2013-05-15 18:07:00,72.5,52.3,29.79,North,0,1.6,2.5,49,0.00,,---,0.00,VWS V14.01,2013-05-15 22:07:00,
2013-05-15 18:08:00,72.7,52.4,29.79,ENE,68,0.0,1.6,49,0.00,,---,0.00,VWS V14.01,2013-05-15 22:08:00,
2013-05-15 18:10:00,72.7,52.4,29.79,South,180,1.1,1.1,49,0.00,,---,0.00,VWS V14.01,2013-05-15 22:10:00,
2013-05-15 18:11:00,72.5,52.3,29.79,SSE,158,0.0,1.1,49,0.00,,---,0.00,VWS V14.01,2013-05-15 22:11:00,
2013-05-15 18:12:00,72.5,52.8,29.79,SSE,158,0.0,0.0,50,0.00,,---,0.00,VWS V14.01,2013-05-15 22:12:00,
2013-05-15 18:13:00,72.5,52.8,29.79,ESE,112,2.2,2.2,50,0.00,,---,0.00,VWS V14.01,2013-05-15 22:13:00,
2013-05-15 18:14:00,72.5,52.8,29.79,East,90,0.0,2.2,50,0.00,,---,0.00,VWS V14.01,2013-05-15 22:14:00,
2013-05-15 18:15:00,72.5,52.8,29.79,WSW,248,0.0,0.0,50,0.00,,---,0.00,VWS V14.01,2013-05-15 22:15:00,
2013-05-15 18:16:00,72.5,52.8,29.79,West,270,0.0,0.0,50,0.00,,---,0.00,VWS V14.01,2013-05-15 22:16:00,
2013-05-15 18:17:00,72.5,52.8,29.79,ESE,112,2.0,2.0,50,0.00,,---,0.00,VWS V14.01,2013-05-15 22:17:00,
2013-05-15 18:18:00,72.5,52.8,29.79,ESE,112,0.0,2.0,50,0.00,,---,0.00,VWS V14.01,2013-05-15 22:18:00,
2013-05-15 18:19:00,72.5,52.8,29.79,ESE,112,0.0,0.0,50,0.00,,---,0.00,VWS V14.01,2013-05-15 22:19:00,
2013-05-15 18:20:00,72.5,53.4,29.79,ESE,112,0.0,0.0,51,0.00,,---,0.00,VWS V14.01,2013-05-15 22:20:00,
2013-05-15 18:22:00,72.5,53.4,29.79,South,180,0.9,0.9,51,0.00,,---,0.00,VWS V14.01,2013-05-15 22:22:00,
2013-05-15 18:23:00,72.5,53.4,29.79,South,180,1.3,1.3,51,0.00,,---,0.00,VWS V14.01,2013-05-15 22:23:00,
2013-05-15 18:24:00,72.3,53.2,29.79,South,180,0.0,1.3,51,0.00,,---,0.00,VWS V14.01,2013-05-15 22:24:00,
2013-05-15 18:25:00,72.5,53.4,29.79,ESE,112,2.0,2.0,51,0.00,,---,0.00,VWS V14.01,2013-05-15 22:25:00,
2013-05-15 18:26:00,72.3,53.2,29.79,South,180,1.3,2.0,51,0.00,,---,0.00,VWS V14.01,2013-05-15 22:26:00,
2013-05-15 18:27:00,72.3,53.2,29.79,SSE,158,2.7,2.7,51,0.00,,---,0.00,VWS V14.01,2013-05-15 22:27:00,
2013-05-15 18:28:00,72.3,53.2,29.79,SSE,158,0.0,2.7,51,0.00,,---,0.00,VWS V14.01,2013-05-15 22:28:00,
2013-05-15 18:29:00,72.5,53.4,29.79,NNE,22,1.3,1.3,51,0.00,,---,0.00,VWS V14.01,2013-05-15 22:29:00,
2013-05-15 18:30:00,72.5,53.4,29.79,West,270,0.9,1.3,51,0.00,,---,0.00,VWS V14.01,2013-05-15 22:30:00,
2013-05-15 18:31:00,72.5,53.4,29.79,WSW,248,1.1,1.1,51,0.00,,---,0.00,VWS V14.01,2013-05-15 22:31:00,
2013-05-15 18:32:00,72.5,53.4,29.79,SE,135,2.0,2.0,51,0.00,,---,0.00,VWS V14.01,2013-05-15 22:32:00,
2013-05-15 18:33:00,72.5,53.4,29.79,NNW,338,2.5,2.5,51,0.00,,---,0.00,VWS V14.01,2013-05-15 22:33:00,
2013-05-15 18:34:00,72.7,53.5,29.79,SSW,202,0.9,2.5,51,0.00,,---,0.00,VWS V14.01,2013-05-15 22:34:00,
2013-05-15 18:35:00,72.7,53.5,29.79,SW,225,0.0,0.9,51,0.00,,---,0.00,VWS V14.01,2013-05-15 22:35:00,
2013-05-15 18:36:00,72.5,53.4,29.79,South,180,0.9,0.9,51,0.00,,---,0.00,VWS V14.01,2013-05-15 22:36:00,
2013-05-15 18:37:00,72.5,53.4,29.79,East,90,1.1,1.1,51,0.00,,---,0.00,VWS V14.01,2013-05-15 22:37:00,
2013-05-15 18:39:00,72.5,53.4,29.79,WNW,292,2.5,2.5,51,0.00,,---,0.00,VWS V14.01,2013-05-15 22:39:00,
2013-05-15 18:40:00,72.7,53.5,29.79,West,270,0.0,2.5,51,0.00,,---,0.00,VWS V14.01,2013-05-15 22:40:00,
2013-05-15 18:41:00,72.7,53.5,29.79,WSW,248,1.6,1.6,51,0.00,,---,0.00,VWS V14.01,2013-05-15 22:41:00,
2013-05-15 18:42:00,72.7,53.5,29.79,South,180,0.9,1.6,51,0.00,,---,0.00,VWS V14.01,2013-05-15 22:42:00,
2013-05-15 18:43:00,72.5,53.4,29.79,South,180,0.0,0.9,51,0.00,,---,0.00,VWS V14.01,2013-05-15 22:43:00,
2013-05-15 18:44:00,72.5,53.4,29.79,SSW,202,0.0,0.0,51,0.00,,---,0.00,VWS V14.01,2013-05-15 22:44:00,
2013-05-15 18:45:00,72.5,53.4,29.79,SSE,158,0.0,0.0,51,0.00,,---,0.00,VWS V14.01,2013-05-15 22:45:00,
2013-05-15 18:46:00,72.5,53.4,29.79,NW,315,0.0,0.0,51,0.00,,---,0.00,VWS V14.01,2013-05-15 22:46:00,
2013-05-15 18:47:00,72.5,53.4,29.79,South,180,1.6,1.6,51,0.00,,---,0.00,VWS V14.01,2013-05-15 22:47:00,
2013-05-15 18:48:00,72.5,53.4,29.79,SE,135,1.6,1.6,51,0.00,,---,0.00,VWS V14.01,2013-05-15 22:48:00,
2013-05-15 18:49:00,72.3,53.2,29.79,SSW,202,0.0,1.6,51,0.00,,---,0.00,VWS V14.01,2013-05-15 22:49:00,
2013-05-15 18:50:00,72.3,53.2,29.79,WSW,248,0.0,0.0,51,0.00,,---,0.00,VWS V14.01,2013-05-15 22:50:00,
2013-05-15 18:51:00,72.5,53.4,29.79,SSE,158,1.3,1.3,51,0.00,,---,0.00,VWS V14.01,2013-05-15 22:51:00,
2013-05-15 18:52:00,72.5,53.4,29.79,WNW,292,1.3,1.3,51,0.00,,---,0.00,VWS V14.01,2013-05-15 22:52:00,
2013-05-15 18:53:00,72.5,53.4,29.79,WNW,292,0.0,1.3,51,0.00,,---,0.00,VWS V14.01,2013-05-15 22:53:00,
2013-05-15 18:54:00,72.5,53.4,29.79,WNW,292,1.1,1.1,51,0.00,,---,0.00,VWS V14.01,2013-05-15 22:54:00,
2013-05-15 18:55:00,72.7,53.5,29.79,West,270,1.1,1.1,51,0.00,,---,0.00,VWS V14.01,2013-05-15 22:55:00,
2013-05-15 18:56:00,72.7,53.5,29.79,SSW,202,2.5,2.5,51,0.00,,---,0.00,VWS V14.01,2013-05-15 22:56:00,
2013-05-15 18:57:00,72.7,53.5,29.79,South,180,2.2,2.5,51,0.00,,---,0.00,VWS V14.01,2013-05-15 22:57:00,
2013-05-15 18:58:00,72.7,53.5,29.79,SSW,202,0.0,2.2,51,0.00,,---,0.00,VWS V14.01,2013-05-15 22:58:00,
2013-05-15 18:59:00,72.7,53.5,29.79,SSW,202,0.0,0.0,51,0.00,,---,0.00,VWS V14.01,2013-05-15 22:59:00,
2013-05-15 19:00:00,72.7,53.5,29.79,WSW,248,0.0,0.0,51,0.00,,---,0.00,VWS V14.01,2013-05-15 23:00:00,
2013-05-15 19:01:00,72.7,53.5,29.79,South,180,0.0,0.0,51,0.00,,---,0.00,VWS V14.01,2013-05-15 23:01:00,
2013-05-15 19:02:00,72.7,53.5,29.79,South,180,0.0,0.0,51,0.00,,---,0.00,VWS V14.01,2013-05-15 23:02:00,
2013-05-15 19:03:00,72.7,53.5,29.79,SSW,202,0.0,0.0,51,0.00,,---,0.00,VWS V14.01,2013-05-15 23:03:00,
2013-05-15 19:04:00,72.7,53.5,29.79,SSW,202,0.0,0.0,51,0.00,,---,0.00,VWS V14.01,2013-05-15 23:04:00,
2013-05-15 19:05:00,72.5,53.4,29.79,WNW,292,0.0,0.0,51,0.00,,---,0.00,VWS V14.01,2013-05-15 23:05:00,
2013-05-15 19:06:00,72.5,53.4,29.79,SSE,158,0.0,0.0,51,0.00,,---,0.00,VWS V14.01,2013-05-15 23:06:00,
2013-05-15 19:07:00,72.5,53.4,29.79,South,180,0.0,0.0,51,0.00,,---,0.00,VWS V14.01,2013-05-15 23:07:00,
2013-05-15 19:08:00,72.5,53.4,29.79,SSE,158,0.9,0.9,51,0.00,,---,0.00,VWS V14.01,2013-05-15 23:08:00,
2013-05-15 19:09:00,72.5,53.9,29.79,ENE,68,2.5,2.5,52,0.00,,---,0.00,VWS V14.01,2013-05-15 23:09:00,
2013-05-15 19:10:00,72.5,53.9,29.79,East,90,0.0,2.5,52,0.00,,---,0.00,VWS V14.01,2013-05-15 23:10:00,
2013-05-15 19:11:00,72.5,53.9,29.79,East,90,0.0,0.0,52,0.00,,---,0.00,VWS V14.01,2013-05-15 23:11:00,
2013-05-15 19:12:00,72.5,53.9,29.79,East,90,0.0,0.0,52,0.00,,---,0.00,VWS V14.01,2013-05-15 23:12:00,
2013-05-15 19:13:00,72.5,53.9,29.79,East,90,0.0,0.0,52,0.00,,---,0.00,VWS V14.01,2013-05-15 23:13:00,
2013-05-15 19:14:00,72.3,53.7,29.79,SSE,158,0.0,0.0,52,0.00,,---,0.00,VWS V14.01,2013-05-15 23:14:00,
2013-05-15 19:15:00,72.3,53.7,29.79,SSE,158,0.0,0.0,52,0.00,,---,0.00,VWS V14.01,2013-05-15 23:15:00,
2013-05-15 19:16:00,72.3,53.7,29.79,NW,315,0.9,0.9,52,0.00,,---,0.00,VWS V14.01,2013-05-15 23:16:00,
2013-05-15 19:17:00,72.3,53.7,29.79,NNE,22,2.0,2.0,52,0.00,,---,0.00,VWS V14.01,2013-05-15 23:17:00,
2013-05-15 19:18:00,72.3,54.2,29.79,NNE,22,0.0,2.0,53,0.00,,---,0.00,VWS V14.01,2013-05-15 23:18:00,
2013-05-15 19:19:00,72.3,54.2,29.79,ENE,68,0.0,0.0,53,0.00,,---,0.00,VWS V14.01,2013-05-15 23:19:00,
2013-05-15 19:20:00,72.1,54.1,29.79,ENE,68,0.0,0.0,53,0.00,,---,0.00,VWS V14.01,2013-05-15 23:20:00,
2013-05-15 19:21:00,72.1,54.1,29.79,ENE,68,0.0,0.0,53,0.00,,---,0.00,VWS V14.01,2013-05-15 23:21:00,
2013-05-15 19:22:00,72.0,53.9,29.79,ENE,68,2.5,2.5,53,0.00,,---,0.00,VWS V14.01,2013-05-15 23:22:00,
2013-05-15 19:23:00,72.0,53.9,29.79,ENE,68,1.3,2.5,53,0.00,,---,0.00,VWS V14.01,2013-05-15 23:23:00,
2013-05-15 19:24:00,72.0,53.9,29.79,ENE,68,1.1,1.3,53,0.00,,---,0.00,VWS V14.01,2013-05-15 23:24:00,
2013-05-15 19:25:00,72.0,53.9,29.79,ENE,68,0.0,1.1,53,0.00,,---,0.00,VWS V14.01,2013-05-15 23:25:00,
2013-05-15 19:26:00,72.0,53.9,29.82,ENE,68,0.0,0.0,53,0.00,,---,0.00,VWS V14.01,2013-05-15 23:26:00,
2013-05-15 19:28:00,71.8,53.8,29.82,ENE,68,0.0,0.0,53,0.00,,---,0.00,VWS V14.01,2013-05-15 23:28:00,
2013-05-15 19:29:00,71.6,54.1,29.82,ENE,68,0.0,0.0,54,0.00,,---,0.00,VWS V14.01,2013-05-15 23:29:00,
2013-05-15 19:30:00,71.6,54.1,29.82,ENE,68,0.0,0.0,54,0.00,,---,0.00,VWS V14.01,2013-05-15 23:30:00,
2013-05-15 19:31:00,71.6,53.6,29.82,ENE,68,0.0,0.0,53,0.00,,---,0.00,VWS V14.01,2013-05-15 23:31:00,
2013-05-15 19:32:00,71.6,53.6,29.82,ENE,68,0.0,0.0,53,0.00,,---,0.00,VWS V14.01,2013-05-15 23:32:00,
2013-05-15 19:33:00,71.4,53.9,29.82,ENE,68,0.0,0.0,54,0.00,,---,0.00,VWS V14.01,2013-05-15 23:33:00,
2013-05-15 19:34:00,71.4,53.9,29.82,ENE,68,0.0,0.0,54,0.00,,---,0.00,VWS V14.01,2013-05-15 23:34:00,
2013-05-15 19:35:00,71.4,53.9,29.82,ENE,68,0.0,0.0,54,0.00,,---,0.00,VWS V14.01,2013-05-15 23:35:00,
2013-05-15 19:36:00,71.2,53.8,29.82,ENE,68,0.0,0.0,54,0.00,,---,0.00,VWS V14.01,2013-05-15 23:36:00,
2013-05-15 19:37:00,71.1,53.6,29.82,ENE,68,0.0,0.0,54,0.00,,---,0.00,VWS V14.01,2013-05-15 23:37:00,
2013-05-15 19:38:00,71.1,53.6,29.82,ENE,68,0.0,0.0,54,0.00,,---,0.00,VWS V14.01,2013-05-15 23:38:00,
2013-05-15 19:39:00,71.1,54.1,29.82,ENE,68,0.0,0.0,55,0.00,,---,0.00,VWS V14.01,2013-05-15 23:39:00,
2013-05-15 19:41:00,71.1,54.1,29.82,ENE,68,0.0,0.0,55,0.00,,---,0.00,VWS V14.01,2013-05-15 23:41:00,
2013-05-15 19:42:00,70.9,53.9,29.82,ENE,68,0.0,0.0,55,0.00,,---,0.00,VWS V14.01,2013-05-15 23:42:00,
2013-05-15 19:43:00,70.9,53.9,29.82,ENE,68,0.0,0.0,55,0.00,,---,0.00,VWS V14.01,2013-05-15 23:43:00,
2013-05-15 19:44:00,70.9,53.9,29.82,ENE,68,0.0,0.0,55,0.00,,---,0.00,VWS V14.01,2013-05-15 23:44:00,
2013-05-15 19:45:00,70.7,53.8,29.82,ENE,68,0.0,0.0,55,0.00,,---,0.00,VWS V14.01,2013-05-15 23:45:00,
2013-05-15 19:46:00,70.7,53.8,29.82,ENE,68,0.0,0.0,55,0.00,,---,0.00,VWS V14.01,2013-05-15 23:46:00,
2013-05-15 19:47:00,70.7,53.8,29.82,ENE,68,0.0,0.0,55,0.00,,---,0.00,VWS V14.01,2013-05-15 23:47:00,
2013-05-15 19:48:00,70.5,54.1,29.82,ENE,68,0.0,0.0,56,0.00,,---,0.00,VWS V14.01,2013-05-15 23:48:00,
2013-05-15 19:49:00,70.5,54.1,29.82,ENE,68,0.0,0.0,56,0.00,,---,0.00,VWS V14.01,2013-05-15 23:49:00,
2013-05-15 19:50:00,70.3,53.9,29.82,ENE,68,0.0,0.0,56,0.00,,---,0.00,VWS V14.01,2013-05-15 23:50:00,
2013-05-15 19:51:00,70.3,53.9,29.82,ENE,68,0.0,0.0,56,0.00,,---,0.00,VWS V14.01,2013-05-15 23:51:00,
2013-05-15 19:52:00,70.2,54.2,29.82,ENE,68,0.0,0.0,57,0.00,,---,0.00,VWS V14.01,2013-05-15 23:52:00,
2013-05-15 19:53:00,70.2,54.2,29.82,ENE,68,0.0,0.0,57,0.00,,---,0.00,VWS V14.01,2013-05-15 23:53:00,
2013-05-15 19:54:00,70.2,54.2,29.82,ENE,68,0.0,0.0,57,0.00,,---,0.00,VWS V14.01,2013-05-15 23:54:00,
2013-05-15 19:55:00,70.2,54.2,29.82,ENE,68,0.0,0.0,57,0.00,,---,0.00,VWS V14.01,2013-05-15 23:55:00,
2013-05-15 19:56:00,70.0,54.1,29.82,ENE,68,0.0,0.0,57,0.00,,---,0.00,VWS V14.01,2013-05-15 23:56:00,
2013-05-15 19:57:00,70.0,54.1,29.82,ENE,68,0.0,0.0,57,0.00,,---,0.00,VWS V14.01,2013-05-15 23:57:00,
2013-05-15 19:58:00,70.0,54.1,29.82,ENE,68,0.0,0.0,57,0.00,,---,0.00,VWS V14.01,2013-05-15 23:58:00,
2013-05-15 19:59:00,69.8,53.9,29.82,ENE,68,0.0,0.0,57,0.00,,---,0.00,VWS V14.01,2013-05-15 23:59:00,
2013-05-15 20:00:00,69.8,53.9,29.82,ENE,68,0.0,0.0,57,0.00,,---,0.00,VWS V14.01,2013-05-16 00:00:00,
2013-05-15 20:01:00,69.6,54.2,29.82,ENE,68,0.0,0.0,58,0.00,,---,0.00,VWS V14.01,2013-05-16 00:01:00,
2013-05-15 20:02:00,69.6,54.2,29.82,ENE,68,0.0,0.0,58,0.00,,---,0.00,VWS V14.01,2013-05-16 00:02:00,
2013-05-15 20:03:00,69.6,54.2,29.82,ENE,68,0.0,0.0,58,0.00,,---,0.00,VWS V14.01,2013-05-16 00:03:00,
2013-05-15 20:04:00,69.6,54.2,29.82,ENE,68,0.0,0.0,58,0.00,,---,0.00,VWS V14.01,2013-05-16 00:04:00,
2013-05-15 20:05:00,69.4,54.0,29.82,ENE,68,0.0,0.0,58,0.00,,---,0.00,VWS V14.01,2013-05-16 00:05:00,
2013-05-15 20:06:00,69.4,54.0,29.82,ENE,68,0.0,0.0,58,0.00,,---,0.00,VWS V14.01,2013-05-16 00:06:00,
2013-05-15 20:07:00,69.3,54.3,29.82,ENE,68,0.0,0.0,59,0.00,,---,0.00,VWS V14.01,2013-05-16 00:07:00,
2013-05-15 20:08:00,69.3,54.8,29.82,ENE,68,0.0,0.0,60,0.00,,---,0.00,VWS V14.01,2013-05-16 00:08:00,
2013-05-15 20:09:00,69.3,54.8,29.82,ENE,68,0.0,0.0,60,0.00,,---,0.00,VWS V14.01,2013-05-16 00:09:00,
2013-05-15 20:10:00,69.1,54.6,29.82,ENE,68,0.0,0.0,60,0.00,,---,0.00,VWS V14.01,2013-05-16 00:10:00,
2013-05-15 20:11:00,69.1,55.1,29.82,ENE,68,0.0,0.0,61,0.00,,---,0.00,VWS V14.01,2013-05-16 00:11:00,
2013-05-15 20:12:00,69.1,55.5,29.82,ENE,68,0.0,0.0,62,0.00,,---,0.00,VWS V14.01,2013-05-16 00:12:00,
2013-05-15 20:13:00,69.1,55.5,29.82,ENE,68,0.0,0.0,62,0.00,,---,0.00,VWS V14.01,2013-05-16 00:13:00,
2013-05-15 20:14:00,68.9,54.9,29.82,ENE,68,0.0,0.0,61,0.00,,---,0.00,VWS V14.01,2013-05-16 00:14:00,
2013-05-15 20:15:00,68.9,54.9,29.82,ENE,68,0.0,0.0,61,0.00,,---,0.00,VWS V14.01,2013-05-16 00:15:00,
2013-05-15 20:16:00,68.7,54.7,29.82,ENE,68,0.0,0.0,61,0.00,,---,0.00,VWS V14.01,2013-05-16 00:16:00,
2013-05-15 20:17:00,68.7,54.7,29.82,ENE,68,0.0,0.0,61,0.00,,---,0.00,VWS V14.01,2013-05-16 00:17:00,
2013-05-15 20:18:00,68.7,55.2,29.82,ENE,68,0.0,0.0,62,0.00,,---,0.00,VWS V14.01,2013-05-16 00:18:00,
2013-05-15 20:19:00,68.7,55.2,29.82,ENE,68,0.0,0.0,62,0.00,,---,0.00,VWS V14.01,2013-05-16 00:19:00,
2013-05-15 20:20:00,68.5,55.0,29.82,ENE,68,0.0,0.0,62,0.00,,---,0.00,VWS V14.01,2013-05-16 00:20:00,
2013-05-15 20:21:00,68.5,55.0,29.82,ENE,68,0.0,0.0,62,0.00,,---,0.00,VWS V14.01,2013-05-16 00:21:00,
2013-05-15 20:22:00,68.4,54.4,29.82,East,90,0.0,0.0,61,0.00,,---,0.00,VWS V14.01,2013-05-16 00:22:00,
2013-05-15 20:23:00,68.4,54.8,29.82,East,90,0.0,0.0,62,0.00,,---,0.00,VWS V14.01,2013-05-16 00:23:00,
2013-05-15 20:24:00,68.4,54.8,29.82,East,90,0.0,0.0,62,0.00,,---,0.00,VWS V14.01,2013-05-16 00:24:00,
2013-05-15 20:25:00,68.4,54.8,29.82,East,90,0.0,0.0,62,0.00,,---,0.00,VWS V14.01,2013-05-16 00:25:00,
2013-05-15 20:26:00,68.4,54.8,29.82,East,90,0.0,0.0,62,0.00,,---,0.00,VWS V14.01,2013-05-16 00:26:00,
2013-05-15 20:27:00,68.2,54.7,29.82,East,90,0.0,0.0,62,0.00,,---,0.00,VWS V14.01,2013-05-16 00:27:00,
2013-05-15 20:28:00,68.2,54.7,29.82,East,90,0.0,0.0,62,0.00,,---,0.00,VWS V14.01,2013-05-16 00:28:00,
2013-05-15 20:29:00,68.2,54.7,29.82,East,90,0.0,0.0,62,0.00,,---,0.00,VWS V14.01,2013-05-16 00:29:00,
2013-05-15 20:30:00,68.2,55.1,29.82,East,90,0.0,0.0,63,0.00,,---,0.00,VWS V14.01,2013-05-16 00:30:00,
2013-05-15 20:31:00,68.0,55.0,29.82,East,90,0.0,0.0,63,0.00,,---,0.00,VWS V14.01,2013-05-16 00:31:00,
2013-05-15 20:32:00,68.0,55.0,29.82,East,90,0.0,0.0,63,0.00,,---,0.00,VWS V14.01,2013-05-16 00:32:00,
2013-05-15 20:33:00,68.0,55.0,29.82,East,90,0.0,0.0,63,0.00,,---,0.00,VWS V14.01,2013-05-16 00:33:00,
2013-05-15 20:34:00,68.0,55.0,29.82,East,90,0.0,0.0,63,0.00,,---,0.00,VWS V14.01,2013-05-16 00:34:00,
2013-05-15 20:35:00,68.0,54.5,29.82,East,90,0.0,0.0,62,0.00,,---,0.00,VWS V14.01,2013-05-16 00:35:00,
2013-05-15 20:36:00,67.8,54.8,29.82,East,90,0.0,0.0,63,0.00,,---,0.00,VWS V14.01,2013-05-16 00:36:00,
2013-05-15 20:37:00,67.8,55.2,29.82,East,90,0.0,0.0,64,0.00,,---,0.00,VWS V14.01,2013-05-16 00:37:00,
2013-05-15 20:38:00,67.8,55.2,29.82,East,90,0.0,0.0,64,0.00,,---,0.00,VWS V14.01,2013-05-16 00:38:00,
2013-05-15 20:39:00,67.6,55.0,29.82,East,90,0.0,0.0,64,0.00,,---,0.00,VWS V14.01,2013-05-16 00:39:00,
2013-05-15 20:40:00,67.6,55.0,29.82,East,90,0.0,0.0,64,0.00,,---,0.00,VWS V14.01,2013-05-16 00:40:00,
2013-05-15 20:41:00,67.5,54.9,29.82,East,90,0.0,0.0,64,0.00,,---,0.00,VWS V14.01,2013-05-16 00:41:00,
2013-05-15 20:42:00,67.5,54.9,29.82,East,90,0.0,0.0,64,0.00,,---,0.00,VWS V14.01,2013-05-16 00:42:00,
2013-05-15 20:43:00,67.5,54.9,29.82,East,90,0.0,0.0,64,0.00,,---,0.00,VWS V14.01,2013-05-16 00:43:00,
2013-05-15 20:44:00,67.5,54.9,29.82,East,90,0.0,0.0,64,0.00,,---,0.00,VWS V14.01,2013-05-16 00:44:00,
2013-05-15 20:45:00,67.3,55.1,29.82,East,90,0.0,0.0,65,0.00,,---,0.00,VWS V14.01,2013-05-16 00:45:00,
2013-05-15 20:46:00,67.3,55.1,29.82,East,90,0.0,0.0,65,0.00,,---,0.00,VWS V14.01,2013-05-16 00:46:00,
2013-05-15 20:47:00,67.3,54.7,29.82,East,90,0.0,0.0,64,0.00,,---,0.00,VWS V14.01,2013-05-16 00:47:00,
2013-05-15 20:48:00,67.3,55.1,29.82,East,90,0.0,0.0,65,0.00,,---,0.00,VWS V14.01,2013-05-16 00:48:00,
2013-05-15 20:49:00,67.1,55.0,29.82,East,90,0.0,0.0,65,0.00,,---,0.00,VWS V14.01,2013-05-16 00:49:00,
2013-05-15 20:50:00,67.1,55.0,29.82,East,90,0.0,0.0,65,0.00,,---,0.00,VWS V14.01,2013-05-16 00:50:00,
2013-05-15 20:51:00,67.1,55.0,29.82,East,90,0.0,0.0,65,0.00,,---,0.00,VWS V14.01,2013-05-16 00:51:00,
2013-05-15 20:52:00,67.1,55.0,29.82,East,90,0.0,0.0,65,0.00,,---,0.00,VWS V14.01,2013-05-16 00:52:00,
2013-05-15 20:53:00,67.1,55.0,29.82,East,90,0.0,0.0,65,0.00,,---,0.00,VWS V14.01,2013-05-16 00:53:00,
2013-05-15 20:54:00,66.9,55.2,29.82,East,90,0.0,0.0,66,0.00,,---,0.00,VWS V14.01,2013-05-16 00:54:00,
2013-05-15 20:55:00,66.9,55.2,29.82,East,90,0.0,0.0,66,0.00,,---,0.00,VWS V14.01,2013-05-16 00:55:00,
2013-05-15 20:56:00,66.9,55.2,29.82,East,90,0.0,0.0,66,0.00,,---,0.00,VWS V14.01,2013-05-16 00:56:00,
2013-05-15 20:57:00,66.9,55.2,29.82,East,90,0.0,0.0,66,0.00,,---,0.00,VWS V14.01,2013-05-16 00:57:00,
2013-05-15 20:58:00,66.9,55.2,29.82,East,90,0.0,0.0,66,0.00,,---,0.00,VWS V14.01,2013-05-16 00:58:00,
2013-05-15 20:59:00,66.9,55.6,29.82,East,90,0.0,0.0,67,0.00,,---,0.00,VWS V14.01,2013-05-16 00:59:00,
2013-05-15 21:00:00,66.9,55.6,29.82,East,90,0.0,0.0,67,0.00,,---,0.00,VWS V14.01,2013-05-16 01:00:00,
2013-05-15 21:01:00,66.7,55.5,29.82,East,90,0.0,0.0,67,0.00,,---,0.00,VWS V14.01,2013-05-16 01:01:00,
2013-05-15 21:02:00,66.7,55.5,29.82,East,90,0.0,0.0,67,0.00,,---,0.00,VWS V14.01,2013-05-16 01:02:00,
2013-05-15 21:04:00,66.7,55.5,29.82,East,90,0.0,0.0,67,0.00,,---,0.00,VWS V14.01,2013-05-16 01:04:00,
2013-05-15 21:05:00,66.7,55.5,29.82,East,90,0.0,0.0,67,0.00,,---,0.00,VWS V14.01,2013-05-16 01:05:00,
2013-05-15 21:06:00,66.6,55.3,29.82,East,90,0.0,0.0,67,0.00,,---,0.00,VWS V14.01,2013-05-16 01:06:00,
2013-05-15 21:07:00,66.6,55.3,29.82,East,90,0.0,0.0,67,0.00,,---,0.00,VWS V14.01,2013-05-16 01:07:00,
2013-05-15 21:08:00,66.6,55.3,29.82,East,90,0.0,0.0,67,0.00,,---,0.00,VWS V14.01,2013-05-16 01:08:00,
2013-05-15 21:09:00,66.6,55.3,29.82,East,90,0.0,0.0,67,0.00,,---,0.00,VWS V14.01,2013-05-16 01:09:00,
2013-05-15 21:11:00,66.6,55.7,29.82,East,90,0.0,0.0,68,0.00,,---,0.00,VWS V14.01,2013-05-16 01:11:00,
2013-05-15 21:12:00,66.6,55.7,29.82,East,90,0.0,0.0,68,0.00,,---,0.00,VWS V14.01,2013-05-16 01:12:00,
2013-05-15 21:13:00,66.6,55.7,29.82,East,90,0.0,0.0,68,0.00,,---,0.00,VWS V14.01,2013-05-16 01:13:00,
2013-05-15 21:14:00,66.4,55.5,29.82,East,90,0.0,0.0,68,0.00,,---,0.00,VWS V14.01,2013-05-16 01:14:00,
2013-05-15 21:15:00,66.4,55.5,29.82,East,90,0.0,0.0,68,0.00,,---,0.00,VWS V14.01,2013-05-16 01:15:00,
2013-05-15 21:16:00,66.4,55.5,29.82,East,90,0.0,0.0,68,0.00,,---,0.00,VWS V14.01,2013-05-16 01:16:00,
2013-05-15 21:18:00,66.2,55.3,29.82,East,90,0.0,0.0,68,0.00,,---,0.00,VWS V14.01,2013-05-16 01:18:00,
2013-05-15 21:19:00,66.2,55.3,29.82,East,90,0.0,0.0,68,0.00,,---,0.00,VWS V14.01,2013-05-16 01:19:00,
2013-05-15 21:20:00,66.2,55.3,29.82,East,90,0.0,0.0,68,0.00,,---,0.00,VWS V14.01,2013-05-16 01:20:00,
2013-05-15 21:21:00,66.2,55.3,29.82,East,90,0.0,0.0,68,0.00,,---,0.00,VWS V14.01,2013-05-16 01:21:00,
2013-05-15 21:22:00,66.2,55.3,29.82,East,90,0.0,0.0,68,0.00,,---,0.00,VWS V14.01,2013-05-16 01:22:00,
2013-05-15 21:23:00,66.0,55.6,29.82,East,90,0.0,0.0,69,0.00,,---,0.00,VWS V14.01,2013-05-16 01:23:00,
2013-05-15 21:25:00,66.0,55.6,29.82,East,90,0.0,0.0,69,0.00,,---,0.00,VWS V14.01,2013-05-16 01:25:00,
2013-05-15 21:26:00,66.0,55.6,29.85,East,90,0.0,0.0,69,0.00,,---,0.00,VWS V14.01,2013-05-16 01:26:00,
2013-05-15 21:27:00,66.0,55.6,29.85,East,90,0.0,0.0,69,0.00,,---,0.00,VWS V14.01,2013-05-16 01:27:00,
2013-05-15 21:28:00,66.0,55.6,29.85,East,90,0.0,0.0,69,0.00,,---,0.00,VWS V14.01,2013-05-16 01:28:00,
2013-05-15 21:29:00,66.0,55.6,29.85,East,90,0.0,0.0,69,0.00,,---,0.00,VWS V14.01,2013-05-16 01:29:00,
2013-05-15 21:30:00,66.0,55.6,29.85,East,90,0.0,0.0,69,0.00,,---,0.00,VWS V14.01,2013-05-16 01:30:00,
2013-05-15 21:31:00,65.8,55.4,29.85,East,90,0.0,0.0,69,0.00,,---,0.00,VWS V14.01,2013-05-16 01:31:00,
2013-05-15 21:32:00,65.8,55.8,29.85,East,90,0.0,0.0,70,0.00,,---,0.00,VWS V14.01,2013-05-16 01:32:00,
2013-05-15 21:33:00,65.8,55.8,29.85,East,90,0.0,0.0,70,0.00,,---,0.00,VWS V14.01,2013-05-16 01:33:00,
2013-05-15 21:34:00,65.8,55.8,29.85,East,90,0.0,0.0,70,0.00,,---,0.00,VWS V14.01,2013-05-16 01:34:00,
2013-05-15 21:35:00,65.8,55.8,29.85,East,90,0.0,0.0,70,0.00,,---,0.00,VWS V14.01,2013-05-16 01:35:00,
2013-05-15 21:36:00,65.8,55.8,29.85,East,90,0.0,0.0,70,0.00,,---,0.00,VWS V14.01,2013-05-16 01:36:00,
2013-05-15 21:37:00,65.8,55.8,29.85,East,90,0.0,0.0,70,0.00,,---,0.00,VWS V14.01,2013-05-16 01:37:00,
2013-05-15 21:38:00,65.8,55.8,29.85,East,90,0.0,0.0,70,0.00,,---,0.00,VWS V14.01,2013-05-16 01:38:00,
2013-05-15 21:39:00,65.8,55.8,29.85,East,90,0.0,0.0,70,0.00,,---,0.00,VWS V14.01,2013-05-16 01:39:00,
2013-05-15 21:40:00,65.8,55.8,29.85,East,90,0.0,0.0,70,0.00,,---,0.00,VWS V14.01,2013-05-16 01:40:00,
2013-05-15 21:41:00,65.7,55.6,29.85,East,90,0.0,0.0,70,0.00,,---,0.00,VWS V14.01,2013-05-16 01:41:00,
2013-05-15 21:42:00,65.7,56.0,29.85,East,90,0.0,0.0,71,0.00,,---,0.00,VWS V14.01,2013-05-16 01:42:00,
2013-05-15 21:43:00,65.7,56.0,29.85,East,90,0.0,0.0,71,0.00,,---,0.00,VWS V14.01,2013-05-16 01:43:00,
2013-05-15 21:44:00,65.7,56.0,29.85,East,90,0.0,0.0,71,0.00,,---,0.00,VWS V14.01,2013-05-16 01:44:00,
2013-05-15 21:45:00,65.7,56.0,29.85,East,90,0.0,0.0,71,0.00,,---,0.00,VWS V14.01,2013-05-16 01:45:00,
2013-05-15 21:46:00,65.7,56.0,29.85,East,90,0.0,0.0,71,0.00,,---,0.00,VWS V14.01,2013-05-16 01:46:00,
2013-05-15 21:47:00,65.7,56.0,29.85,East,90,0.0,0.0,71,0.00,,---,0.00,VWS V14.01,2013-05-16 01:47:00,
2013-05-15 21:48:00,65.7,56.0,29.85,East,90,0.0,0.0,71,0.00,,---,0.00,VWS V14.01,2013-05-16 01:48:00,
2013-05-15 21:49:00,65.7,56.0,29.85,East,90,0.0,0.0,71,0.00,,---,0.00,VWS V14.01,2013-05-16 01:49:00,
2013-05-15 21:50:00,65.7,56.0,29.85,East,90,0.0,0.0,71,0.00,,---,0.00,VWS V14.01,2013-05-16 01:50:00,
2013-05-15 21:51:00,65.7,56.0,29.85,East,90,0.0,0.0,71,0.00,,---,0.00,VWS V14.01,2013-05-16 01:51:00,
2013-05-15 21:52:00,65.7,56.0,29.85,East,90,0.0,0.0,71,0.00,,---,0.00,VWS V14.01,2013-05-16 01:52:00,
2013-05-15 21:53:00,65.7,56.0,29.85,East,90,0.0,0.0,71,0.00,,---,0.00,VWS V14.01,2013-05-16 01:53:00,
2013-05-15 21:54:00,65.7,56.4,29.85,East,90,0.0,0.0,72,0.00,,---,0.00,VWS V14.01,2013-05-16 01:54:00,
2013-05-15 21:55:00,65.5,56.2,29.85,East,90,0.0,0.0,72,0.00,,---,0.00,VWS V14.01,2013-05-16 01:55:00,
2013-05-15 21:56:00,65.5,56.2,29.85,East,90,0.0,0.0,72,0.00,,---,0.00,VWS V14.01,2013-05-16 01:56:00,
2013-05-15 21:57:00,65.5,56.2,29.85,East,90,0.0,0.0,72,0.00,,---,0.00,VWS V14.01,2013-05-16 01:57:00,
2013-05-15 21:58:00,65.7,56.4,29.85,East,90,0.0,0.0,72,0.00,,---,0.00,VWS V14.01,2013-05-16 01:58:00,
2013-05-15 21:59:00,65.7,56.4,29.85,East,90,0.0,0.0,72,0.00,,---,0.00,VWS V14.01,2013-05-16 01:59:00,
2013-05-15 22:00:00,65.7,56.4,29.85,East,90,0.0,0.0,72,0.00,,---,0.00,VWS V14.01,2013-05-16 02:00:00,
2013-05-15 22:01:00,65.7,56.4,29.85,East,90,0.0,0.0,72,0.00,,---,0.00,VWS V14.01,2013-05-16 02:01:00,
2013-05-15 22:02:00,65.7,56.4,29.85,East,90,0.0,0.0,72,0.00,,---,0.00,VWS V14.01,2013-05-16 02:02:00,
2013-05-15 22:03:00,65.7,56.4,29.85,East,90,0.0,0.0,72,0.00,,---,0.00,VWS V14.01,2013-05-16 02:03:00,
2013-05-15 22:04:00,65.7,56.4,29.85,East,90,0.0,0.0,72,0.00,,---,0.00,VWS V14.01,2013-05-16 02:04:00,
2013-05-15 22:05:00,65.7,56.4,29.85,East,90,0.0,0.0,72,0.00,,---,0.00,VWS V14.01,2013-05-16 02:05:00,
2013-05-15 22:06:00,65.7,56.4,29.85,East,90,0.0,0.0,72,0.00,,---,0.00,VWS V14.01,2013-05-16 02:06:00,
2013-05-15 22:07:00,65.7,56.4,29.85,East,90,0.0,0.0,72,0.00,,---,0.00,VWS V14.01,2013-05-16 02:07:00,
2013-05-15 22:08:00,65.7,56.4,29.85,East,90,0.0,0.0,72,0.00,,---,0.00,VWS V14.01,2013-05-16 02:08:00,
2013-05-15 22:09:00,65.7,56.4,29.85,East,90,0.0,0.0,72,0.00,,---,0.00,VWS V14.01,2013-05-16 02:09:00,
2013-05-15 22:10:00,65.8,57.0,29.85,East,90,0.0,0.0,73,0.00,,---,0.00,VWS V14.01,2013-05-16 02:10:00,
2013-05-15 22:11:00,65.8,57.0,29.85,East,90,0.0,0.0,73,0.00,,---,0.00,VWS V14.01,2013-05-16 02:11:00,
2013-05-15 22:12:00,65.8,57.0,29.85,East,90,0.0,0.0,73,0.00,,---,0.00,VWS V14.01,2013-05-16 02:12:00,
2013-05-15 22:13:00,65.8,57.0,29.85,East,90,0.0,0.0,73,0.00,,---,0.00,VWS V14.01,2013-05-16 02:13:00,
2013-05-15 22:14:00,65.8,57.0,29.85,East,90,0.0,0.0,73,0.00,,---,0.00,VWS V14.01,2013-05-16 02:14:00,
2013-05-15 22:15:00,66.0,57.1,29.85,East,90,0.0,0.0,73,0.00,,---,0.00,VWS V14.01,2013-05-16 02:15:00,
2013-05-15 22:16:00,66.0,57.1,29.85,East,90,0.0,0.0,73,0.00,,---,0.00,VWS V14.01,2013-05-16 02:16:00,
2013-05-15 22:17:00,66.0,57.1,29.85,East,90,0.0,0.0,73,0.00,,---,0.00,VWS V14.01,2013-05-16 02:17:00,
2013-05-15 22:18:00,66.0,57.1,29.85,East,90,0.0,0.0,73,0.00,,---,0.00,VWS V14.01,2013-05-16 02:18:00,
2013-05-15 22:19:00,66.0,57.1,29.85,East,90,0.0,0.0,73,0.00,,---,0.00,VWS V14.01,2013-05-16 02:19:00,
2013-05-15 22:20:00,66.0,57.1,29.85,East,90,0.0,0.0,73,0.00,,---,0.00,VWS V14.01,2013-05-16 02:20:00,
2013-05-15 22:21:00,66.0,57.5,29.85,East,90,0.0,0.0,74,0.00,,---,0.00,VWS V14.01,2013-05-16 02:21:00,
2013-05-15 22:22:00,66.0,57.5,29.85,East,90,0.0,0.0,74,0.00,,---,0.00,VWS V14.01,2013-05-16 02:22:00,
2013-05-15 22:23:00,66.0,57.1,29.85,East,90,0.0,0.0,73,0.00,,---,0.00,VWS V14.01,2013-05-16 02:23:00,
2013-05-15 22:24:00,66.2,57.3,29.85,East,90,0.0,0.0,73,0.00,,---,0.00,VWS V14.01,2013-05-16 02:24:00,
2013-05-15 22:25:00,66.2,57.3,29.85,East,90,0.0,0.0,73,0.00,,---,0.00,VWS V14.01,2013-05-16 02:25:00,
2013-05-15 22:26:00,66.2,57.3,29.82,East,90,0.0,0.0,73,0.00,,---,0.00,VWS V14.01,2013-05-16 02:26:00,
2013-05-15 22:27:00,66.4,57.5,29.82,East,90,0.0,0.0,73,0.00,,---,0.00,VWS V14.01,2013-05-16 02:27:00,
2013-05-15 22:28:00,66.4,57.5,29.82,East,90,0.0,0.0,73,0.00,,---,0.00,VWS V14.01,2013-05-16 02:28:00,
2013-05-15 22:29:00,66.6,57.7,29.82,East,90,0.0,0.0,73,0.00,,---,0.00,VWS V14.01,2013-05-16 02:29:00,
2013-05-15 22:30:00,66.6,58.0,29.82,East,90,0.0,0.0,74,0.00,,---,0.00,VWS V14.01,2013-05-16 02:30:00,
2013-05-15 22:31:00,66.6,57.7,29.82,East,90,0.0,0.0,73,0.00,,---,0.00,VWS V14.01,2013-05-16 02:31:00,
2013-05-15 22:32:00,66.6,58.0,29.82,East,90,0.0,0.0,74,0.00,,---,0.00,VWS V14.01,2013-05-16 02:32:00,
2013-05-15 22:33:00,66.7,58.2,29.82,East,90,0.0,0.0,74,0.00,,---,0.00,VWS V14.01,2013-05-16 02:33:00,
2013-05-15 22:34:00,66.7,58.2,29.82,East,90,0.0,0.0,74,0.00,,---,0.00,VWS V14.01,2013-05-16 02:34:00,
2013-05-15 22:35:00,66.7,58.2,29.82,East,90,0.0,0.0,74,0.00,,---,0.00,VWS V14.01,2013-05-16 02:35:00,
2013-05-15 22:36:00,66.7,58.2,29.82,East,90,0.0,0.0,74,0.00,,---,0.00,VWS V14.01,2013-05-16 02:36:00,
2013-05-15 22:37:00,66.7,57.8,29.82,East,90,0.0,0.0,73,0.00,,---,0.00,VWS V14.01,2013-05-16 02:37:00,
2013-05-15 22:38:00,66.9,58.4,29.82,East,90,0.0,0.0,74,0.00,,---,0.00,VWS V14.01,2013-05-16 02:38:00,
2013-05-15 22:39:00,66.9,58.4,29.82,East,90,0.0,0.0,74,0.00,,---,0.00,VWS V14.01,2013-05-16 02:39:00,
2013-05-15 22:40:00,66.9,58.4,29.82,East,90,0.0,0.0,74,0.00,,---,0.00,VWS V14.01,2013-05-16 02:40:00,
2013-05-15 22:41:00,66.9,58.4,29.85,East,90,0.0,0.0,74,0.00,,---,0.00,VWS V14.01,2013-05-16 02:41:00,
2013-05-15 22:42:00,66.9,58.4,29.85,East,90,0.0,0.0,74,0.00,,---,0.00,VWS V14.01,2013-05-16 02:42:00,
2013-05-15 22:43:00,67.1,58.2,29.85,East,90,0.0,0.0,73,0.00,,---,0.00,VWS V14.01,2013-05-16 02:43:00,
2013-05-15 22:44:00,67.1,58.2,29.85,East,90,0.0,0.0,73,0.00,,---,0.00,VWS V14.01,2013-05-16 02:44:00,
2013-05-15 22:45:00,67.1,58.2,29.85,East,90,0.0,0.0,73,0.00,,---,0.00,VWS V14.01,2013-05-16 02:45:00,
2013-05-15 22:46:00,67.1,58.2,29.85,East,90,0.0,0.0,73,0.00,,---,0.00,VWS V14.01,2013-05-16 02:46:00,
2013-05-15 22:47:00,67.3,58.3,29.85,East,90,0.0,0.0,73,0.00,,---,0.00,VWS V14.01,2013-05-16 02:47:00,
2013-05-15 22:48:00,67.3,58.3,29.85,East,90,0.0,0.0,73,0.00,,---,0.00,VWS V14.01,2013-05-16 02:48:00,
2013-05-15 22:49:00,67.3,58.3,29.85,East,90,0.0,0.0,73,0.00,,---,0.00,VWS V14.01,2013-05-16 02:49:00,
2013-05-15 22:50:00,67.3,58.3,29.85,East,90,0.0,0.0,73,0.00,,---,0.00,VWS V14.01,2013-05-16 02:50:00,
2013-05-15 22:51:00,67.3,58.3,29.85,East,90,0.0,0.0,73,0.00,,---,0.00,VWS V14.01,2013-05-16 02:51:00,
2013-05-15 22:52:00,67.3,58.3,29.85,East,90,0.0,0.0,73,0.00,,---,0.00,VWS V14.01,2013-05-16 02:52:00,
2013-05-15 22:53:00,67.5,58.5,29.85,East,90,0.0,0.0,73,0.00,,---,0.00,VWS V14.01,2013-05-16 02:53:00,
2013-05-15 22:54:00,67.5,58.5,29.85,East,90,0.0,0.0,73,0.00,,---,0.00,VWS V14.01,2013-05-16 02:54:00,
2013-05-15 22:55:00,67.6,58.7,29.85,East,90,0.0,0.0,73,0.00,,---,0.00,VWS V14.01,2013-05-16 02:55:00,
2013-05-15 22:57:00,67.6,58.7,29.85,East,90,0.0,0.0,73,0.00,,---,0.00,VWS V14.01,2013-05-16 02:57:00,
2013-05-15 22:58:00,67.6,58.7,29.85,East,90,0.0,0.0,73,0.00,,---,0.00,VWS V14.01,2013-05-16 02:58:00,
2013-05-15 22:59:00,67.6,58.7,29.85,East,90,0.0,0.0,73,0.00,,---,0.00,VWS V14.01,2013-05-16 02:59:00,
2013-05-15 23:00:00,67.8,58.5,29.85,East,90,0.0,0.0,72,0.00,,---,0.00,VWS V14.01,2013-05-16 03:00:00,
2013-05-15 23:01:00,67.8,58.5,29.85,East,90,0.0,0.0,72,0.00,,---,0.00,VWS V14.01,2013-05-16 03:01:00,
2013-05-15 23:02:00,68.0,58.7,29.85,East,90,0.0,0.0,72,0.00,,---,0.00,VWS V14.01,2013-05-16 03:02:00,
2013-05-15 23:03:00,68.0,58.7,29.85,East,90,0.0,0.0,72,0.00,,---,0.00,VWS V14.01,2013-05-16 03:03:00,
2013-05-15 23:04:00,68.0,58.7,29.85,East,90,0.0,0.0,72,0.00,,---,0.00,VWS V14.01,2013-05-16 03:04:00,
2013-05-15 23:05:00,68.0,58.7,29.85,SE,135,0.0,0.0,72,0.00,,---,0.00,VWS V14.01,2013-05-16 03:05:00,
2013-05-15 23:06:00,68.2,58.8,29.85,SE,135,0.0,0.0,72,0.00,,---,0.00,VWS V14.01,2013-05-16 03:06:00,
2013-05-15 23:07:00,68.2,58.8,29.85,SE,135,0.0,0.0,72,0.00,,---,0.00,VWS V14.01,2013-05-16 03:07:00,
2013-05-15 23:08:00,68.2,58.8,29.85,SSW,202,0.0,0.0,72,0.00,,---,0.00,VWS V14.01,2013-05-16 03:08:00,
2013-05-15 23:09:00,68.2,58.4,29.85,SSW,202,1.3,1.3,71,0.00,,---,0.00,VWS V14.01,2013-05-16 03:09:00,
2013-05-15 23:10:00,68.4,59.0,29.85,SSW,202,0.0,1.3,72,0.00,,---,0.00,VWS V14.01,2013-05-16 03:10:00,
2013-05-15 23:11:00,68.4,59.0,29.85,SSW,202,0.0,0.0,72,0.00,,---,0.00,VWS V14.01,2013-05-16 03:11:00,
2013-05-15 23:12:00,68.4,58.6,29.85,SSW,202,0.0,0.0,71,0.00,,---,0.00,VWS V14.01,2013-05-16 03:12:00,
2013-05-15 23:13:00,68.4,58.6,29.85,SSW,202,0.0,0.0,71,0.00,,---,0.00,VWS V14.01,2013-05-16 03:13:00,
2013-05-15 23:14:00,68.5,58.8,29.85,SSW,202,0.0,0.0,71,0.00,,---,0.00,VWS V14.01,2013-05-16 03:14:00,
2013-05-15 23:15:00,68.5,58.8,29.85,South,180,0.0,0.0,71,0.00,,---,0.00,VWS V14.01,2013-05-16 03:15:00,
2013-05-15 23:16:00,68.5,58.8,29.85,South,180,0.0,0.0,71,0.00,,---,0.00,VWS V14.01,2013-05-16 03:16:00,
2013-05-15 23:17:00,68.7,59.0,29.85,SSW,202,0.0,0.0,71,0.00,,---,0.00,VWS V14.01,2013-05-16 03:17:00,
2013-05-15 23:18:00,68.7,59.0,29.85,South,180,0.0,0.0,71,0.00,,---,0.00,VWS V14.01,2013-05-16 03:18:00,
2013-05-15 23:19:00,68.7,59.0,29.85,South,180,0.0,0.0,71,0.00,,---,0.00,VWS V14.01,2013-05-16 03:19:00,
2013-05-15 23:20:00,68.7,59.0,29.85,SSW,202,0.0,0.0,71,0.00,,---,0.00,VWS V14.01,2013-05-16 03:20:00,
2013-05-15 23:21:00,68.7,59.0,29.85,SW,225,0.0,0.0,71,0.00,,---,0.00,VWS V14.01,2013-05-16 03:21:00,
2013-05-15 23:22:00,68.7,59.0,29.85,SW,225,0.0,0.0,71,0.00,,---,0.00,VWS V14.01,2013-05-16 03:22:00,
2013-05-15 23:23:00,68.7,59.0,29.85,SSW,202,0.0,0.0,71,0.00,,---,0.00,VWS V14.01,2013-05-16 03:23:00,
2013-05-15 23:24:00,68.7,58.5,29.85,South,180,1.3,1.3,70,0.00,,---,0.00,VWS V14.01,2013-05-16 03:24:00,
2013-05-15 23:25:00,68.7,58.5,29.85,SSE,158,0.9,1.3,70,0.00,,---,0.00,VWS V14.01,2013-05-16 03:25:00,
2013-05-15 23:26:00,68.9,58.7,29.85,SSE,158,0.0,0.9,70,0.00,,---,0.00,VWS V14.01,2013-05-16 03:26:00,
2013-05-15 23:27:00,68.9,58.7,29.85,SSE,158,1.1,1.1,70,0.00,,---,0.00,VWS V14.01,2013-05-16 03:27:00,
2013-05-15 23:28:00,68.9,58.7,29.85,SSE,158,0.0,1.1,70,0.00,,---,0.00,VWS V14.01,2013-05-16 03:28:00,
2013-05-15 23:29:00,68.9,58.7,29.85,South,180,0.0,0.0,70,0.00,,---,0.00,VWS V14.01,2013-05-16 03:29:00,
2013-05-15 23:30:00,68.9,58.7,29.85,South,180,0.0,0.0,70,0.00,,---,0.00,VWS V14.01,2013-05-16 03:30:00,
2013-05-15 23:31:00,69.1,58.9,29.85,South,180,0.9,0.9,70,0.00,,---,0.00,VWS V14.01,2013-05-16 03:31:00,
2013-05-15 23:32:00,69.3,59.1,29.85,South,180,0.0,0.9,70,0.00,,---,0.00,VWS V14.01,2013-05-16 03:32:00,
2013-05-15 23:33:00,69.3,59.1,29.85,SSW,202,0.0,0.0,70,0.00,,---,0.00,VWS V14.01,2013-05-16 03:33:00,
2013-05-15 23:34:00,69.3,59.1,29.85,SSW,202,0.0,0.0,70,0.00,,---,0.00,VWS V14.01,2013-05-16 03:34:00,
2013-05-15 23:35:00,69.3,59.1,29.85,South,180,0.0,0.0,70,0.00,,---,0.00,VWS V14.01,2013-05-16 03:35:00,
2013-05-15 23:36:00,69.3,59.1,29.85,South,180,0.0,0.0,70,0.00,,---,0.00,VWS V14.01,2013-05-16 03:36:00,
2013-05-15 23:37:00,69.3,58.7,29.85,SSW,202,1.6,1.6,69,0.00,,---,0.00,VWS V14.01,2013-05-16 03:37:00,
2013-05-15 23:38:00,69.3,58.7,29.85,SSW,202,0.0,1.6,69,0.00,,---,0.00,VWS V14.01,2013-05-16 03:38:00,
2013-05-15 23:39:00,69.3,58.7,29.85,SSW,202,0.0,0.0,69,0.00,,---,0.00,VWS V14.01,2013-05-16 03:39:00,
2013-05-15 23:40:00,69.3,58.7,29.85,South,180,0.9,0.9,69,0.00,,---,0.00,VWS V14.01,2013-05-16 03:40:00,
2013-05-15 23:41:00,69.3,58.7,29.85,South,180,0.0,0.9,69,0.00,,---,0.00,VWS V14.01,2013-05-16 03:41:00,
2013-05-15 23:42:00,69.3,58.7,29.85,South,180,1.1,1.1,69,0.00,,---,0.00,VWS V14.01,2013-05-16 03:42:00,
2013-05-15 23:43:00,69.3,58.7,29.85,South,180,0.0,1.1,69,0.00,,---,0.00,VWS V14.01,2013-05-16 03:43:00,
2013-05-15 23:44:00,69.4,58.8,29.85,South,180,0.0,0.0,69,0.00,,---,0.00,VWS V14.01,2013-05-16 03:44:00,
2013-05-15 23:45:00,69.4,58.8,29.85,South,180,0.0,0.0,69,0.00,,---,0.00,VWS V14.01,2013-05-16 03:45:00,
2013-05-15 23:46:00,69.4,58.8,29.85,South,180,0.0,0.0,69,0.00,,---,0.00,VWS V14.01,2013-05-16 03:46:00,
2013-05-15 23:47:00,69.4,58.8,29.85,South,180,0.0,0.0,69,0.00,,---,0.00,VWS V14.01,2013-05-16 03:47:00,
2013-05-15 23:48:00,69.4,58.8,29.85,SSW,202,0.0,0.0,69,0.00,,---,0.00,VWS V14.01,2013-05-16 03:48:00,
2013-05-15 23:49:00,69.4,58.8,29.85,SSW,202,0.0,0.0,69,0.00,,---,0.00,VWS V14.01,2013-05-16 03:49:00,
2013-05-15 23:50:00,69.4,58.8,29.85,SSW,202,0.0,0.0,69,0.00,,---,0.00,VWS V14.01,2013-05-16 03:50:00,
2013-05-15 23:51:00,69.4,58.8,29.85,SSW,202,0.0,0.0,69,0.00,,---,0.00,VWS V14.01,2013-05-16 03:51:00,
2013-05-15 23:52:00,69.6,59.0,29.85,WSW,248,0.0,0.0,69,0.00,,---,0.00,VWS V14.01,2013-05-16 03:52:00,
2013-05-15 23:53:00,69.6,59.0,29.85,SSW,202,1.3,1.3,69,0.00,,---,0.00,VWS V14.01,2013-05-16 03:53:00,
2013-05-15 23:54:00,69.6,59.0,29.85,SSW,202,0.0,1.3,69,0.00,,---,0.00,VWS V14.01,2013-05-16 03:54:00,
2013-05-15 23:55:00,69.6,58.6,29.85,SSW,202,0.0,0.0,68,0.00,,---,0.00,VWS V14.01,2013-05-16 03:55:00,
2013-05-15 23:56:00,69.6,58.6,29.85,SSW,202,0.0,0.0,68,0.00,,---,0.00,VWS V14.01,2013-05-16 03:56:00,
2013-05-15 23:57:00,69.6,58.6,29.85,SSW,202,0.0,0.0,68,0.00,,---,0.00,VWS V14.01,2013-05-16 03:57:00,
2013-05-15 23:58:00,69.6,58.6,29.85,SSW,202,0.0,0.0,68,0.00,,---,0.00,VWS V14.01,2013-05-16 03:58:00,
2013-05-15 23:59:00,69.6,58.6,29.85,SSW,202,1.6,1.6,68,0.00,,---,0.00,VWS V14.01,2013-05-16 03:59:00,